Wetterdaten: Mittwoch, 18.09.2019
Datum Zeit Temp. A. Feuchte A. Luftdruck Regen Wind Richtung Richtung Sonnenschein ET UV Solar Taupunkt Windchill Windböen
18.09.2019 00:00 13,0 °C 85 % 1018,3 hPa 0,0 mm 0,0 km/h (0 Bft) N-NO 22 ° 0 min 0,000 mm 0,0 UV-I 0 W/m² 10,5 °C 13,0 °C 0,0 km/h (0 Bft)
18.09.2019 00:01 12,9 °C 84 % 1018,3 hPa 0,0 mm 0,0 km/h (0 Bft) N-NO 22 ° 0 min 0,000 mm 0,0 UV-I 0 W/m² 10,3 °C 12,9 °C 0,0 km/h (0 Bft)
18.09.2019 00:02 13,0 °C 84 % 1018,3 hPa 0,0 mm 0,0 km/h (0 Bft) N-NO 22 ° 0 min 0,000 mm 0,0 UV-I 0 W/m² 10,4 °C 13,0 °C 0,0 km/h (0 Bft)
18.09.2019 00:03 12,9 °C 84 % 1018,2 hPa 0,0 mm 0,0 km/h (0 Bft) N-NO 22 ° 0 min 0,000 mm 0,0 UV-I 0 W/m² 10,3 °C 12,9 °C 0,0 km/h (0 Bft)
18.09.2019 00:04 13,0 °C 85 % 1018,2 hPa 0,0 mm 0,0 km/h (0 Bft) N-NO 22 ° 0 min 0,000 mm 0,0 UV-I 0 W/m² 10,5 °C 13,0 °C 0,0 km/h (0 Bft)
18.09.2019 00:05 12,9 °C 85 % 1018,2 hPa 0,0 mm 0,9 km/h (0 Bft) N-NO 22 ° 0 min 0,000 mm 0,0 UV-I 0 W/m² 10,4 °C 12,9 °C 3,2 km/h (1 Bft)
18.09.2019 00:06 12,9 °C 85 % 1018,2 hPa 0,0 mm 0,6 km/h (0 Bft) N-NO 22 ° 0 min 0,000 mm 0,0 UV-I 0 W/m² 10,4 °C 12,9 °C 3,2 km/h (1 Bft)
18.09.2019 00:07 12,9 °C 85 % 1018,3 hPa 0,0 mm 0,0 km/h (0 Bft) N-NO 22 ° 0 min 0,000 mm 0,0 UV-I 0 W/m² 10,4 °C 12,9 °C 0,0 km/h (0 Bft)
18.09.2019 00:08 12,9 °C 84 % 1018,3 hPa 0,0 mm 0,0 km/h (0 Bft) N-NO 22 ° 0 min 0,000 mm 0,0 UV-I 0 W/m² 10,3 °C 12,9 °C 0,0 km/h (0 Bft)
18.09.2019 00:09 12,9 °C 85 % 1018,3 hPa 0,0 mm 1,7 km/h (1 Bft) N-NO 22 ° 0 min 0,000 mm 0,0 UV-I 0 W/m² 10,4 °C 12,9 °C 4,8 km/h (1 Bft)
18.09.2019 00:10 12,9 °C 84 % 1018,3 hPa 0,0 mm 1,3 km/h (1 Bft) N-NO 22 ° 0 min 0,000 mm 0,0 UV-I 0 W/m² 10,3 °C 12,9 °C 3,2 km/h (1 Bft)
18.09.2019 00:11 12,9 °C 84 % 1018,3 hPa 0,0 mm 0,6 km/h (0 Bft) N-NO 22 ° 0 min 0,000 mm 0,0 UV-I 0 W/m² 10,3 °C 12,9 °C 1,6 km/h (1 Bft)
18.09.2019 00:12 12,9 °C 84 % 1018,3 hPa 0,0 mm 0,0 km/h (0 Bft) N-NO 22 ° 0 min 0,000 mm 0,0 UV-I 0 W/m² 10,3 °C 12,9 °C 0,0 km/h (0 Bft)
18.09.2019 00:13 12,9 °C 84 % 1018,3 hPa 0,0 mm 1,3 km/h (1 Bft) N-NO 22 ° 0 min 0,000 mm 0,0 UV-I 0 W/m² 10,3 °C 12,9 °C 3,2 km/h (1 Bft)
18.09.2019 00:14 12,9 °C 84 % 1018,3 hPa 0,0 mm 1,0 km/h (0 Bft) N-NO 22 ° 0 min 0,000 mm 0,0 UV-I 0 W/m² 10,3 °C 12,9 °C 4,8 km/h (1 Bft)
18.09.2019 00:15 12,9 °C 84 % 1018,3 hPa 0,0 mm 1,3 km/h (1 Bft) N-NO 22 ° 0 min 0,000 mm 0,0 UV-I 0 W/m² 10,3 °C 12,9 °C 1,6 km/h (1 Bft)
18.09.2019 00:16 12,9 °C 84 % 1018,3 hPa 0,0 mm 2,3 km/h (1 Bft) N-NO 22 ° 0 min 0,000 mm 0,0 UV-I 0 W/m² 10,3 °C 12,9 °C 4,8 km/h (1 Bft)
18.09.2019 00:17 12,9 °C 84 % 1018,3 hPa 0,0 mm 4,3 km/h (1 Bft) N 5 ° 0 min 0,000 mm 0,0 UV-I 0 W/m² 10,3 °C 12,9 °C 6,4 km/h (2 Bft)
18.09.2019 00:18 12,9 °C 84 % 1018,3 hPa 0,0 mm 2,8 km/h (1 Bft) N 5 ° 0 min 0,000 mm 0,0 UV-I 0 W/m² 10,3 °C 12,9 °C 3,2 km/h (1 Bft)
18.09.2019 00:19 12,8 °C 84 % 1018,3 hPa 0,0 mm 2,7 km/h (1 Bft) N 5 ° 0 min 0,000 mm 0,0 UV-I 0 W/m² 10,2 °C 12,8 °C 4,8 km/h (1 Bft)
18.09.2019 00:20 12,8 °C 83 % 1018,3 hPa 0,0 mm 4,1 km/h (1 Bft) N 5 ° 0 min 0,000 mm 0,0 UV-I 0 W/m² 10,0 °C 12,8 °C 4,8 km/h (1 Bft)
18.09.2019 00:21 12,8 °C 84 % 1018,3 hPa 0,0 mm 1,7 km/h (1 Bft) N 5 ° 0 min 0,000 mm 0,0 UV-I 0 W/m² 10,2 °C 12,8 °C 3,2 km/h (1 Bft)
18.09.2019 00:22 12,9 °C 84 % 1018,3 hPa 0,0 mm 1,3 km/h (1 Bft) N 5 ° 0 min 0,000 mm 0,0 UV-I 0 W/m² 10,3 °C 12,9 °C 3,2 km/h (1 Bft)
18.09.2019 00:23 12,9 °C 83 % 1018,3 hPa 0,0 mm 2,7 km/h (1 Bft) N-NW 338 ° 0 min 0,000 mm 0,0 UV-I 0 W/m² 10,1 °C 12,9 °C 4,8 km/h (1 Bft)
18.09.2019 00:24 12,8 °C 84 % 1018,4 hPa 0,0 mm 2,8 km/h (1 Bft) N-NW 338 ° 0 min 0,000 mm 0,0 UV-I 0 W/m² 10,2 °C 12,8 °C 4,8 km/h (1 Bft)
18.09.2019 00:25 12,8 °C 84 % 1018,4 hPa 0,0 mm 0,5 km/h (0 Bft) N-NW 338 ° 0 min 0,000 mm 0,0 UV-I 0 W/m² 10,2 °C 12,8 °C 1,6 km/h (1 Bft)
18.09.2019 00:26 12,8 °C 83 % 1018,3 hPa 0,0 mm 0,0 km/h (0 Bft) N-NW 338 ° 0 min 0,000 mm 0,0 UV-I 0 W/m² 10,0 °C 12,8 °C 0,0 km/h (0 Bft)
18.09.2019 00:27 12,8 °C 83 % 1018,3 hPa 0,0 mm 0,0 km/h (0 Bft) N-NW 338 ° 0 min 0,000 mm 0,0 UV-I 0 W/m² 10,0 °C 12,8 °C 0,0 km/h (0 Bft)
18.09.2019 00:28 12,8 °C 83 % 1018,4 hPa 0,0 mm 1,2 km/h (1 Bft) N-NW 338 ° 0 min 0,000 mm 0,0 UV-I 0 W/m² 10,0 °C 12,8 °C 3,2 km/h (1 Bft)
18.09.2019 00:29 12,8 °C 82 % 1018,4 hPa 0,0 mm 1,3 km/h (1 Bft) N-NW 338 ° 0 min 0,000 mm 0,0 UV-I 0 W/m² 9,8 °C 12,8 °C 3,2 km/h (1 Bft)
18.09.2019 00:30 12,8 °C 82 % 1018,4 hPa 0,0 mm 1,0 km/h (0 Bft) N-NW 338 ° 0 min 0,000 mm 0,0 UV-I 0 W/m² 9,8 °C 12,8 °C 3,2 km/h (1 Bft)
18.09.2019 00:31 12,8 °C 82 % 1018,4 hPa 0,0 mm 0,0 km/h (0 Bft) N-NW 338 ° 0 min 0,000 mm 0,0 UV-I 0 W/m² 9,8 °C 12,8 °C 0,0 km/h (0 Bft)
18.09.2019 00:32 12,8 °C 82 % 1018,4 hPa 0,0 mm 0,0 km/h (0 Bft) N-NW 338 ° 0 min 0,000 mm 0,0 UV-I 0 W/m² 9,8 °C 12,8 °C 0,0 km/h (0 Bft)
18.09.2019 00:33 12,8 °C 83 % 1018,4 hPa 0,0 mm 0,0 km/h (0 Bft) N-NW 338 ° 0 min 0,000 mm 0,0 UV-I 0 W/m² 10,0 °C 12,8 °C 0,0 km/h (0 Bft)
18.09.2019 00:34 12,8 °C 83 % 1018,4 hPa 0,0 mm 0,0 km/h (0 Bft) N-NW 338 ° 0 min 0,000 mm 0,0 UV-I 0 W/m² 10,0 °C 12,8 °C 0,0 km/h (0 Bft)
18.09.2019 00:35 12,8 °C 83 % 1018,4 hPa 0,0 mm 0,0 km/h (0 Bft) N-NW 338 ° 0 min 0,000 mm 0,0 UV-I 0 W/m² 10,0 °C 12,8 °C 0,0 km/h (0 Bft)
18.09.2019 00:36 12,8 °C 83 % 1018,4 hPa 0,0 mm 0,0 km/h (0 Bft) N-NW 338 ° 0 min 0,000 mm 0,0 UV-I 0 W/m² 10,0 °C 12,8 °C 0,0 km/h (0 Bft)
18.09.2019 00:37 12,7 °C 83 % 1018,4 hPa 0,0 mm 0,0 km/h (0 Bft) N-NW 338 ° 0 min 0,000 mm 0,0 UV-I 0 W/m² 9,9 °C 12,7 °C 0,0 km/h (0 Bft)
18.09.2019 00:38 12,7 °C 83 % 1018,4 hPa 0,0 mm 0,0 km/h (0 Bft) N-NW 338 ° 0 min 0,000 mm 0,0 UV-I 0 W/m² 9,9 °C 12,7 °C 0,0 km/h (0 Bft)
18.09.2019 00:39 12,7 °C 84 % 1018,4 hPa 0,0 mm 1,4 km/h (1 Bft) N-NO 32 ° 0 min 0,000 mm 0,0 UV-I 0 W/m² 10,1 °C 12,7 °C 3,2 km/h (1 Bft)
18.09.2019 00:40 12,6 °C 82 % 1018,4 hPa 0,0 mm 1,2 km/h (1 Bft) N-NO 32 ° 0 min 0,000 mm 0,0 UV-I 0 W/m² 9,6 °C 12,6 °C 1,6 km/h (1 Bft)
18.09.2019 00:41 12,6 °C 82 % 1018,3 hPa 0,0 mm 1,7 km/h (1 Bft) N-NO 32 ° 0 min 0,000 mm 0,0 UV-I 0 W/m² 9,6 °C 12,6 °C 3,2 km/h (1 Bft)
18.09.2019 00:42 12,7 °C 82 % 1018,4 hPa 0,0 mm 0,3 km/h (0 Bft) N-NO 32 ° 0 min 0,000 mm 0,0 UV-I 0 W/m² 9,7 °C 12,7 °C 1,6 km/h (1 Bft)
18.09.2019 00:43 12,7 °C 82 % 1018,4 hPa 0,0 mm 0,0 km/h (0 Bft) N-NO 32 ° 0 min 0,000 mm 0,0 UV-I 0 W/m² 9,7 °C 12,7 °C 0,0 km/h (0 Bft)
18.09.2019 00:44 12,7 °C 81 % 1018,4 hPa 0,0 mm 0,4 km/h (0 Bft) N-NO 32 ° 0 min 0,000 mm 0,0 UV-I 0 W/m² 9,5 °C 12,7 °C 1,6 km/h (1 Bft)
18.09.2019 00:45 12,7 °C 81 % 1018,4 hPa 0,0 mm 0,0 km/h (0 Bft) N-NO 32 ° 0 min 0,000 mm 0,0 UV-I 0 W/m² 9,5 °C 12,7 °C 0,0 km/h (0 Bft)
18.09.2019 00:46 12,7 °C 81 % 1018,4 hPa 0,0 mm 0,0 km/h (0 Bft) N-NO 32 ° 0 min 0,000 mm 0,0 UV-I 0 W/m² 9,5 °C 12,7 °C 0,0 km/h (0 Bft)
18.09.2019 00:47 12,7 °C 81 % 1018,4 hPa 0,0 mm 1,4 km/h (1 Bft) NO 40 ° 0 min 0,000 mm 0,0 UV-I 0 W/m² 9,5 °C 12,7 °C 4,8 km/h (1 Bft)
18.09.2019 00:48 12,7 °C 81 % 1018,4 hPa 0,0 mm 3,1 km/h (1 Bft) NO 40 ° 0 min 0,000 mm 0,0 UV-I 0 W/m² 9,5 °C 12,7 °C 4,8 km/h (1 Bft)
18.09.2019 00:49 12,7 °C 80 % 1018,4 hPa 0,0 mm 0,8 km/h (0 Bft) NO 40 ° 0 min 0,000 mm 0,0 UV-I 0 W/m² 9,3 °C 12,7 °C 1,6 km/h (1 Bft)
18.09.2019 00:50 12,7 °C 80 % 1018,3 hPa 0,0 mm 2,4 km/h (1 Bft) NO 39 ° 0 min 0,000 mm 0,0 UV-I 0 W/m² 9,3 °C 12,7 °C 4,8 km/h (1 Bft)
18.09.2019 00:51 12,7 °C 80 % 1018,4 hPa 0,0 mm 1,3 km/h (1 Bft) NO 39 ° 0 min 0,000 mm 0,0 UV-I 0 W/m² 9,3 °C 12,7 °C 3,2 km/h (1 Bft)
18.09.2019 00:52 12,7 °C 80 % 1018,3 hPa 0,0 mm 0,0 km/h (0 Bft) NO 39 ° 0 min 0,000 mm 0,0 UV-I 0 W/m² 9,3 °C 12,7 °C 0,0 km/h (0 Bft)
18.09.2019 00:53 12,7 °C 80 % 1018,3 hPa 0,0 mm 0,0 km/h (0 Bft) NO 39 ° 0 min 0,000 mm 0,0 UV-I 0 W/m² 9,3 °C 12,7 °C 0,0 km/h (0 Bft)
18.09.2019 00:54 12,7 °C 80 % 1018,3 hPa 0,0 mm 0,0 km/h (0 Bft) NO 39 ° 0 min 0,000 mm 0,0 UV-I 0 W/m² 9,3 °C 12,7 °C 0,0 km/h (0 Bft)
18.09.2019 00:55 12,7 °C 80 % 1018,4 hPa 0,0 mm 0,0 km/h (0 Bft) NO 39 ° 0 min 0,000 mm 0,0 UV-I 0 W/m² 9,3 °C 12,7 °C 0,0 km/h (0 Bft)
18.09.2019 00:56 12,7 °C 80 % 1018,4 hPa 0,0 mm 0,0 km/h (0 Bft) NO 39 ° 0 min 0,000 mm 0,0 UV-I 0 W/m² 9,3 °C 12,7 °C 0,0 km/h (0 Bft)
18.09.2019 00:57 12,7 °C 80 % 1018,4 hPa 0,0 mm 0,0 km/h (0 Bft) NO 39 ° 0 min 0,000 mm 0,0 UV-I 0 W/m² 9,3 °C 12,7 °C 0,0 km/h (0 Bft)
18.09.2019 00:58 12,7 °C 80 % 1018,4 hPa 0,0 mm 0,0 km/h (0 Bft) NO 39 ° 0 min 0,000 mm 0,0 UV-I 0 W/m² 9,3 °C 12,7 °C 0,0 km/h (0 Bft)
18.09.2019 00:59 12,7 °C 80 % 1018,4 hPa 0,0 mm 0,0 km/h (0 Bft) NO 39 ° 0 min 0,000 mm 0,0 UV-I 0 W/m² 9,3 °C 12,7 °C 0,0 km/h (0 Bft)
18.09.2019 01:00 12,6 °C 80 % 1018,4 hPa 0,0 mm 0,0 km/h (0 Bft) NO 39 ° 0 min 0,025 mm 0,0 UV-I 0 W/m² 9,2 °C 12,6 °C 0,0 km/h (0 Bft)
18.09.2019 01:01 12,6 °C 80 % 1018,3 hPa 0,0 mm 0,0 km/h (0 Bft) NO 39 ° 0 min 0,000 mm 0,0 UV-I 0 W/m² 9,2 °C 12,6 °C 0,0 km/h (0 Bft)
18.09.2019 01:02 12,6 °C 80 % 1018,4 hPa 0,0 mm 0,0 km/h (0 Bft) NO 39 ° 0 min 0,000 mm 0,0 UV-I 0 W/m² 9,2 °C 12,6 °C 0,0 km/h (0 Bft)
18.09.2019 01:03 12,6 °C 80 % 1018,4 hPa 0,0 mm 0,0 km/h (0 Bft) NO 39 ° 0 min 0,000 mm 0,0 UV-I 0 W/m² 9,2 °C 12,6 °C 0,0 km/h (0 Bft)
18.09.2019 01:04 12,6 °C 80 % 1018,4 hPa 0,0 mm 0,0 km/h (0 Bft) NO 39 ° 0 min 0,000 mm 0,0 UV-I 0 W/m² 9,2 °C 12,6 °C 0,0 km/h (0 Bft)
18.09.2019 01:05 12,6 °C 80 % 1018,3 hPa 0,0 mm 0,0 km/h (0 Bft) NO 39 ° 0 min 0,000 mm 0,0 UV-I 0 W/m² 9,2 °C 12,6 °C 0,0 km/h (0 Bft)
18.09.2019 01:06 12,6 °C 80 % 1018,3 hPa 0,0 mm 0,0 km/h (0 Bft) NO 39 ° 0 min 0,000 mm 0,0 UV-I 0 W/m² 9,2 °C 12,6 °C 0,0 km/h (0 Bft)
18.09.2019 01:07 12,6 °C 80 % 1018,3 hPa 0,0 mm 0,0 km/h (0 Bft) NO 39 ° 0 min 0,000 mm 0,0 UV-I 0 W/m² 9,2 °C 12,6 °C 0,0 km/h (0 Bft)
18.09.2019 01:08 12,6 °C 80 % 1018,4 hPa 0,0 mm 3,4 km/h (1 Bft) N-NO 27 ° 0 min 0,000 mm 0,0 UV-I 0 W/m² 9,2 °C 12,6 °C 4,8 km/h (1 Bft)
18.09.2019 01:09 12,6 °C 80 % 1018,4 hPa 0,0 mm 3,0 km/h (1 Bft) N-NO 27 ° 0 min 0,000 mm 0,0 UV-I 0 W/m² 9,2 °C 12,6 °C 4,8 km/h (1 Bft)
18.09.2019 01:10 12,6 °C 80 % 1018,3 hPa 0,0 mm 0,7 km/h (0 Bft) N-NO 27 ° 0 min 0,000 mm 0,0 UV-I 0 W/m² 9,2 °C 12,6 °C 3,2 km/h (1 Bft)
18.09.2019 01:11 12,6 °C 80 % 1018,3 hPa 0,0 mm 0,0 km/h (0 Bft) N-NO 27 ° 0 min 0,000 mm 0,0 UV-I 0 W/m² 9,2 °C 12,6 °C 0,0 km/h (0 Bft)
18.09.2019 01:12 12,6 °C 80 % 1018,4 hPa 0,0 mm 0,6 km/h (0 Bft) N-NO 27 ° 0 min 0,000 mm 0,0 UV-I 0 W/m² 9,2 °C 12,6 °C 1,6 km/h (1 Bft)
18.09.2019 01:13 12,6 °C 80 % 1018,4 hPa 0,0 mm 0,3 km/h (0 Bft) N-NO 27 ° 0 min 0,000 mm 0,0 UV-I 0 W/m² 9,2 °C 12,6 °C 1,6 km/h (1 Bft)
18.09.2019 01:14 12,6 °C 80 % 1018,4 hPa 0,0 mm 4,3 km/h (1 Bft) N-NO 25 ° 0 min 0,000 mm 0,0 UV-I 0 W/m² 9,2 °C 12,6 °C 6,4 km/h (2 Bft)
18.09.2019 01:15 12,6 °C 80 % 1018,4 hPa 0,0 mm 2,8 km/h (1 Bft) N-NO 24 ° 0 min 0,000 mm 0,0 UV-I 0 W/m² 9,2 °C 12,6 °C 4,8 km/h (1 Bft)
18.09.2019 01:16 12,5 °C 80 % 1018,5 hPa 0,0 mm 1,3 km/h (1 Bft) N-NO 24 ° 0 min 0,000 mm 0,0 UV-I 0 W/m² 9,1 °C 12,5 °C 3,2 km/h (1 Bft)
18.09.2019 01:17 12,5 °C 80 % 1018,4 hPa 0,0 mm 2,7 km/h (1 Bft) N-NO 24 ° 0 min 0,000 mm 0,0 UV-I 0 W/m² 9,1 °C 12,5 °C 3,2 km/h (1 Bft)
18.09.2019 01:18 12,5 °C 81 % 1018,4 hPa 0,0 mm 1,3 km/h (1 Bft) N-NO 24 ° 0 min 0,000 mm 0,0 UV-I 0 W/m² 9,3 °C 12,5 °C 3,2 km/h (1 Bft)
18.09.2019 01:19 12,5 °C 81 % 1018,5 hPa 0,0 mm 0,0 km/h (0 Bft) N-NO 24 ° 0 min 0,000 mm 0,0 UV-I 0 W/m² 9,3 °C 12,5 °C 0,0 km/h (0 Bft)
18.09.2019 01:20 12,4 °C 81 % 1018,5 hPa 0,0 mm 0,3 km/h (0 Bft) N-NO 24 ° 0 min 0,000 mm 0,0 UV-I 0 W/m² 9,2 °C 12,4 °C 3,2 km/h (1 Bft)
18.09.2019 01:21 12,4 °C 81 % 1018,5 hPa 0,0 mm 3,0 km/h (1 Bft) N 355 ° 0 min 0,000 mm 0,0 UV-I 0 W/m² 9,2 °C 12,4 °C 6,4 km/h (2 Bft)
18.09.2019 01:22 12,4 °C 81 % 1018,5 hPa 0,0 mm 2,0 km/h (1 Bft) N 355 ° 0 min 0,000 mm 0,0 UV-I 0 W/m² 9,2 °C 12,4 °C 3,2 km/h (1 Bft)
18.09.2019 01:23 12,4 °C 81 % 1018,5 hPa 0,0 mm 1,1 km/h (1 Bft) N 355 ° 0 min 0,000 mm 0,0 UV-I 0 W/m² 9,2 °C 12,4 °C 4,8 km/h (1 Bft)
18.09.2019 01:24 12,4 °C 81 % 1018,5 hPa 0,0 mm 5,4 km/h (1 Bft) N-NO 17 ° 0 min 0,000 mm 0,0 UV-I 0 W/m² 9,2 °C 12,4 °C 8,0 km/h (2 Bft)
18.09.2019 01:25 12,4 °C 81 % 1018,6 hPa 0,0 mm 2,7 km/h (1 Bft) N-NO 17 ° 0 min 0,000 mm 0,0 UV-I 0 W/m² 9,2 °C 12,4 °C 4,8 km/h (1 Bft)
18.09.2019 01:26 12,4 °C 81 % 1018,6 hPa 0,0 mm 0,1 km/h (0 Bft) N-NO 17 ° 0 min 0,000 mm 0,0 UV-I 0 W/m² 9,2 °C 12,4 °C 3,2 km/h (1 Bft)
18.09.2019 01:27 12,3 °C 82 % 1018,6 hPa 0,0 mm 3,4 km/h (1 Bft) O 80 ° 0 min 0,000 mm 0,0 UV-I 0 W/m² 9,3 °C 12,3 °C 6,4 km/h (2 Bft)
18.09.2019 01:28 12,4 °C 82 % 1018,5 hPa 0,0 mm 3,2 km/h (1 Bft) NO 48 ° 0 min 0,000 mm 0,0 UV-I 0 W/m² 9,4 °C 12,4 °C 6,4 km/h (2 Bft)
18.09.2019 01:29 12,3 °C 82 % 1018,6 hPa 0,0 mm 3,7 km/h (1 Bft) NO 48 ° 0 min 0,000 mm 0,0 UV-I 0 W/m² 9,3 °C 12,3 °C 6,4 km/h (2 Bft)
18.09.2019 01:30 12,3 °C 82 % 1018,6 hPa 0,0 mm 3,7 km/h (1 Bft) NO 48 ° 0 min 0,000 mm 0,0 UV-I 0 W/m² 9,3 °C 12,3 °C 4,8 km/h (1 Bft)
18.09.2019 01:31 12,3 °C 82 % 1018,6 hPa 0,0 mm 2,9 km/h (1 Bft) NO 46 ° 0 min 0,000 mm 0,0 UV-I 0 W/m² 9,3 °C 12,3 °C 4,8 km/h (1 Bft)
18.09.2019 01:32 12,3 °C 82 % 1018,6 hPa 0,0 mm 3,9 km/h (1 Bft) N-NO 21 ° 0 min 0,000 mm 0,0 UV-I 0 W/m² 9,3 °C 12,3 °C 6,4 km/h (2 Bft)
18.09.2019 01:33 12,3 °C 82 % 1018,6 hPa 0,0 mm 2,9 km/h (1 Bft) N-NO 21 ° 0 min 0,000 mm 0,0 UV-I 0 W/m² 9,3 °C 12,3 °C 3,2 km/h (1 Bft)
18.09.2019 01:34 12,3 °C 83 % 1018,6 hPa 0,0 mm 2,3 km/h (1 Bft) N-NO 21 ° 0 min 0,000 mm 0,0 UV-I 0 W/m² 9,5 °C 12,3 °C 3,2 km/h (1 Bft)
18.09.2019 01:35 12,3 °C 83 % 1018,6 hPa 0,0 mm 2,1 km/h (1 Bft) N 355 ° 0 min 0,000 mm 0,0 UV-I 0 W/m² 9,5 °C 12,3 °C 3,2 km/h (1 Bft)
18.09.2019 01:36 12,3 °C 83 % 1018,6 hPa 0,0 mm 2,2 km/h (1 Bft) N 355 ° 0 min 0,000 mm 0,0 UV-I 0 W/m² 9,5 °C 12,3 °C 4,8 km/h (1 Bft)
18.09.2019 01:37 12,2 °C 83 % 1018,6 hPa 0,0 mm 4,0 km/h (1 Bft) N-NO 31 ° 0 min 0,000 mm 0,0 UV-I 0 W/m² 9,4 °C 12,2 °C 6,4 km/h (2 Bft)
18.09.2019 01:38 12,2 °C 83 % 1018,6 hPa 0,0 mm 3,4 km/h (1 Bft) O-NO 66 ° 0 min 0,000 mm 0,0 UV-I 0 W/m² 9,4 °C 12,2 °C 6,4 km/h (2 Bft)
18.09.2019 01:39 12,2 °C 83 % 1018,6 hPa 0,0 mm 1,8 km/h (1 Bft) O-NO 66 ° 0 min 0,000 mm 0,0 UV-I 0 W/m² 9,4 °C 12,2 °C 3,2 km/h (1 Bft)
18.09.2019 01:40 12,2 °C 82 % 1018,6 hPa 0,0 mm 0,6 km/h (0 Bft) O-NO 66 ° 0 min 0,000 mm 0,0 UV-I 0 W/m² 9,2 °C 12,2 °C 1,6 km/h (1 Bft)
18.09.2019 01:41 12,2 °C 83 % 1018,6 hPa 0,0 mm 1,5 km/h (1 Bft) O-NO 66 ° 0 min 0,000 mm 0,0 UV-I 0 W/m² 9,4 °C 12,2 °C 3,2 km/h (1 Bft)
18.09.2019 01:42 12,2 °C 83 % 1018,6 hPa 0,0 mm 1,6 km/h (1 Bft) O 94 ° 0 min 0,000 mm 0,0 UV-I 0 W/m² 9,4 °C 12,2 °C 6,4 km/h (2 Bft)
18.09.2019 01:43 12,1 °C 82 % 1018,6 hPa 0,0 mm 3,4 km/h (1 Bft) O 91 ° 0 min 0,000 mm 0,0 UV-I 0 W/m² 9,1 °C 12,1 °C 4,8 km/h (1 Bft)
18.09.2019 01:44 12,1 °C 82 % 1018,6 hPa 0,0 mm 5,0 km/h (1 Bft) N-NO 21 ° 0 min 0,000 mm 0,0 UV-I 0 W/m² 9,1 °C 12,1 °C 8,0 km/h (2 Bft)
18.09.2019 01:45 12,1 °C 83 % 1018,6 hPa 0,0 mm 4,5 km/h (1 Bft) NO 53 ° 0 min 0,000 mm 0,0 UV-I 0 W/m² 9,3 °C 12,1 °C 6,4 km/h (2 Bft)
18.09.2019 01:46 12,1 °C 82 % 1018,6 hPa 0,0 mm 3,7 km/h (1 Bft) N-NO 28 ° 0 min 0,000 mm 0,0 UV-I 0 W/m² 9,1 °C 12,1 °C 6,4 km/h (2 Bft)
18.09.2019 01:47 12,1 °C 82 % 1018,6 hPa 0,0 mm 3,3 km/h (1 Bft) O-NO 68 ° 0 min 0,000 mm 0,0 UV-I 0 W/m² 9,1 °C 12,1 °C 4,8 km/h (1 Bft)
18.09.2019 01:48 12,1 °C 82 % 1018,7 hPa 0,0 mm 3,9 km/h (1 Bft) O-NO 65 ° 0 min 0,000 mm 0,0 UV-I 0 W/m² 9,1 °C 12,1 °C 4,8 km/h (1 Bft)
18.09.2019 01:49 12,0 °C 81 % 1018,7 hPa 0,0 mm 0,1 km/h (0 Bft) O-NO 65 ° 0 min 0,000 mm 0,0 UV-I 0 W/m² 8,8 °C 12,0 °C 1,6 km/h (1 Bft)
18.09.2019 01:50 11,9 °C 81 % 1018,7 hPa 0,0 mm 0,2 km/h (0 Bft) O-NO 65 ° 0 min 0,000 mm 0,0 UV-I 0 W/m² 8,7 °C 11,9 °C 1,6 km/h (1 Bft)
18.09.2019 01:51 11,9 °C 81 % 1018,7 hPa 0,0 mm 0,7 km/h (0 Bft) O-NO 65 ° 0 min 0,000 mm 0,0 UV-I 0 W/m² 8,7 °C 11,9 °C 1,6 km/h (1 Bft)
18.09.2019 01:52 11,9 °C 81 % 1018,6 hPa 0,0 mm 0,0 km/h (0 Bft) O-NO 65 ° 0 min 0,000 mm 0,0 UV-I 0 W/m² 8,7 °C 11,9 °C 0,0 km/h (0 Bft)
18.09.2019 01:53 11,9 °C 82 % 1018,6 hPa 0,0 mm 0,0 km/h (0 Bft) O-NO 65 ° 0 min 0,000 mm 0,0 UV-I 0 W/m² 8,9 °C 11,9 °C 0,0 km/h (0 Bft)
18.09.2019 01:54 11,9 °C 82 % 1018,6 hPa 0,0 mm 0,0 km/h (0 Bft) O-NO 65 ° 0 min 0,000 mm 0,0 UV-I 0 W/m² 8,9 °C 11,9 °C 0,0 km/h (0 Bft)
18.09.2019 01:55 11,9 °C 81 % 1018,6 hPa 0,0 mm 0,0 km/h (0 Bft) O-NO 65 ° 0 min 0,000 mm 0,0 UV-I 0 W/m² 8,7 °C 11,9 °C 0,0 km/h (0 Bft)
18.09.2019 01:56 11,8 °C 81 % 1018,5 hPa 0,0 mm 0,0 km/h (0 Bft) O-NO 65 ° 0 min 0,000 mm 0,0 UV-I 0 W/m² 8,6 °C 11,8 °C 0,0 km/h (0 Bft)
18.09.2019 01:57 11,8 °C 81 % 1018,5 hPa 0,0 mm 1,8 km/h (1 Bft) O-NO 65 ° 0 min 0,000 mm 0,0 UV-I 0 W/m² 8,6 °C 11,8 °C 4,8 km/h (1 Bft)
18.09.2019 01:58 11,8 °C 81 % 1018,5 hPa 0,0 mm 1,6 km/h (1 Bft) O-NO 65 ° 0 min 0,000 mm 0,0 UV-I 0 W/m² 8,6 °C 11,8 °C 3,2 km/h (1 Bft)
18.09.2019 01:59 11,8 °C 81 % 1018,5 hPa 0,0 mm 0,0 km/h (0 Bft) O-NO 65 ° 0 min 0,000 mm 0,0 UV-I 0 W/m² 8,6 °C 11,8 °C 0,0 km/h (0 Bft)
18.09.2019 02:00 11,8 °C 81 % 1018,5 hPa 0,0 mm 0,0 km/h (0 Bft) O-NO 65 ° 0 min 0,026 mm 0,0 UV-I 0 W/m² 8,6 °C 11,8 °C 0,0 km/h (0 Bft)
18.09.2019 02:01 11,8 °C 81 % 1018,5 hPa 0,0 mm 0,5 km/h (0 Bft) O-NO 65 ° 0 min 0,000 mm 0,0 UV-I 0 W/m² 8,6 °C 11,8 °C 1,6 km/h (1 Bft)
18.09.2019 02:02 11,8 °C 81 % 1018,5 hPa 0,0 mm 0,2 km/h (0 Bft) O-NO 65 ° 0 min 0,000 mm 0,0 UV-I 0 W/m² 8,6 °C 11,8 °C 1,6 km/h (1 Bft)
18.09.2019 02:03 11,8 °C 81 % 1018,5 hPa 0,0 mm 0,0 km/h (0 Bft) O-NO 65 ° 0 min 0,000 mm 0,0 UV-I 0 W/m² 8,6 °C 11,8 °C 0,0 km/h (0 Bft)
18.09.2019 02:04 11,7 °C 81 % 1018,5 hPa 0,0 mm 0,0 km/h (0 Bft) O-NO 65 ° 0 min 0,000 mm 0,0 UV-I 0 W/m² 8,5 °C 11,7 °C 0,0 km/h (0 Bft)
18.09.2019 02:05 11,7 °C 81 % 1018,5 hPa 0,0 mm 0,0 km/h (0 Bft) O-NO 65 ° 0 min 0,000 mm 0,0 UV-I 0 W/m² 8,5 °C 11,7 °C 0,0 km/h (0 Bft)
18.09.2019 02:06 11,7 °C 81 % 1018,5 hPa 0,0 mm 0,0 km/h (0 Bft) O-NO 65 ° 0 min 0,000 mm 0,0 UV-I 0 W/m² 8,5 °C 11,7 °C 0,0 km/h (0 Bft)
18.09.2019 02:07 11,6 °C 82 % 1018,5 hPa 0,0 mm 0,0 km/h (0 Bft) O-NO 65 ° 0 min 0,000 mm 0,0 UV-I 0 W/m² 8,6 °C 11,6 °C 0,0 km/h (0 Bft)
18.09.2019 02:08 11,6 °C 81 % 1018,5 hPa 0,0 mm 0,0 km/h (0 Bft) O-NO 65 ° 0 min 0,000 mm 0,0 UV-I 0 W/m² 8,5 °C 11,6 °C 0,0 km/h (0 Bft)
18.09.2019 02:09 11,6 °C 81 % 1018,5 hPa 0,0 mm 0,0 km/h (0 Bft) O-NO 65 ° 0 min 0,000 mm 0,0 UV-I 0 W/m² 8,5 °C 11,6 °C 0,0 km/h (0 Bft)
18.09.2019 02:10 11,6 °C 81 % 1018,5 hPa 0,0 mm 0,0 km/h (0 Bft) O-NO 65 ° 0 min 0,000 mm 0,0 UV-I 0 W/m² 8,5 °C 11,6 °C 0,0 km/h (0 Bft)
18.09.2019 02:11 11,6 °C 80 % 1018,5 hPa 0,0 mm 0,0 km/h (0 Bft) O-NO 65 ° 0 min 0,000 mm 0,0 UV-I 0 W/m² 8,3 °C 11,6 °C 0,0 km/h (0 Bft)
18.09.2019 02:12 11,6 °C 80 % 1018,6 hPa 0,0 mm 0,0 km/h (0 Bft) O-NO 65 ° 0 min 0,000 mm 0,0 UV-I 0 W/m² 8,3 °C 11,6 °C 0,0 km/h (0 Bft)
18.09.2019 02:13 11,6 °C 81 % 1018,6 hPa 0,0 mm 0,0 km/h (0 Bft) O-NO 65 ° 0 min 0,000 mm 0,0 UV-I 0 W/m² 8,5 °C 11,6 °C 0,0 km/h (0 Bft)
18.09.2019 02:14 11,6 °C 81 % 1018,6 hPa 0,0 mm 0,4 km/h (0 Bft) O-NO 65 ° 0 min 0,000 mm 0,0 UV-I 0 W/m² 8,5 °C 11,6 °C 4,8 km/h (1 Bft)
18.09.2019 02:15 11,6 °C 80 % 1018,5 hPa 0,0 mm 2,4 km/h (1 Bft) O-NO 65 ° 0 min 0,000 mm 0,0 UV-I 0 W/m² 8,3 °C 11,6 °C 4,8 km/h (1 Bft)
18.09.2019 02:16 11,6 °C 80 % 1018,5 hPa 0,0 mm 0,2 km/h (0 Bft) O-NO 65 ° 0 min 0,000 mm 0,0 UV-I 0 W/m² 8,3 °C 11,6 °C 1,6 km/h (1 Bft)
18.09.2019 02:17 11,6 °C 80 % 1018,5 hPa 0,0 mm 1,5 km/h (1 Bft) O-NO 65 ° 0 min 0,000 mm 0,0 UV-I 0 W/m² 8,3 °C 11,6 °C 3,2 km/h (1 Bft)
18.09.2019 02:18 11,6 °C 80 % 1018,6 hPa 0,0 mm 0,5 km/h (0 Bft) O-NO 65 ° 0 min 0,000 mm 0,0 UV-I 0 W/m² 8,3 °C 11,6 °C 1,6 km/h (1 Bft)
18.09.2019 02:19 11,6 °C 80 % 1018,6 hPa 0,0 mm 0,0 km/h (0 Bft) O-NO 65 ° 0 min 0,000 mm 0,0 UV-I 0 W/m² 8,3 °C 11,6 °C 0,0 km/h (0 Bft)
18.09.2019 02:20 11,6 °C 80 % 1018,6 hPa 0,0 mm 0,0 km/h (0 Bft) O-NO 65 ° 0 min 0,000 mm 0,0 UV-I 0 W/m² 8,3 °C 11,6 °C 0,0 km/h (0 Bft)
18.09.2019 02:21 11,6 °C 79 % 1018,6 hPa 0,0 mm 0,0 km/h (0 Bft) O-NO 65 ° 0 min 0,000 mm 0,0 UV-I 0 W/m² 8,1 °C 11,6 °C 0,0 km/h (0 Bft)
18.09.2019 02:22 11,6 °C 80 % 1018,6 hPa 0,0 mm 0,0 km/h (0 Bft) O-NO 65 ° 0 min 0,000 mm 0,0 UV-I 0 W/m² 8,3 °C 11,6 °C 0,0 km/h (0 Bft)
18.09.2019 02:23 11,6 °C 81 % 1018,6 hPa 0,0 mm 0,0 km/h (0 Bft) O-NO 65 ° 0 min 0,000 mm 0,0 UV-I 0 W/m² 8,5 °C 11,6 °C 0,0 km/h (0 Bft)
18.09.2019 02:24 11,6 °C 81 % 1018,6 hPa 0,0 mm 0,0 km/h (0 Bft) O-NO 65 ° 0 min 0,000 mm 0,0 UV-I 0 W/m² 8,5 °C 11,6 °C 0,0 km/h (0 Bft)
18.09.2019 02:25 11,5 °C 81 % 1018,6 hPa 0,0 mm 0,0 km/h (0 Bft) O-NO 65 ° 0 min 0,000 mm 0,0 UV-I 0 W/m² 8,4 °C 11,5 °C 0,0 km/h (0 Bft)
18.09.2019 02:26 11,5 °C 81 % 1018,6 hPa 0,0 mm 0,0 km/h (0 Bft) O-NO 65 ° 0 min 0,000 mm 0,0 UV-I 0 W/m² 8,4 °C 11,5 °C 0,0 km/h (0 Bft)
18.09.2019 02:27 11,5 °C 81 % 1018,6 hPa 0,0 mm 0,0 km/h (0 Bft) O-NO 65 ° 0 min 0,000 mm 0,0 UV-I 0 W/m² 8,4 °C 11,5 °C 0,0 km/h (0 Bft)
18.09.2019 02:28 11,4 °C 81 % 1018,6 hPa 0,0 mm 0,0 km/h (0 Bft) O-NO 65 ° 0 min 0,000 mm 0,0 UV-I 0 W/m² 8,3 °C 11,4 °C 0,0 km/h (0 Bft)
18.09.2019 02:29 11,4 °C 81 % 1018,6 hPa 0,0 mm 0,0 km/h (0 Bft) O-NO 65 ° 0 min 0,000 mm 0,0 UV-I 0 W/m² 8,3 °C 11,4 °C 0,0 km/h (0 Bft)
18.09.2019 02:30 11,3 °C 81 % 1018,6 hPa 0,0 mm 0,0 km/h (0 Bft) O-NO 65 ° 0 min 0,000 mm 0,0 UV-I 0 W/m² 8,2 °C 11,3 °C 0,0 km/h (0 Bft)
18.09.2019 02:31 11,3 °C 81 % 1018,6 hPa 0,0 mm 0,0 km/h (0 Bft) O-NO 65 ° 0 min 0,000 mm 0,0 UV-I 0 W/m² 8,2 °C 11,3 °C 0,0 km/h (0 Bft)
18.09.2019 02:32 11,3 °C 81 % 1018,6 hPa 0,0 mm 0,0 km/h (0 Bft) O-NO 65 ° 0 min 0,000 mm 0,0 UV-I 0 W/m² 8,2 °C 11,3 °C 0,0 km/h (0 Bft)
18.09.2019 02:33 11,3 °C 81 % 1018,6 hPa 0,0 mm 0,0 km/h (0 Bft) O-NO 65 ° 0 min 0,000 mm 0,0 UV-I 0 W/m² 8,2 °C 11,3 °C 0,0 km/h (0 Bft)
18.09.2019 02:34 11,3 °C 81 % 1018,6 hPa 0,0 mm 0,0 km/h (0 Bft) O-NO 65 ° 0 min 0,000 mm 0,0 UV-I 0 W/m² 8,2 °C 11,3 °C 0,0 km/h (0 Bft)
18.09.2019 02:35 11,3 °C 80 % 1018,6 hPa 0,0 mm 0,0 km/h (0 Bft) O-NO 65 ° 0 min 0,000 mm 0,0 UV-I 0 W/m² 8,0 °C 11,3 °C 0,0 km/h (0 Bft)
18.09.2019 02:36 11,3 °C 81 % 1018,5 hPa 0,0 mm 0,0 km/h (0 Bft) O-NO 65 ° 0 min 0,000 mm 0,0 UV-I 0 W/m² 8,2 °C 11,3 °C 0,0 km/h (0 Bft)
18.09.2019 02:37 11,3 °C 81 % 1018,5 hPa 0,0 mm 0,0 km/h (0 Bft) O-NO 65 ° 0 min 0,000 mm 0,0 UV-I 0 W/m² 8,2 °C 11,3 °C 0,0 km/h (0 Bft)
18.09.2019 02:38 11,3 °C 82 % 1018,5 hPa 0,0 mm 0,0 km/h (0 Bft) O-NO 65 ° 0 min 0,000 mm 0,0 UV-I 0 W/m² 8,3 °C 11,3 °C 0,0 km/h (0 Bft)
18.09.2019 02:39 11,2 °C 82 % 1018,5 hPa 0,0 mm 0,0 km/h (0 Bft) O-NO 65 ° 0 min 0,000 mm 0,0 UV-I 0 W/m² 8,2 °C 11,2 °C 0,0 km/h (0 Bft)
18.09.2019 02:40 11,2 °C 83 % 1018,5 hPa 0,0 mm 0,0 km/h (0 Bft) O-NO 65 ° 0 min 0,000 mm 0,0 UV-I 0 W/m² 8,4 °C 11,2 °C 0,0 km/h (0 Bft)
18.09.2019 02:41 11,2 °C 83 % 1018,5 hPa 0,0 mm 0,0 km/h (0 Bft) O-NO 65 ° 0 min 0,000 mm 0,0 UV-I 0 W/m² 8,4 °C 11,2 °C 0,0 km/h (0 Bft)
18.09.2019 02:42 11,2 °C 84 % 1018,5 hPa 0,0 mm 0,0 km/h (0 Bft) O-NO 65 ° 0 min 0,000 mm 0,0 UV-I 0 W/m² 8,6 °C 11,2 °C 0,0 km/h (0 Bft)
18.09.2019 02:43 11,2 °C 84 % 1018,6 hPa 0,0 mm 0,0 km/h (0 Bft) O-NO 65 ° 0 min 0,000 mm 0,0 UV-I 0 W/m² 8,6 °C 11,2 °C 0,0 km/h (0 Bft)
18.09.2019 02:44 11,1 °C 83 % 1018,5 hPa 0,0 mm 0,0 km/h (0 Bft) O-NO 65 ° 0 min 0,000 mm 0,0 UV-I 0 W/m² 8,3 °C 11,1 °C 0,0 km/h (0 Bft)
18.09.2019 02:45 11,1 °C 83 % 1018,5 hPa 0,0 mm 0,0 km/h (0 Bft) O-NO 65 ° 0 min 0,000 mm 0,0 UV-I 0 W/m² 8,3 °C 11,1 °C 0,0 km/h (0 Bft)
18.09.2019 02:46 11,1 °C 83 % 1018,5 hPa 0,0 mm 0,0 km/h (0 Bft) O-NO 65 ° 0 min 0,000 mm 0,0 UV-I 0 W/m² 8,3 °C 11,1 °C 0,0 km/h (0 Bft)
18.09.2019 02:47 11,1 °C 83 % 1018,5 hPa 0,0 mm 0,0 km/h (0 Bft) O-NO 65 ° 0 min 0,000 mm 0,0 UV-I 0 W/m² 8,3 °C 11,1 °C 0,0 km/h (0 Bft)
18.09.2019 02:48 11,1 °C 83 % 1018,5 hPa 0,0 mm 0,0 km/h (0 Bft) O-NO 65 ° 0 min 0,000 mm 0,0 UV-I 0 W/m² 8,3 °C 11,1 °C 0,0 km/h (0 Bft)
18.09.2019 02:49 11,1 °C 83 % 1018,5 hPa 0,0 mm 0,0 km/h (0 Bft) O-NO 65 ° 0 min 0,000 mm 0,0 UV-I 0 W/m² 8,3 °C 11,1 °C 0,0 km/h (0 Bft)
18.09.2019 02:50 11,1 °C 83 % 1018,5 hPa 0,0 mm 0,0 km/h (0 Bft) O-NO 65 ° 0 min 0,000 mm 0,0 UV-I 0 W/m² 8,3 °C 11,1 °C 0,0 km/h (0 Bft)
18.09.2019 02:51 11,1 °C 83 % 1018,6 hPa 0,0 mm 0,0 km/h (0 Bft) O-NO 65 ° 0 min 0,000 mm 0,0 UV-I 0 W/m² 8,3 °C 11,1 °C 0,0 km/h (0 Bft)
18.09.2019 02:52 11,1 °C 83 % 1018,5 hPa 0,0 mm 0,0 km/h (0 Bft) O-NO 65 ° 0 min 0,000 mm 0,0 UV-I 0 W/m² 8,3 °C 11,1 °C 0,0 km/h (0 Bft)
18.09.2019 02:53 11,1 °C 82 % 1018,5 hPa 0,0 mm 0,0 km/h (0 Bft) O-NO 65 ° 0 min 0,000 mm 0,0 UV-I 0 W/m² 8,1 °C 11,1 °C 0,0 km/h (0 Bft)
18.09.2019 02:54 11,1 °C 81 % 1018,6 hPa 0,0 mm 0,0 km/h (0 Bft) O-NO 65 ° 0 min 0,000 mm 0,0 UV-I 0 W/m² 8,0 °C 11,1 °C 0,0 km/h (0 Bft)
18.09.2019 02:55 11,1 °C 81 % 1018,6 hPa 0,0 mm 0,0 km/h (0 Bft) O-NO 65 ° 0 min 0,000 mm 0,0 UV-I 0 W/m² 8,0 °C 11,1 °C 0,0 km/h (0 Bft)
18.09.2019 02:56 11,2 °C 81 % 1018,6 hPa 0,0 mm 0,0 km/h (0 Bft) O-NO 65 ° 0 min 0,000 mm 0,0 UV-I 0 W/m² 8,1 °C 11,2 °C 0,0 km/h (0 Bft)
18.09.2019 02:57 11,2 °C 80 % 1018,6 hPa 0,0 mm 0,0 km/h (0 Bft) O-NO 65 ° 0 min 0,000 mm 0,0 UV-I 0 W/m² 7,9 °C 11,2 °C 0,0 km/h (0 Bft)
18.09.2019 02:58 11,2 °C 81 % 1018,6 hPa 0,0 mm 0,0 km/h (0 Bft) O-NO 65 ° 0 min 0,000 mm 0,0 UV-I 0 W/m² 8,1 °C 11,2 °C 0,0 km/h (0 Bft)
18.09.2019 02:59 11,2 °C 81 % 1018,5 hPa 0,0 mm 0,4 km/h (0 Bft) O-NO 65 ° 0 min 0,000 mm 0,0 UV-I 0 W/m² 8,1 °C 11,2 °C 1,6 km/h (1 Bft)
18.09.2019 03:00 11,2 °C 81 % 1018,6 hPa 0,0 mm 0,1 km/h (0 Bft) O-NO 65 ° 0 min 0,025 mm 0,0 UV-I 0 W/m² 8,1 °C 11,2 °C 1,6 km/h (1 Bft)
18.09.2019 03:01 11,2 °C 81 % 1018,6 hPa 0,0 mm 0,1 km/h (0 Bft) O-NO 65 ° 0 min 0,000 mm 0,0 UV-I 0 W/m² 8,1 °C 11,2 °C 1,6 km/h (1 Bft)
18.09.2019 03:02 11,2 °C 82 % 1018,6 hPa 0,0 mm 0,0 km/h (0 Bft) O-NO 65 ° 0 min 0,000 mm 0,0 UV-I 0 W/m² 8,2 °C 11,2 °C 0,0 km/h (0 Bft)
18.09.2019 03:03 11,1 °C 82 % 1018,6 hPa 0,0 mm 0,0 km/h (0 Bft) O-NO 65 ° 0 min 0,000 mm 0,0 UV-I 0 W/m² 8,1 °C 11,1 °C 0,0 km/h (0 Bft)
18.09.2019 03:04 11,1 °C 83 % 1018,6 hPa 0,0 mm 0,0 km/h (0 Bft) O-NO 65 ° 0 min 0,000 mm 0,0 UV-I 0 W/m² 8,3 °C 11,1 °C 0,0 km/h (0 Bft)
18.09.2019 03:05 11,1 °C 83 % 1018,6 hPa 0,0 mm 0,0 km/h (0 Bft) O-NO 65 ° 0 min 0,000 mm 0,0 UV-I 0 W/m² 8,3 °C 11,1 °C 0,0 km/h (0 Bft)
18.09.2019 03:06 11,1 °C 83 % 1018,6 hPa 0,0 mm 0,0 km/h (0 Bft) O-NO 65 ° 0 min 0,000 mm 0,0 UV-I 0 W/m² 8,3 °C 11,1 °C 0,0 km/h (0 Bft)
18.09.2019 03:07 11,0 °C 83 % 1018,6 hPa 0,0 mm 0,0 km/h (0 Bft) O-NO 65 ° 0 min 0,000 mm 0,0 UV-I 0 W/m² 8,2 °C 11,0 °C 0,0 km/h (0 Bft)
18.09.2019 03:08 11,0 °C 84 % 1018,6 hPa 0,0 mm 0,0 km/h (0 Bft) O-NO 65 ° 0 min 0,000 mm 0,0 UV-I 0 W/m² 8,4 °C 11,0 °C 0,0 km/h (0 Bft)
18.09.2019 03:09 11,0 °C 83 % 1018,6 hPa 0,0 mm 0,0 km/h (0 Bft) O-NO 65 ° 0 min 0,000 mm 0,0 UV-I 0 W/m² 8,2 °C 11,0 °C 0,0 km/h (0 Bft)
18.09.2019 03:10 11,0 °C 83 % 1018,6 hPa 0,0 mm 0,0 km/h (0 Bft) O-NO 65 ° 0 min 0,000 mm 0,0 UV-I 0 W/m² 8,2 °C 11,0 °C 0,0 km/h (0 Bft)
18.09.2019 03:11 11,1 °C 83 % 1018,6 hPa 0,0 mm 0,0 km/h (0 Bft) O-NO 65 ° 0 min 0,000 mm 0,0 UV-I 0 W/m² 8,3 °C 11,1 °C 0,0 km/h (0 Bft)
18.09.2019 03:12 11,1 °C 83 % 1018,6 hPa 0,0 mm 0,0 km/h (0 Bft) O-NO 65 ° 0 min 0,000 mm 0,0 UV-I 0 W/m² 8,3 °C 11,1 °C 0,0 km/h (0 Bft)
18.09.2019 03:13 11,1 °C 83 % 1018,6 hPa 0,0 mm 0,0 km/h (0 Bft) O-NO 65 ° 0 min 0,000 mm 0,0 UV-I 0 W/m² 8,3 °C 11,1 °C 0,0 km/h (0 Bft)
18.09.2019 03:14 11,1 °C 84 % 1018,6 hPa 0,0 mm 1,5 km/h (1 Bft) O-NO 65 ° 0 min 0,000 mm 0,0 UV-I 0 W/m² 8,5 °C 11,1 °C 3,2 km/h (1 Bft)
18.09.2019 03:15 11,1 °C 84 % 1018,6 hPa 0,0 mm 0,0 km/h (0 Bft) O-NO 65 ° 0 min 0,000 mm 0,0 UV-I 0 W/m² 8,5 °C 11,1 °C 0,0 km/h (0 Bft)
18.09.2019 03:16 11,1 °C 83 % 1018,6 hPa 0,0 mm 1,0 km/h (0 Bft) O-NO 65 ° 0 min 0,000 mm 0,0 UV-I 0 W/m² 8,3 °C 11,1 °C 4,8 km/h (1 Bft)
18.09.2019 03:17 11,1 °C 84 % 1018,6 hPa 0,0 mm 0,7 km/h (0 Bft) O-NO 65 ° 0 min 0,000 mm 0,0 UV-I 0 W/m² 8,5 °C 11,1 °C 3,2 km/h (1 Bft)
18.09.2019 03:18 11,0 °C 84 % 1018,5 hPa 0,0 mm 0,1 km/h (0 Bft) O-NO 65 ° 0 min 0,000 mm 0,0 UV-I 0 W/m² 8,4 °C 11,0 °C 1,6 km/h (1 Bft)
18.09.2019 03:19 11,0 °C 84 % 1018,5 hPa 0,0 mm 0,0 km/h (0 Bft) O-NO 65 ° 0 min 0,000 mm 0,0 UV-I 0 W/m² 8,4 °C 11,0 °C 0,0 km/h (0 Bft)
18.09.2019 03:20 11,0 °C 84 % 1018,5 hPa 0,0 mm 0,0 km/h (0 Bft) O-NO 65 ° 0 min 0,000 mm 0,0 UV-I 0 W/m² 8,4 °C 11,0 °C 0,0 km/h (0 Bft)
18.09.2019 03:21 10,9 °C 84 % 1018,5 hPa 0,0 mm 0,0 km/h (0 Bft) O-NO 65 ° 0 min 0,000 mm 0,0 UV-I 0 W/m² 8,3 °C 10,9 °C 0,0 km/h (0 Bft)
18.09.2019 03:22 11,0 °C 84 % 1018,5 hPa 0,0 mm 0,0 km/h (0 Bft) O-NO 65 ° 0 min 0,000 mm 0,0 UV-I 0 W/m² 8,4 °C 11,0 °C 0,0 km/h (0 Bft)
18.09.2019 03:23 11,0 °C 83 % 1018,5 hPa 0,0 mm 0,0 km/h (0 Bft) O-NO 65 ° 0 min 0,000 mm 0,0 UV-I 0 W/m² 8,2 °C 11,0 °C 0,0 km/h (0 Bft)
18.09.2019 03:24 11,0 °C 83 % 1018,5 hPa 0,0 mm 0,0 km/h (0 Bft) O-NO 65 ° 0 min 0,000 mm 0,0 UV-I 0 W/m² 8,2 °C 11,0 °C 0,0 km/h (0 Bft)
18.09.2019 03:25 11,0 °C 83 % 1018,6 hPa 0,0 mm 0,0 km/h (0 Bft) O-NO 65 ° 0 min 0,000 mm 0,0 UV-I 0 W/m² 8,2 °C 11,0 °C 0,0 km/h (0 Bft)
18.09.2019 03:26 11,0 °C 83 % 1018,6 hPa 0,0 mm 0,0 km/h (0 Bft) O-NO 65 ° 0 min 0,000 mm 0,0 UV-I 0 W/m² 8,2 °C 11,0 °C 0,0 km/h (0 Bft)
18.09.2019 03:27 11,0 °C 83 % 1018,6 hPa 0,0 mm 0,0 km/h (0 Bft) O-NO 65 ° 0 min 0,000 mm 0,0 UV-I 0 W/m² 8,2 °C 11,0 °C 0,0 km/h (0 Bft)
18.09.2019 03:28 11,1 °C 83 % 1018,7 hPa 0,0 mm 0,0 km/h (0 Bft) O-NO 65 ° 0 min 0,000 mm 0,0 UV-I 0 W/m² 8,3 °C 11,1 °C 0,0 km/h (0 Bft)
18.09.2019 03:29 11,0 °C 83 % 1018,6 hPa 0,0 mm 0,0 km/h (0 Bft) O-NO 65 ° 0 min 0,000 mm 0,0 UV-I 0 W/m² 8,2 °C 11,0 °C 0,0 km/h (0 Bft)
18.09.2019 03:30 11,1 °C 82 % 1018,6 hPa 0,0 mm 0,0 km/h (0 Bft) O-NO 65 ° 0 min 0,000 mm 0,0 UV-I 0 W/m² 8,1 °C 11,1 °C 0,0 km/h (0 Bft)
18.09.2019 03:31 11,1 °C 83 % 1018,6 hPa 0,0 mm 0,0 km/h (0 Bft) O-NO 65 ° 0 min 0,000 mm 0,0 UV-I 0 W/m² 8,3 °C 11,1 °C 0,0 km/h (0 Bft)
18.09.2019 03:32 11,1 °C 83 % 1018,6 hPa 0,0 mm 1,1 km/h (1 Bft) O-NO 65 ° 0 min 0,000 mm 0,0 UV-I 0 W/m² 8,3 °C 11,1 °C 3,2 km/h (1 Bft)
18.09.2019 03:33 11,0 °C 84 % 1018,6 hPa 0,0 mm 2,0 km/h (1 Bft) O-NO 65 ° 0 min 0,000 mm 0,0 UV-I 0 W/m² 8,4 °C 11,0 °C 4,8 km/h (1 Bft)
18.09.2019 03:34 10,9 °C 84 % 1018,6 hPa 0,0 mm 3,3 km/h (1 Bft) O-NO 65 ° 0 min 0,000 mm 0,0 UV-I 0 W/m² 8,3 °C 10,9 °C 6,4 km/h (2 Bft)
18.09.2019 03:35 10,9 °C 84 % 1018,7 hPa 0,0 mm 3,8 km/h (1 Bft) O-NO 65 ° 0 min 0,000 mm 0,0 UV-I 0 W/m² 8,3 °C 10,9 °C 6,4 km/h (2 Bft)
18.09.2019 03:36 10,9 °C 84 % 1018,7 hPa 0,0 mm 4,4 km/h (1 Bft) O-NO 65 ° 0 min 0,000 mm 0,0 UV-I 0 W/m² 8,3 °C 10,9 °C 8,0 km/h (2 Bft)
18.09.2019 03:37 10,9 °C 84 % 1018,7 hPa 0,0 mm 3,6 km/h (1 Bft) O-NO 65 ° 0 min 0,000 mm 0,0 UV-I 0 W/m² 8,3 °C 10,9 °C 6,4 km/h (2 Bft)
18.09.2019 03:38 10,9 °C 84 % 1018,7 hPa 0,0 mm 3,8 km/h (1 Bft) O 98 ° 0 min 0,000 mm 0,0 UV-I 0 W/m² 8,3 °C 10,9 °C 4,8 km/h (1 Bft)
18.09.2019 03:39 11,0 °C 83 % 1018,9 hPa 0,0 mm 2,5 km/h (1 Bft) O-SO 108 ° 0 min 0,000 mm 0,0 UV-I 0 W/m² 8,2 °C 11,0 °C 4,8 km/h (1 Bft)
18.09.2019 03:40 11,0 °C 83 % 1018,9 hPa 0,0 mm 2,2 km/h (1 Bft) O-SO 105 ° 0 min 0,000 mm 0,0 UV-I 0 W/m² 8,2 °C 11,0 °C 9,7 km/h (2 Bft)
18.09.2019 03:41 10,9 °C 82 % 1018,9 hPa 0,0 mm 0,0 km/h (0 Bft) O-SO 105 ° 0 min 0,000 mm 0,0 UV-I 0 W/m² 7,9 °C 10,9 °C 0,0 km/h (0 Bft)
18.09.2019 03:42 10,9 °C 82 % 1018,9 hPa 0,0 mm 0,0 km/h (0 Bft) O-SO 105 ° 0 min 0,000 mm 0,0 UV-I 0 W/m² 7,9 °C 10,9 °C 0,0 km/h (0 Bft)
18.09.2019 03:43 10,9 °C 82 % 1018,9 hPa 0,0 mm 2,6 km/h (1 Bft) O-SO 105 ° 0 min 0,000 mm 0,0 UV-I 0 W/m² 7,9 °C 10,9 °C 4,8 km/h (1 Bft)
18.09.2019 03:44 10,9 °C 82 % 1018,9 hPa 0,0 mm 2,3 km/h (1 Bft) O-SO 105 ° 0 min 0,000 mm 0,0 UV-I 0 W/m² 7,9 °C 10,9 °C 3,2 km/h (1 Bft)
18.09.2019 03:45 10,9 °C 82 % 1018,9 hPa 0,0 mm 3,8 km/h (1 Bft) O-SO 104 ° 0 min 0,000 mm 0,0 UV-I 0 W/m² 7,9 °C 10,9 °C 4,8 km/h (1 Bft)
18.09.2019 03:46 11,0 °C 82 % 1018,9 hPa 0,0 mm 1,9 km/h (1 Bft) O 99 ° 0 min 0,000 mm 0,0 UV-I 0 W/m² 8,0 °C 11,0 °C 4,8 km/h (1 Bft)
18.09.2019 03:47 11,0 °C 82 % 1018,9 hPa 0,0 mm 2,4 km/h (1 Bft) O 95 ° 0 min 0,000 mm 0,0 UV-I 0 W/m² 8,0 °C 11,0 °C 4,8 km/h (1 Bft)
18.09.2019 03:48 11,0 °C 82 % 1018,9 hPa 0,0 mm 2,3 km/h (1 Bft) O 95 ° 0 min 0,000 mm 0,0 UV-I 0 W/m² 8,0 °C 11,0 °C 3,2 km/h (1 Bft)
18.09.2019 03:49 11,0 °C 82 % 1018,9 hPa 0,0 mm 1,7 km/h (1 Bft) O-NO 76 ° 0 min 0,000 mm 0,0 UV-I 0 W/m² 8,0 °C 11,0 °C 4,8 km/h (1 Bft)
18.09.2019 03:50 10,9 °C 82 % 1018,9 hPa 0,0 mm 0,2 km/h (0 Bft) O-NO 76 ° 0 min 0,000 mm 0,0 UV-I 0 W/m² 7,9 °C 10,9 °C 1,6 km/h (1 Bft)
18.09.2019 03:51 10,9 °C 82 % 1018,9 hPa 0,0 mm 0,7 km/h (0 Bft) O-NO 76 ° 0 min 0,000 mm 0,0 UV-I 0 W/m² 7,9 °C 10,9 °C 3,2 km/h (1 Bft)
18.09.2019 03:52 10,9 °C 83 % 1018,9 hPa 0,0 mm 1,5 km/h (1 Bft) O-NO 76 ° 0 min 0,000 mm 0,0 UV-I 0 W/m² 8,1 °C 10,9 °C 3,2 km/h (1 Bft)
18.09.2019 03:53 10,9 °C 83 % 1018,9 hPa 0,0 mm 0,8 km/h (0 Bft) O-NO 76 ° 0 min 0,000 mm 0,0 UV-I 0 W/m² 8,1 °C 10,9 °C 1,6 km/h (1 Bft)
18.09.2019 03:54 10,9 °C 83 % 1018,9 hPa 0,0 mm 2,3 km/h (1 Bft) O-NO 76 ° 0 min 0,000 mm 0,0 UV-I 0 W/m² 8,1 °C 10,9 °C 3,2 km/h (1 Bft)
18.09.2019 03:55 10,9 °C 83 % 1018,9 hPa 0,0 mm 0,1 km/h (0 Bft) O-NO 76 ° 0 min 0,000 mm 0,0 UV-I 0 W/m² 8,1 °C 10,9 °C 1,6 km/h (1 Bft)
18.09.2019 03:56 10,9 °C 83 % 1018,9 hPa 0,0 mm 0,0 km/h (0 Bft) O-NO 76 ° 0 min 0,000 mm 0,0 UV-I 0 W/m² 8,1 °C 10,9 °C 0,0 km/h (0 Bft)
18.09.2019 03:57 10,9 °C 83 % 1018,9 hPa 0,0 mm 1,1 km/h (1 Bft) O-NO 76 ° 0 min 0,000 mm 0,0 UV-I 0 W/m² 8,1 °C 10,9 °C 3,2 km/h (1 Bft)
18.09.2019 03:58 10,8 °C 83 % 1018,9 hPa 0,0 mm 1,5 km/h (1 Bft) O-NO 76 ° 0 min 0,000 mm 0,0 UV-I 0 W/m² 8,0 °C 10,8 °C 4,8 km/h (1 Bft)
18.09.2019 03:59 10,8 °C 84 % 1019,0 hPa 0,0 mm 1,9 km/h (1 Bft) O-NO 76 ° 0 min 0,000 mm 0,0 UV-I 0 W/m² 8,2 °C 10,8 °C 3,2 km/h (1 Bft)
18.09.2019 04:00 10,8 °C 83 % 1019,0 hPa 0,0 mm 0,3 km/h (0 Bft) O-NO 76 ° 0 min 0,026 mm 0,0 UV-I 0 W/m² 8,0 °C 10,8 °C 3,2 km/h (1 Bft)
18.09.2019 04:01 10,8 °C 83 % 1019,0 hPa 0,0 mm 0,0 km/h (0 Bft) O-NO 76 ° 0 min 0,000 mm 0,0 UV-I 0 W/m² 8,0 °C 10,8 °C 0,0 km/h (0 Bft)
18.09.2019 04:02 10,8 °C 84 % 1019,0 hPa 0,0 mm 0,0 km/h (0 Bft) O-NO 67 ° 0 min 0,000 mm 0,0 UV-I 0 W/m² 8,2 °C 10,8 °C 1,6 km/h (1 Bft)
18.09.2019 04:03 10,8 °C 83 % 1019,0 hPa 0,0 mm 1,6 km/h (1 Bft) O 90 ° 0 min 0,000 mm 0,0 UV-I 0 W/m² 8,0 °C 10,8 °C 3,2 km/h (1 Bft)
18.09.2019 04:04 10,8 °C 83 % 1019,1 hPa 0,0 mm 3,2 km/h (1 Bft) O 90 ° 0 min 0,000 mm 0,0 UV-I 0 W/m² 8,0 °C 10,8 °C 6,4 km/h (2 Bft)
18.09.2019 04:05 10,8 °C 83 % 1019,1 hPa 0,0 mm 1,6 km/h (1 Bft) O-SO 112 ° 0 min 0,000 mm 0,0 UV-I 0 W/m² 8,0 °C 10,8 °C 3,2 km/h (1 Bft)
18.09.2019 04:06 10,7 °C 83 % 1019,1 hPa 0,0 mm 4,8 km/h (1 Bft) O-NO 67 ° 0 min 0,000 mm 0,0 UV-I 0 W/m² 7,9 °C 10,7 °C 6,4 km/h (2 Bft)
18.09.2019 04:07 10,7 °C 83 % 1019,1 hPa 0,0 mm 3,2 km/h (1 Bft) O-NO 67 ° 0 min 0,000 mm 0,0 UV-I 0 W/m² 7,9 °C 10,7 °C 6,4 km/h (2 Bft)
18.09.2019 04:08 10,7 °C 83 % 1019,1 hPa 0,0 mm 3,2 km/h (1 Bft) O-NO 67 ° 0 min 0,000 mm 0,0 UV-I 0 W/m² 7,9 °C 10,7 °C 4,8 km/h (1 Bft)
18.09.2019 04:11 10,7 °C 83 % 1019,0 hPa 0,0 mm 0,0 km/h (0 Bft) O-NO 74 ° 0 min 0,000 mm 0,0 UV-I 0 W/m² 7,9 °C 10,7 °C 0,0 km/h (0 Bft)
18.09.2019 04:12 10,7 °C 82 % 1019,0 hPa 0,0 mm 0,0 km/h (0 Bft) O-NO 74 ° 0 min 0,000 mm 0,0 UV-I 0 W/m² 7,8 °C 10,7 °C 0,0 km/h (0 Bft)
18.09.2019 04:13 10,7 °C 82 % 1019,0 hPa 0,0 mm 0,3 km/h (0 Bft) O-NO 74 ° 0 min 0,000 mm 0,0 UV-I 0 W/m² 7,8 °C 10,7 °C 3,2 km/h (1 Bft)
18.09.2019 04:14 10,6 °C 83 % 1019,0 hPa 0,0 mm 1,8 km/h (1 Bft) O-NO 74 ° 0 min 0,000 mm 0,0 UV-I 0 W/m² 7,8 °C 10,6 °C 4,8 km/h (1 Bft)
18.09.2019 04:15 10,6 °C 83 % 1018,9 hPa 0,0 mm 0,0 km/h (0 Bft) O-NO 74 ° 0 min 0,000 mm 0,0 UV-I 0 W/m² 7,8 °C 10,6 °C 0,0 km/h (0 Bft)
18.09.2019 04:16 10,6 °C 83 % 1019,0 hPa 0,0 mm 1,9 km/h (1 Bft) O-NO 67 ° 0 min 0,000 mm 0,0 UV-I 0 W/m² 7,8 °C 10,6 °C 6,4 km/h (2 Bft)
18.09.2019 04:17 10,6 °C 83 % 1019,0 hPa 0,0 mm 3,6 km/h (1 Bft) O-NO 67 ° 0 min 0,000 mm 0,0 UV-I 0 W/m² 7,8 °C 10,6 °C 4,8 km/h (1 Bft)
18.09.2019 04:18 10,6 °C 83 % 1019,1 hPa 0,0 mm 1,3 km/h (1 Bft) O-NO 67 ° 0 min 0,000 mm 0,0 UV-I 0 W/m² 7,8 °C 10,6 °C 3,2 km/h (1 Bft)
18.09.2019 04:19 10,6 °C 82 % 1019,1 hPa 0,0 mm 2,7 km/h (1 Bft) O-NO 67 ° 0 min 0,000 mm 0,0 UV-I 0 W/m² 7,7 °C 10,6 °C 4,8 km/h (1 Bft)
18.09.2019 04:20 10,6 °C 82 % 1019,1 hPa 0,0 mm 0,1 km/h (0 Bft) O-NO 67 ° 0 min 0,000 mm 0,0 UV-I 0 W/m² 7,7 °C 10,6 °C 1,6 km/h (1 Bft)
18.09.2019 04:21 10,6 °C 83 % 1019,1 hPa 0,0 mm 0,0 km/h (0 Bft) O-NO 67 ° 0 min 0,000 mm 0,0 UV-I 0 W/m² 7,8 °C 10,6 °C 0,0 km/h (0 Bft)
18.09.2019 04:22 10,5 °C 83 % 1019,1 hPa 0,0 mm 0,0 km/h (0 Bft) O-NO 67 ° 0 min 0,000 mm 0,0 UV-I 0 W/m² 7,7 °C 10,5 °C 0,0 km/h (0 Bft)
18.09.2019 04:23 10,5 °C 83 % 1019,1 hPa 0,0 mm 0,0 km/h (0 Bft) O-NO 67 ° 0 min 0,000 mm 0,0 UV-I 0 W/m² 7,7 °C 10,5 °C 0,0 km/h (0 Bft)
18.09.2019 04:24 10,4 °C 83 % 1019,1 hPa 0,0 mm 0,0 km/h (0 Bft) O-NO 67 ° 0 min 0,000 mm 0,0 UV-I 0 W/m² 7,6 °C 10,4 °C 0,0 km/h (0 Bft)
18.09.2019 04:25 10,4 °C 83 % 1019,1 hPa 0,0 mm 0,0 km/h (0 Bft) O-NO 67 ° 0 min 0,000 mm 0,0 UV-I 0 W/m² 7,6 °C 10,4 °C 0,0 km/h (0 Bft)
18.09.2019 04:26 10,4 °C 83 % 1019,2 hPa 0,0 mm 0,0 km/h (0 Bft) O-NO 67 ° 0 min 0,000 mm 0,0 UV-I 0 W/m² 7,6 °C 10,4 °C 0,0 km/h (0 Bft)
18.09.2019 04:27 10,4 °C 83 % 1019,2 hPa 0,0 mm 0,0 km/h (0 Bft) O-NO 67 ° 0 min 0,000 mm 0,0 UV-I 0 W/m² 7,6 °C 10,4 °C 0,0 km/h (0 Bft)
18.09.2019 04:28 10,4 °C 83 % 1019,2 hPa 0,0 mm 0,0 km/h (0 Bft) O-NO 67 ° 0 min 0,000 mm 0,0 UV-I 0 W/m² 7,6 °C 10,4 °C 0,0 km/h (0 Bft)
18.09.2019 04:29 10,4 °C 83 % 1019,2 hPa 0,0 mm 0,0 km/h (0 Bft) O-NO 67 ° 0 min 0,000 mm 0,0 UV-I 0 W/m² 7,6 °C 10,4 °C 0,0 km/h (0 Bft)
18.09.2019 04:30 10,4 °C 83 % 1019,2 hPa 0,0 mm 0,0 km/h (0 Bft) O-NO 67 ° 0 min 0,000 mm 0,0 UV-I 0 W/m² 7,6 °C 10,4 °C 0,0 km/h (0 Bft)
18.09.2019 04:31 10,4 °C 84 % 1019,2 hPa 0,0 mm 1,7 km/h (1 Bft) O-NO 67 ° 0 min 0,000 mm 0,0 UV-I 0 W/m² 7,8 °C 10,4 °C 3,2 km/h (1 Bft)
18.09.2019 04:32 10,4 °C 84 % 1019,2 hPa 0,0 mm 3,9 km/h (1 Bft) O-SO 103 ° 0 min 0,000 mm 0,0 UV-I 0 W/m² 7,8 °C 10,4 °C 6,4 km/h (2 Bft)
18.09.2019 04:33 10,4 °C 84 % 1019,2 hPa 0,0 mm 2,7 km/h (1 Bft) O-NO 67 ° 0 min 0,000 mm 0,0 UV-I 0 W/m² 7,8 °C 10,4 °C 6,4 km/h (2 Bft)
18.09.2019 04:34 10,4 °C 83 % 1019,1 hPa 0,0 mm 2,7 km/h (1 Bft) O-NO 67 ° 0 min 0,000 mm 0,0 UV-I 0 W/m² 7,6 °C 10,4 °C 4,8 km/h (1 Bft)
18.09.2019 04:35 10,4 °C 83 % 1019,1 hPa 0,0 mm 1,6 km/h (1 Bft) O-NO 67 ° 0 min 0,000 mm 0,0 UV-I 0 W/m² 7,6 °C 10,4 °C 3,2 km/h (1 Bft)
18.09.2019 04:36 10,4 °C 83 % 1019,1 hPa 0,0 mm 0,8 km/h (0 Bft) O 99 ° 0 min 0,000 mm 0,0 UV-I 0 W/m² 7,6 °C 10,4 °C 1,6 km/h (1 Bft)
18.09.2019 04:37 10,3 °C 83 % 1019,2 hPa 0,0 mm 0,3 km/h (0 Bft) O 99 ° 0 min 0,000 mm 0,0 UV-I 0 W/m² 7,5 °C 10,3 °C 1,6 km/h (1 Bft)
18.09.2019 04:38 10,3 °C 83 % 1019,2 hPa 0,0 mm 2,0 km/h (1 Bft) O 99 ° 0 min 0,000 mm 0,0 UV-I 0 W/m² 7,5 °C 10,3 °C 3,2 km/h (1 Bft)
18.09.2019 04:39 10,3 °C 83 % 1019,2 hPa 0,0 mm 2,9 km/h (1 Bft) O 99 ° 0 min 0,000 mm 0,0 UV-I 0 W/m² 7,5 °C 10,3 °C 4,8 km/h (1 Bft)
18.09.2019 04:40 10,3 °C 83 % 1019,2 hPa 0,0 mm 1,8 km/h (1 Bft) O 99 ° 0 min 0,000 mm 0,0 UV-I 0 W/m² 7,5 °C 10,3 °C 3,2 km/h (1 Bft)
18.09.2019 04:41 10,3 °C 83 % 1019,3 hPa 0,0 mm 3,0 km/h (1 Bft) O 91 ° 0 min 0,000 mm 0,0 UV-I 0 W/m² 7,5 °C 10,3 °C 4,8 km/h (1 Bft)
18.09.2019 04:42 10,3 °C 83 % 1019,2 hPa 0,0 mm 1,7 km/h (1 Bft) O 91 ° 0 min 0,000 mm 0,0 UV-I 0 W/m² 7,5 °C 10,3 °C 3,2 km/h (1 Bft)
18.09.2019 04:43 10,3 °C 83 % 1019,2 hPa 0,0 mm 1,1 km/h (1 Bft) O 91 ° 0 min 0,000 mm 0,0 UV-I 0 W/m² 7,5 °C 10,3 °C 3,2 km/h (1 Bft)
18.09.2019 04:44 10,3 °C 83 % 1019,2 hPa 0,0 mm 0,0 km/h (0 Bft) O 91 ° 0 min 0,000 mm 0,0 UV-I 0 W/m² 7,5 °C 10,3 °C 0,0 km/h (0 Bft)
18.09.2019 04:45 10,3 °C 83 % 1019,2 hPa 0,0 mm 1,2 km/h (1 Bft) O 88 ° 0 min 0,000 mm 0,0 UV-I 0 W/m² 7,5 °C 10,3 °C 3,2 km/h (1 Bft)
18.09.2019 04:46 10,3 °C 84 % 1019,2 hPa 0,0 mm 2,1 km/h (1 Bft) O 88 ° 0 min 0,000 mm 0,0 UV-I 0 W/m² 7,7 °C 10,3 °C 3,2 km/h (1 Bft)
18.09.2019 04:47 10,3 °C 83 % 1019,2 hPa 0,0 mm 0,0 km/h (0 Bft) O 88 ° 0 min 0,000 mm 0,0 UV-I 0 W/m² 7,5 °C 10,3 °C 0,0 km/h (0 Bft)
18.09.2019 04:48 10,2 °C 83 % 1019,2 hPa 0,0 mm 1,5 km/h (1 Bft) O 88 ° 0 min 0,000 mm 0,0 UV-I 0 W/m² 7,4 °C 10,2 °C 4,8 km/h (1 Bft)
18.09.2019 04:49 10,3 °C 83 % 1019,2 hPa 0,0 mm 1,6 km/h (1 Bft) O 88 ° 0 min 0,000 mm 0,0 UV-I 0 W/m² 7,5 °C 10,3 °C 3,2 km/h (1 Bft)
18.09.2019 04:50 10,3 °C 83 % 1019,3 hPa 0,0 mm 3,5 km/h (1 Bft) O 88 ° 0 min 0,000 mm 0,0 UV-I 0 W/m² 7,5 °C 10,3 °C 4,8 km/h (1 Bft)
18.09.2019 04:51 10,3 °C 83 % 1019,2 hPa 0,0 mm 2,2 km/h (1 Bft) O 88 ° 0 min 0,000 mm 0,0 UV-I 0 W/m² 7,5 °C 10,3 °C 3,2 km/h (1 Bft)
18.09.2019 04:52 10,3 °C 83 % 1019,2 hPa 0,0 mm 0,4 km/h (0 Bft) O 88 ° 0 min 0,000 mm 0,0 UV-I 0 W/m² 7,5 °C 10,3 °C 1,6 km/h (1 Bft)
18.09.2019 04:53 10,2 °C 83 % 1019,2 hPa 0,0 mm 0,0 km/h (0 Bft) O-NO 72 ° 0 min 0,000 mm 0,0 UV-I 0 W/m² 7,4 °C 10,2 °C 0,0 km/h (0 Bft)
18.09.2019 04:54 10,3 °C 83 % 1019,2 hPa 0,0 mm 2,2 km/h (1 Bft) N-NO 26 ° 0 min 0,000 mm 0,0 UV-I 0 W/m² 7,5 °C 10,3 °C 4,8 km/h (1 Bft)
18.09.2019 04:55 10,3 °C 84 % 1019,2 hPa 0,0 mm 0,0 km/h (0 Bft) N-NO 26 ° 0 min 0,000 mm 0,0 UV-I 0 W/m² 7,7 °C 10,3 °C 0,0 km/h (0 Bft)
18.09.2019 04:56 10,2 °C 84 % 1019,2 hPa 0,0 mm 1,5 km/h (1 Bft) N-NO 26 ° 0 min 0,000 mm 0,0 UV-I 0 W/m² 7,6 °C 10,2 °C 3,2 km/h (1 Bft)
18.09.2019 04:57 10,2 °C 84 % 1019,2 hPa 0,0 mm 2,3 km/h (1 Bft) N-NO 26 ° 0 min 0,000 mm 0,0 UV-I 0 W/m² 7,6 °C 10,2 °C 3,2 km/h (1 Bft)
18.09.2019 04:58 10,2 °C 84 % 1019,3 hPa 0,0 mm 1,5 km/h (1 Bft) N-NO 26 ° 0 min 0,000 mm 0,0 UV-I 0 W/m² 7,6 °C 10,2 °C 3,2 km/h (1 Bft)
18.09.2019 04:59 10,2 °C 84 % 1019,3 hPa 0,0 mm 0,3 km/h (0 Bft) N-NO 33 ° 0 min 0,000 mm 0,0 UV-I 0 W/m² 7,6 °C 10,2 °C 1,6 km/h (1 Bft)
18.09.2019 05:00 10,2 °C 84 % 1019,3 hPa 0,0 mm 2,9 km/h (1 Bft) NO 42 ° 0 min 0,000 mm 0,0 UV-I 0 W/m² 7,6 °C 10,2 °C 4,8 km/h (1 Bft)
18.09.2019 05:01 10,2 °C 84 % 1019,3 hPa 0,0 mm 0,6 km/h (0 Bft) NO 42 ° 0 min 0,025 mm 0,0 UV-I 0 W/m² 7,6 °C 10,2 °C 3,2 km/h (1 Bft)
18.09.2019 05:02 10,2 °C 83 % 1019,3 hPa 0,0 mm 0,2 km/h (0 Bft) NO 42 ° 0 min 0,000 mm 0,0 UV-I 0 W/m² 7,4 °C 10,2 °C 1,6 km/h (1 Bft)
18.09.2019 05:03 10,2 °C 83 % 1019,4 hPa 0,0 mm 0,4 km/h (0 Bft) NO 42 ° 0 min 0,000 mm 0,0 UV-I 0 W/m² 7,4 °C 10,2 °C 3,2 km/h (1 Bft)
18.09.2019 05:04 10,2 °C 83 % 1019,4 hPa 0,0 mm 1,8 km/h (1 Bft) NO 42 ° 0 min 0,000 mm 0,0 UV-I 0 W/m² 7,4 °C 10,2 °C 3,2 km/h (1 Bft)
18.09.2019 05:05 10,2 °C 83 % 1019,4 hPa 0,0 mm 1,5 km/h (1 Bft) NO 42 ° 0 min 0,000 mm 0,0 UV-I 0 W/m² 7,4 °C 10,2 °C 4,8 km/h (1 Bft)
18.09.2019 05:06 10,2 °C 83 % 1019,5 hPa 0,0 mm 1,2 km/h (1 Bft) NO 42 ° 0 min 0,000 mm 0,0 UV-I 0 W/m² 7,4 °C 10,2 °C 3,2 km/h (1 Bft)
18.09.2019 05:07 10,2 °C 83 % 1019,4 hPa 0,0 mm 1,5 km/h (1 Bft) NO 42 ° 0 min 0,000 mm 0,0 UV-I 0 W/m² 7,4 °C 10,2 °C 6,4 km/h (2 Bft)
18.09.2019 05:08 10,2 °C 83 % 1019,4 hPa 0,0 mm 2,8 km/h (1 Bft) NO 42 ° 0 min 0,000 mm 0,0 UV-I 0 W/m² 7,4 °C 10,2 °C 4,8 km/h (1 Bft)
18.09.2019 05:09 10,2 °C 83 % 1019,4 hPa 0,0 mm 2,0 km/h (1 Bft) NO 42 ° 0 min 0,000 mm 0,0 UV-I 0 W/m² 7,4 °C 10,2 °C 3,2 km/h (1 Bft)
18.09.2019 05:10 10,3 °C 83 % 1019,4 hPa 0,0 mm 2,2 km/h (1 Bft) NO 42 ° 0 min 0,000 mm 0,0 UV-I 0 W/m² 7,5 °C 10,3 °C 4,8 km/h (1 Bft)
18.09.2019 05:11 10,2 °C 83 % 1019,5 hPa 0,0 mm 2,6 km/h (1 Bft) NO 42 ° 0 min 0,000 mm 0,0 UV-I 0 W/m² 7,4 °C 10,2 °C 4,8 km/h (1 Bft)
18.09.2019 05:12 10,3 °C 82 % 1019,4 hPa 0,0 mm 3,8 km/h (1 Bft) N-NO 14 ° 0 min 0,000 mm 0,0 UV-I 0 W/m² 7,4 °C 10,3 °C 8,0 km/h (2 Bft)
18.09.2019 05:13 10,2 °C 83 % 1019,5 hPa 0,0 mm 0,4 km/h (0 Bft) N-NO 14 ° 0 min 0,000 mm 0,0 UV-I 0 W/m² 7,4 °C 10,2 °C 1,6 km/h (1 Bft)
18.09.2019 05:14 10,2 °C 83 % 1019,5 hPa 0,0 mm 1,4 km/h (1 Bft) N-NO 14 ° 0 min 0,000 mm 0,0 UV-I 0 W/m² 7,4 °C 10,2 °C 3,2 km/h (1 Bft)
18.09.2019 05:15 10,2 °C 83 % 1019,5 hPa 0,0 mm 1,6 km/h (1 Bft) N-NO 24 ° 0 min 0,000 mm 0,0 UV-I 0 W/m² 7,4 °C 10,2 °C 3,2 km/h (1 Bft)
18.09.2019 05:16 10,2 °C 83 % 1019,5 hPa 0,0 mm 4,1 km/h (1 Bft) NO 42 ° 0 min 0,000 mm 0,0 UV-I 0 W/m² 7,4 °C 10,2 °C 8,0 km/h (2 Bft)
18.09.2019 05:17 10,2 °C 82 % 1019,4 hPa 0,0 mm 0,0 km/h (0 Bft) NO 42 ° 0 min 0,000 mm 0,0 UV-I 0 W/m² 7,3 °C 10,2 °C 0,0 km/h (0 Bft)
18.09.2019 05:18 10,2 °C 82 % 1019,4 hPa 0,0 mm 2,8 km/h (1 Bft) NO 35 ° 0 min 0,000 mm 0,0 UV-I 0 W/m² 7,3 °C 10,2 °C 6,4 km/h (2 Bft)
18.09.2019 05:19 10,2 °C 82 % 1019,5 hPa 0,0 mm 3,5 km/h (1 Bft) NO 35 ° 0 min 0,000 mm 0,0 UV-I 0 W/m² 7,3 °C 10,2 °C 4,8 km/h (1 Bft)
18.09.2019 05:20 10,2 °C 82 % 1019,4 hPa 0,0 mm 2,7 km/h (1 Bft) NO 35 ° 0 min 0,000 mm 0,0 UV-I 0 W/m² 7,3 °C 10,2 °C 3,2 km/h (1 Bft)
18.09.2019 05:21 10,2 °C 82 % 1019,5 hPa 0,0 mm 1,7 km/h (1 Bft) NO 35 ° 0 min 0,000 mm 0,0 UV-I 0 W/m² 7,3 °C 10,2 °C 4,8 km/h (1 Bft)
18.09.2019 05:22 10,2 °C 82 % 1019,5 hPa 0,0 mm 0,7 km/h (0 Bft) NO 35 ° 0 min 0,000 mm 0,0 UV-I 0 W/m² 7,3 °C 10,2 °C 3,2 km/h (1 Bft)
18.09.2019 05:23 10,2 °C 82 % 1019,5 hPa 0,0 mm 0,3 km/h (0 Bft) NO 35 ° 0 min 0,000 mm 0,0 UV-I 0 W/m² 7,3 °C 10,2 °C 3,2 km/h (1 Bft)
18.09.2019 05:24 10,2 °C 83 % 1019,5 hPa 0,0 mm 2,1 km/h (1 Bft) NO 35 ° 0 min 0,000 mm 0,0 UV-I 0 W/m² 7,4 °C 10,2 °C 3,2 km/h (1 Bft)
18.09.2019 05:25 10,1 °C 83 % 1019,5 hPa 0,0 mm 4,0 km/h (1 Bft) N-NO 16 ° 0 min 0,000 mm 0,0 UV-I 0 W/m² 7,3 °C 10,1 °C 4,8 km/h (1 Bft)
18.09.2019 05:26 10,1 °C 83 % 1019,5 hPa 0,0 mm 2,4 km/h (1 Bft) N-NO 16 ° 0 min 0,000 mm 0,0 UV-I 0 W/m² 7,3 °C 10,1 °C 4,8 km/h (1 Bft)
18.09.2019 05:27 10,1 °C 83 % 1019,5 hPa 0,0 mm 2,2 km/h (1 Bft) N-NO 16 ° 0 min 0,000 mm 0,0 UV-I 0 W/m² 7,3 °C 10,1 °C 3,2 km/h (1 Bft)
18.09.2019 05:28 10,2 °C 83 % 1019,4 hPa 0,0 mm 2,3 km/h (1 Bft) N-NO 16 ° 0 min 0,000 mm 0,0 UV-I 0 W/m² 7,4 °C 10,2 °C 3,2 km/h (1 Bft)
18.09.2019 05:29 10,1 °C 83 % 1019,4 hPa 0,0 mm 1,2 km/h (1 Bft) N-NO 16 ° 0 min 0,000 mm 0,0 UV-I 0 W/m² 7,3 °C 10,1 °C 3,2 km/h (1 Bft)
18.09.2019 05:30 10,1 °C 83 % 1019,4 hPa 0,0 mm 1,6 km/h (1 Bft) N-NO 16 ° 0 min 0,000 mm 0,0 UV-I 0 W/m² 7,3 °C 10,1 °C 3,2 km/h (1 Bft)
18.09.2019 05:31 10,1 °C 83 % 1019,4 hPa 0,0 mm 0,5 km/h (0 Bft) N-NO 16 ° 0 min 0,000 mm 0,0 UV-I 0 W/m² 7,3 °C 10,1 °C 3,2 km/h (1 Bft)
18.09.2019 05:32 10,1 °C 83 % 1019,5 hPa 0,0 mm 5,6 km/h (1 Bft) O-NO 69 ° 0 min 0,000 mm 0,0 UV-I 0 W/m² 7,3 °C 10,1 °C 9,7 km/h (2 Bft)
18.09.2019 05:33 10,1 °C 83 % 1019,4 hPa 0,0 mm 5,1 km/h (1 Bft) N-NO 25 ° 0 min 0,000 mm 0,0 UV-I 0 W/m² 7,3 °C 10,1 °C 8,0 km/h (2 Bft)
18.09.2019 05:34 10,1 °C 83 % 1019,4 hPa 0,0 mm 3,8 km/h (1 Bft) O 83 ° 0 min 0,000 mm 0,0 UV-I 0 W/m² 7,3 °C 10,1 °C 6,4 km/h (2 Bft)
18.09.2019 05:35 10,0 °C 83 % 1019,5 hPa 0,0 mm 5,7 km/h (1 Bft) O-NO 57 ° 0 min 0,000 mm 0,0 UV-I 0 W/m² 7,2 °C 9,6 °C 9,7 km/h (2 Bft)
18.09.2019 05:36 10,0 °C 82 % 1019,6 hPa 0,0 mm 5,5 km/h (1 Bft) NO 52 ° 0 min 0,000 mm 0,0 UV-I 0 W/m² 7,1 °C 9,6 °C 8,0 km/h (2 Bft)
18.09.2019 05:37 9,9 °C 82 % 1019,6 hPa 0,0 mm 4,1 km/h (1 Bft) O 93 ° 0 min 0,000 mm 0,0 UV-I 0 W/m² 7,0 °C 9,9 °C 6,4 km/h (2 Bft)
18.09.2019 05:38 9,9 °C 82 % 1019,6 hPa 0,0 mm 5,4 km/h (1 Bft) O-NO 65 ° 0 min 0,000 mm 0,0 UV-I 0 W/m² 7,0 °C 9,5 °C 8,0 km/h (2 Bft)
18.09.2019 05:39 9,9 °C 82 % 1019,6 hPa 0,0 mm 4,3 km/h (1 Bft) O-NO 57 ° 0 min 0,000 mm 0,0 UV-I 0 W/m² 7,0 °C 9,9 °C 6,4 km/h (2 Bft)
18.09.2019 05:40 9,9 °C 83 % 1019,6 hPa 0,0 mm 1,0 km/h (0 Bft) O 81 ° 0 min 0,000 mm 0,0 UV-I 0 W/m² 7,2 °C 9,9 °C 4,8 km/h (1 Bft)
18.09.2019 05:41 9,9 °C 83 % 1019,6 hPa 0,0 mm 6,1 km/h (2 Bft) O-NO 63 ° 0 min 0,000 mm 0,0 UV-I 0 W/m² 7,2 °C 9,3 °C 8,0 km/h (2 Bft)
18.09.2019 05:42 9,9 °C 83 % 1019,6 hPa 0,0 mm 5,0 km/h (1 Bft) O-NO 58 ° 0 min 0,000 mm 0,0 UV-I 0 W/m² 7,2 °C 9,6 °C 8,0 km/h (2 Bft)
18.09.2019 05:43 9,8 °C 83 % 1019,6 hPa 0,0 mm 2,6 km/h (1 Bft) O-NO 58 ° 0 min 0,000 mm 0,0 UV-I 0 W/m² 7,1 °C 9,8 °C 4,8 km/h (1 Bft)
18.09.2019 05:44 9,8 °C 83 % 1019,6 hPa 0,0 mm 5,2 km/h (1 Bft) NO 52 ° 0 min 0,000 mm 0,0 UV-I 0 W/m² 7,1 °C 9,5 °C 9,7 km/h (2 Bft)
18.09.2019 05:45 9,8 °C 82 % 1019,6 hPa 0,0 mm 6,0 km/h (2 Bft) O 82 ° 0 min 0,000 mm 0,0 UV-I 0 W/m² 6,9 °C 9,2 °C 8,0 km/h (2 Bft)
18.09.2019 05:46 9,8 °C 82 % 1019,6 hPa 0,0 mm 3,3 km/h (1 Bft) NO 44 ° 0 min 0,000 mm 0,0 UV-I 0 W/m² 6,9 °C 9,8 °C 4,8 km/h (1 Bft)
18.09.2019 05:47 9,8 °C 82 % 1019,5 hPa 0,0 mm 4,2 km/h (1 Bft) NO 37 ° 0 min 0,000 mm 0,0 UV-I 0 W/m² 6,9 °C 9,8 °C 6,4 km/h (2 Bft)
18.09.2019 05:48 9,8 °C 82 % 1019,6 hPa 0,0 mm 3,3 km/h (1 Bft) NO 51 ° 0 min 0,000 mm 0,0 UV-I 0 W/m² 6,9 °C 9,8 °C 6,4 km/h (2 Bft)
18.09.2019 05:49 9,8 °C 83 % 1019,6 hPa 0,0 mm 3,6 km/h (1 Bft) NO 51 ° 0 min 0,000 mm 0,0 UV-I 0 W/m² 7,1 °C 9,8 °C 6,4 km/h (2 Bft)
18.09.2019 05:50 9,8 °C 83 % 1019,6 hPa 0,0 mm 3,7 km/h (1 Bft) NO 51 ° 0 min 0,000 mm 0,0 UV-I 0 W/m² 7,1 °C 9,8 °C 6,4 km/h (2 Bft)
18.09.2019 05:51 9,8 °C 83 % 1019,5 hPa 0,0 mm 2,1 km/h (1 Bft) NO 47 ° 0 min 0,000 mm 0,0 UV-I 0 W/m² 7,1 °C 9,8 °C 6,4 km/h (2 Bft)
18.09.2019 05:52 9,8 °C 82 % 1019,6 hPa 0,0 mm 3,8 km/h (1 Bft) NO 47 ° 0 min 0,000 mm 0,0 UV-I 0 W/m² 6,9 °C 9,8 °C 6,4 km/h (2 Bft)
18.09.2019 05:53 9,8 °C 83 % 1019,5 hPa 0,0 mm 4,5 km/h (1 Bft) O 81 ° 0 min 0,000 mm 0,0 UV-I 0 W/m² 7,1 °C 9,8 °C 6,4 km/h (2 Bft)
18.09.2019 05:54 9,8 °C 83 % 1019,6 hPa 0,0 mm 5,0 km/h (1 Bft) O 80 ° 0 min 0,000 mm 0,0 UV-I 0 W/m² 7,1 °C 9,5 °C 8,0 km/h (2 Bft)
18.09.2019 05:55 9,7 °C 82 % 1019,6 hPa 0,0 mm 2,6 km/h (1 Bft) O 85 ° 0 min 0,000 mm 0,0 UV-I 0 W/m² 6,8 °C 9,7 °C 8,0 km/h (2 Bft)
18.09.2019 05:56 9,7 °C 82 % 1019,5 hPa 0,0 mm 6,5 km/h (2 Bft) O 82 ° 0 min 0,000 mm 0,0 UV-I 0 W/m² 6,8 °C 9,0 °C 9,7 km/h (2 Bft)
18.09.2019 05:57 9,7 °C 82 % 1019,5 hPa 0,0 mm 3,4 km/h (1 Bft) N-NO 29 ° 0 min 0,000 mm 0,0 UV-I 0 W/m² 6,8 °C 9,7 °C 4,8 km/h (1 Bft)
18.09.2019 05:58 9,7 °C 82 % 1019,5 hPa 0,0 mm 2,3 km/h (1 Bft) NO 45 ° 0 min 0,000 mm 0,0 UV-I 0 W/m² 6,8 °C 9,7 °C 4,8 km/h (1 Bft)
18.09.2019 05:59 9,7 °C 82 % 1019,5 hPa 0,0 mm 5,3 km/h (1 Bft) NO 48 ° 0 min 0,000 mm 0,0 UV-I 0 W/m² 6,8 °C 9,3 °C 6,4 km/h (2 Bft)
18.09.2019 06:00 9,7 °C 82 % 1019,5 hPa 0,0 mm 4,2 km/h (1 Bft) NO 51 ° 0 min 0,025 mm 0,0 UV-I 0 W/m² 6,8 °C 9,7 °C 6,4 km/h (2 Bft)
18.09.2019 06:01 9,6 °C 83 % 1019,5 hPa 0,0 mm 2,5 km/h (1 Bft) NO 51 ° 0 min 0,000 mm 0,0 UV-I 0 W/m² 6,9 °C 9,6 °C 4,8 km/h (1 Bft)
18.09.2019 06:02 9,6 °C 83 % 1019,5 hPa 0,0 mm 5,3 km/h (1 Bft) O-NO 77 ° 0 min 0,000 mm 0,0 UV-I 0 W/m² 6,9 °C 9,2 °C 8,0 km/h (2 Bft)
18.09.2019 06:03 9,6 °C 83 % 1019,5 hPa 0,0 mm 4,7 km/h (1 Bft) O-NO 75 ° 0 min 0,000 mm 0,0 UV-I 0 W/m² 6,9 °C 9,4 °C 6,4 km/h (2 Bft)
18.09.2019 06:04 9,6 °C 83 % 1019,5 hPa 0,0 mm 3,5 km/h (1 Bft) O-NO 75 ° 0 min 0,000 mm 0,0 UV-I 0 W/m² 6,9 °C 9,6 °C 4,8 km/h (1 Bft)
18.09.2019 06:05 9,6 °C 83 % 1019,5 hPa 0,0 mm 2,2 km/h (1 Bft) O 92 ° 0 min 0,000 mm 0,0 UV-I 0 W/m² 6,9 °C 9,6 °C 3,2 km/h (1 Bft)
18.09.2019 06:06 9,6 °C 83 % 1019,5 hPa 0,0 mm 7,8 km/h (2 Bft) O 98 ° 0 min 0,000 mm 0,0 UV-I 0 W/m² 6,9 °C 8,6 °C 11,3 km/h (2 Bft)
18.09.2019 06:07 9,6 °C 83 % 1019,5 hPa 0,0 mm 6,0 km/h (2 Bft) O 84 ° 0 min 0,000 mm 0,0 UV-I 0 W/m² 6,9 °C 9,0 °C 6,4 km/h (2 Bft)
18.09.2019 06:08 9,5 °C 82 % 1019,6 hPa 0,0 mm 5,1 km/h (1 Bft) O 82 ° 0 min 0,000 mm 0,0 UV-I 0 W/m² 6,6 °C 9,2 °C 9,7 km/h (2 Bft)
18.09.2019 06:09 9,4 °C 83 % 1019,5 hPa 0,0 mm 1,6 km/h (1 Bft) O 82 ° 0 min 0,000 mm 0,0 UV-I 0 W/m² 6,7 °C 9,4 °C 3,2 km/h (1 Bft)
18.09.2019 06:10 9,4 °C 83 % 1019,5 hPa 0,0 mm 1,3 km/h (1 Bft) O-NO 71 ° 0 min 0,000 mm 0,0 UV-I 0 W/m² 6,7 °C 9,4 °C 6,4 km/h (2 Bft)
18.09.2019 06:11 9,4 °C 83 % 1019,5 hPa 0,0 mm 2,4 km/h (1 Bft) O-NO 78 ° 0 min 0,000 mm 0,0 UV-I 0 W/m² 6,7 °C 9,4 °C 4,8 km/h (1 Bft)
18.09.2019 06:12 9,4 °C 83 % 1019,5 hPa 0,0 mm 1,0 km/h (0 Bft) O-NO 78 ° 0 min 0,000 mm 0,0 UV-I 0 W/m² 6,7 °C 9,4 °C 3,2 km/h (1 Bft)
18.09.2019 06:13 9,4 °C 83 % 1019,5 hPa 0,0 mm 3,0 km/h (1 Bft) O 81 ° 0 min 0,000 mm 0,0 UV-I 0 W/m² 6,7 °C 9,4 °C 9,7 km/h (2 Bft)
18.09.2019 06:14 9,4 °C 83 % 1019,5 hPa 0,0 mm 4,1 km/h (1 Bft) O 82 ° 0 min 0,000 mm 0,0 UV-I 0 W/m² 6,7 °C 9,4 °C 4,8 km/h (1 Bft)
18.09.2019 06:15 9,4 °C 83 % 1019,4 hPa 0,0 mm 5,3 km/h (1 Bft) O 86 ° 0 min 0,000 mm 0,0 UV-I 0 W/m² 6,7 °C 9,0 °C 6,4 km/h (2 Bft)
18.09.2019 06:16 9,4 °C 83 % 1019,5 hPa 0,0 mm 2,6 km/h (1 Bft) O 85 ° 0 min 0,000 mm 0,0 UV-I 0 W/m² 6,7 °C 9,4 °C 4,8 km/h (1 Bft)
18.09.2019 06:17 9,4 °C 83 % 1019,4 hPa 0,0 mm 1,2 km/h (1 Bft) O 84 ° 0 min 0,000 mm 0,0 UV-I 0 W/m² 6,7 °C 9,4 °C 4,8 km/h (1 Bft)
18.09.2019 06:18 9,4 °C 83 % 1019,5 hPa 0,0 mm 2,8 km/h (1 Bft) NO 49 ° 0 min 0,000 mm 0,0 UV-I 0 W/m² 6,7 °C 9,4 °C 4,8 km/h (1 Bft)
18.09.2019 06:19 9,3 °C 83 % 1019,4 hPa 0,0 mm 0,0 km/h (0 Bft) NO 49 ° 0 min 0,000 mm 0,0 UV-I 0 W/m² 6,6 °C 9,3 °C 0,0 km/h (0 Bft)
18.09.2019 06:20 9,3 °C 83 % 1019,4 hPa 0,0 mm 2,7 km/h (1 Bft) NO 43 ° 0 min 0,000 mm 0,0 UV-I 0 W/m² 6,6 °C 9,3 °C 4,8 km/h (1 Bft)
18.09.2019 06:21 9,3 °C 83 % 1019,5 hPa 0,0 mm 3,9 km/h (1 Bft) O-NO 59 ° 0 min 0,000 mm 0,0 UV-I 0 W/m² 6,6 °C 9,3 °C 6,4 km/h (2 Bft)
18.09.2019 06:22 9,3 °C 83 % 1019,5 hPa 0,0 mm 1,7 km/h (1 Bft) O-NO 59 ° 0 min 0,000 mm 0,0 UV-I 0 W/m² 6,6 °C 9,3 °C 3,2 km/h (1 Bft)
18.09.2019 06:23 9,3 °C 83 % 1019,5 hPa 0,0 mm 1,3 km/h (1 Bft) O-NO 59 ° 0 min 0,000 mm 0,0 UV-I 0 W/m² 6,6 °C 9,3 °C 4,8 km/h (1 Bft)
18.09.2019 06:24 9,3 °C 83 % 1019,5 hPa 0,0 mm 1,0 km/h (0 Bft) O-NO 59 ° 0 min 0,000 mm 0,0 UV-I 0 W/m² 6,6 °C 9,3 °C 3,2 km/h (1 Bft)
18.09.2019 06:25 9,3 °C 83 % 1019,5 hPa 0,0 mm 4,7 km/h (1 Bft) O 89 ° 0 min 0,000 mm 0,0 UV-I 0 W/m² 6,6 °C 9,1 °C 6,4 km/h (2 Bft)
18.09.2019 06:26 9,3 °C 83 % 1019,5 hPa 0,0 mm 2,4 km/h (1 Bft) O 88 ° 0 min 0,000 mm 0,0 UV-I 0 W/m² 6,6 °C 9,3 °C 4,8 km/h (1 Bft)
18.09.2019 06:27 9,3 °C 83 % 1019,5 hPa 0,0 mm 1,0 km/h (0 Bft) O 89 ° 0 min 0,000 mm 0,0 UV-I 0 W/m² 6,6 °C 9,3 °C 4,8 km/h (1 Bft)
18.09.2019 06:28 9,3 °C 83 % 1019,5 hPa 0,0 mm 6,4 km/h (2 Bft) O 90 ° 0 min 0,000 mm 0,0 UV-I 0 W/m² 6,6 °C 8,6 °C 9,7 km/h (2 Bft)
18.09.2019 06:29 9,2 °C 83 % 1019,5 hPa 0,0 mm 1,9 km/h (1 Bft) O 90 ° 0 min 0,000 mm 0,0 UV-I 0 W/m² 6,5 °C 9,2 °C 3,2 km/h (1 Bft)
18.09.2019 06:30 9,2 °C 84 % 1019,6 hPa 0,0 mm 2,1 km/h (1 Bft) O 98 ° 0 min 0,000 mm 0,0 UV-I 0 W/m² 6,6 °C 9,2 °C 6,4 km/h (2 Bft)
18.09.2019 06:31 9,2 °C 83 % 1019,6 hPa 0,0 mm 4,6 km/h (1 Bft) O 83 ° 0 min 0,000 mm 0,0 UV-I 0 W/m² 6,5 °C 9,0 °C 6,4 km/h (2 Bft)
18.09.2019 06:32 9,2 °C 83 % 1019,6 hPa 0,0 mm 2,7 km/h (1 Bft) O-NO 69 ° 0 min 0,000 mm 0,0 UV-I 0 W/m² 6,5 °C 9,2 °C 4,8 km/h (1 Bft)
18.09.2019 06:33 9,2 °C 84 % 1019,5 hPa 0,0 mm 2,6 km/h (1 Bft) O-NO 69 ° 0 min 0,000 mm 0,0 UV-I 0 W/m² 6,6 °C 9,2 °C 6,4 km/h (2 Bft)
18.09.2019 06:34 9,2 °C 84 % 1019,6 hPa 0,0 mm 4,9 km/h (1 Bft) O-NO 78 ° 0 min 0,000 mm 0,0 UV-I 0 W/m² 6,6 °C 8,9 °C 6,4 km/h (2 Bft)
18.09.2019 06:35 9,2 °C 84 % 1019,6 hPa 0,0 mm 0,8 km/h (0 Bft) O-NO 78 ° 0 min 0,000 mm 0,0 UV-I 0 W/m² 6,6 °C 9,2 °C 3,2 km/h (1 Bft)
18.09.2019 06:36 9,2 °C 84 % 1019,6 hPa 0,0 mm 3,9 km/h (1 Bft) O-NO 74 ° 0 min 0,000 mm 0,0 UV-I 0 W/m² 6,6 °C 9,2 °C 4,8 km/h (1 Bft)
18.09.2019 06:37 9,2 °C 84 % 1019,5 hPa 0,0 mm 5,1 km/h (1 Bft) O-NO 73 ° 0 min 0,000 mm 0,0 UV-I 0 W/m² 6,6 °C 8,8 °C 6,4 km/h (2 Bft)
18.09.2019 06:38 9,2 °C 84 % 1019,5 hPa 0,0 mm 2,6 km/h (1 Bft) O-NO 73 ° 0 min 0,000 mm 0,0 UV-I 0 W/m² 6,6 °C 9,2 °C 4,8 km/h (1 Bft)
18.09.2019 06:39 9,2 °C 84 % 1019,5 hPa 0,0 mm 1,0 km/h (0 Bft) O-NO 73 ° 0 min 0,000 mm 0,0 UV-I 0 W/m² 6,6 °C 9,2 °C 3,2 km/h (1 Bft)
18.09.2019 06:40 9,2 °C 84 % 1019,5 hPa 0,0 mm 2,4 km/h (1 Bft) O-NO 73 ° 0 min 0,000 mm 0,0 UV-I 0 W/m² 6,6 °C 9,2 °C 4,8 km/h (1 Bft)
18.09.2019 06:41 9,2 °C 84 % 1019,5 hPa 0,0 mm 4,8 km/h (1 Bft) O-NO 69 ° 0 min 0,000 mm 0,0 UV-I 0 W/m² 6,6 °C 8,9 °C 8,0 km/h (2 Bft)
18.09.2019 06:42 9,2 °C 84 % 1019,5 hPa 0,0 mm 5,0 km/h (1 Bft) O-NO 59 ° 0 min 0,000 mm 0,0 UV-I 0 W/m² 6,6 °C 8,8 °C 8,0 km/h (2 Bft)
18.09.2019 06:43 9,2 °C 84 % 1019,6 hPa 0,0 mm 1,7 km/h (1 Bft) O-NO 77 ° 0 min 0,000 mm 0,0 UV-I 0 W/m² 6,6 °C 9,2 °C 6,4 km/h (2 Bft)
18.09.2019 06:44 9,2 °C 84 % 1019,6 hPa 0,0 mm 1,5 km/h (1 Bft) O-NO 77 ° 0 min 0,000 mm 0,0 UV-I 0 W/m² 6,6 °C 9,2 °C 3,2 km/h (1 Bft)
18.09.2019 06:45 9,2 °C 84 % 1019,6 hPa 0,0 mm 2,9 km/h (1 Bft) O-NO 77 ° 0 min 0,000 mm 0,0 UV-I 0 W/m² 6,6 °C 9,2 °C 4,8 km/h (1 Bft)
18.09.2019 06:46 9,2 °C 83 % 1019,6 hPa 0,0 mm 3,8 km/h (1 Bft) O-NO 77 ° 0 min 0,000 mm 0,0 UV-I 0 W/m² 6,5 °C 9,2 °C 4,8 km/h (1 Bft)
18.09.2019 06:47 9,2 °C 84 % 1019,6 hPa 0,0 mm 0,7 km/h (0 Bft) O-NO 77 ° 0 min 0,000 mm 0,0 UV-I 0 W/m² 6,6 °C 9,2 °C 3,2 km/h (1 Bft)
18.09.2019 06:48 9,2 °C 84 % 1019,6 hPa 0,0 mm 1,9 km/h (1 Bft) O-NO 76 ° 0 min 0,000 mm 0,0 UV-I 0 W/m² 6,6 °C 9,2 °C 6,4 km/h (2 Bft)
18.09.2019 06:49 9,2 °C 83 % 1019,6 hPa 0,0 mm 2,6 km/h (1 Bft) O-NO 69 ° 0 min 0,000 mm 0,0 UV-I 0 W/m² 6,5 °C 9,2 °C 6,4 km/h (2 Bft)
18.09.2019 06:50 9,1 °C 83 % 1019,6 hPa 0,0 mm 0,6 km/h (0 Bft) O-NO 69 ° 0 min 0,000 mm 0,0 UV-I 0 W/m² 6,4 °C 9,1 °C 3,2 km/h (1 Bft)
18.09.2019 06:51 9,2 °C 84 % 1019,6 hPa 0,0 mm 0,1 km/h (0 Bft) O-NO 69 ° 0 min 0,000 mm 0,0 UV-I 0 W/m² 6,6 °C 9,2 °C 1,6 km/h (1 Bft)
18.09.2019 06:52 9,1 °C 84 % 1019,5 hPa 0,0 mm 0,7 km/h (0 Bft) O-NO 69 ° 0 min 0,000 mm 0,0 UV-I 0 W/m² 6,5 °C 9,1 °C 1,6 km/h (1 Bft)
18.09.2019 06:53 9,1 °C 84 % 1019,6 hPa 0,0 mm 2,5 km/h (1 Bft) NO 51 ° 0 min 0,000 mm 0,0 UV-I 0 W/m² 6,5 °C 9,1 °C 4,8 km/h (1 Bft)
18.09.2019 06:54 9,1 °C 84 % 1019,6 hPa 0,0 mm 3,6 km/h (1 Bft) NO 53 ° 0 min 0,000 mm 0,0 UV-I 0 W/m² 6,5 °C 9,1 °C 6,4 km/h (2 Bft)
18.09.2019 06:55 9,1 °C 84 % 1019,6 hPa 0,0 mm 2,9 km/h (1 Bft) NO 53 ° 0 min 0,000 mm 0,0 UV-I 0 W/m² 6,5 °C 9,1 °C 3,2 km/h (1 Bft)
18.09.2019 06:56 9,2 °C 83 % 1019,6 hPa 0,0 mm 0,1 km/h (0 Bft) NO 55 ° 0 min 0,000 mm 0,0 UV-I 0 W/m² 6,5 °C 9,2 °C 1,6 km/h (1 Bft)
18.09.2019 06:57 9,1 °C 83 % 1019,6 hPa 0,0 mm 2,7 km/h (1 Bft) NO 55 ° 0 min 0,000 mm 0,0 UV-I 0 W/m² 6,4 °C 9,1 °C 4,8 km/h (1 Bft)
18.09.2019 06:58 9,1 °C 83 % 1019,6 hPa 0,0 mm 3,0 km/h (1 Bft) O-NO 59 ° 0 min 0,000 mm 0,0 UV-I 0 W/m² 6,4 °C 9,1 °C 6,4 km/h (2 Bft)
18.09.2019 06:59 9,1 °C 83 % 1019,6 hPa 0,0 mm 5,4 km/h (1 Bft) O 80 ° 0 min 0,000 mm 0,0 UV-I 0 W/m² 6,4 °C 8,6 °C 6,4 km/h (2 Bft)
18.09.2019 07:00 9,1 °C 84 % 1019,6 hPa 0,0 mm 4,6 km/h (1 Bft) O-NO 74 ° 0 min 0,000 mm 0,0 UV-I 0 W/m² 6,5 °C 8,9 °C 6,4 km/h (2 Bft)
18.09.2019 07:01 9,1 °C 84 % 1019,6 hPa 0,0 mm 4,2 km/h (1 Bft) O-NO 74 ° 0 min 0,000 mm 0,0 UV-I 0 W/m² 6,5 °C 9,1 °C 4,8 km/h (1 Bft)
18.09.2019 07:02 9,1 °C 84 % 1019,6 hPa 0,0 mm 0,4 km/h (0 Bft) O-NO 74 ° 0 min 0,000 mm 0,0 UV-I 0 W/m² 6,5 °C 9,1 °C 3,2 km/h (1 Bft)
18.09.2019 07:03 9,1 °C 84 % 1019,6 hPa 0,0 mm 0,2 km/h (0 Bft) O-NO 74 ° 0 min 0,000 mm 0,0 UV-I 0 W/m² 6,5 °C 9,1 °C 1,6 km/h (1 Bft)
18.09.2019 07:04 9,1 °C 84 % 1019,5 hPa 0,0 mm 1,1 km/h (1 Bft) O 80 ° 0 min 0,000 mm 0,0 UV-I 0 W/m² 6,5 °C 9,1 °C 4,8 km/h (1 Bft)
18.09.2019 07:05 9,1 °C 84 % 1019,5 hPa 0,0 mm 2,5 km/h (1 Bft) O-NO 71 ° 0 min 0,000 mm 0,0 UV-I 0 W/m² 6,5 °C 9,1 °C 4,8 km/h (1 Bft)
18.09.2019 07:06 9,0 °C 84 % 1019,5 hPa 0,0 mm 1,3 km/h (1 Bft) O-NO 71 ° 0 min 0,000 mm 0,0 UV-I 0 W/m² 6,4 °C 9,0 °C 4,8 km/h (1 Bft)
18.09.2019 07:07 9,0 °C 84 % 1019,5 hPa 0,0 mm 5,2 km/h (1 Bft) O-NO 65 ° 0 min 0,000 mm 0,0 UV-I 0 W/m² 6,4 °C 8,6 °C 8,0 km/h (2 Bft)
18.09.2019 07:08 9,0 °C 84 % 1019,5 hPa 0,0 mm 3,8 km/h (1 Bft) O-NO 71 ° 0 min 0,000 mm 0,0 UV-I 5 W/m² 6,4 °C 9,0 °C 4,8 km/h (1 Bft)
18.09.2019 07:09 9,0 °C 85 % 1019,5 hPa 0,0 mm 2,1 km/h (1 Bft) O-NO 71 ° 0 min 0,000 mm 0,0 UV-I 7 W/m² 6,6 °C 9,0 °C 4,8 km/h (1 Bft)
18.09.2019 07:10 9,0 °C 85 % 1019,5 hPa 0,0 mm 4,0 km/h (1 Bft) O-NO 74 ° 0 min 0,000 mm 0,0 UV-I 7 W/m² 6,6 °C 9,0 °C 4,8 km/h (1 Bft)
18.09.2019 07:11 9,0 °C 85 % 1019,5 hPa 0,0 mm 3,2 km/h (1 Bft) O-NO 74 ° 0 min 0,000 mm 0,0 UV-I 7 W/m² 6,6 °C 9,0 °C 4,8 km/h (1 Bft)
18.09.2019 07:12 9,0 °C 85 % 1019,5 hPa 0,0 mm 3,1 km/h (1 Bft) O-NO 67 ° 0 min 0,000 mm 0,0 UV-I 7 W/m² 6,6 °C 9,0 °C 4,8 km/h (1 Bft)
18.09.2019 07:13 9,0 °C 85 % 1019,6 hPa 0,0 mm 4,4 km/h (1 Bft) NO 44 ° 0 min 0,000 mm 0,0 UV-I 7 W/m² 6,6 °C 9,0 °C 8,0 km/h (2 Bft)
18.09.2019 07:14 9,0 °C 85 % 1019,5 hPa 0,0 mm 3,5 km/h (1 Bft) NO 44 ° 0 min 0,000 mm 0,0 UV-I 7 W/m² 6,6 °C 9,0 °C 4,8 km/h (1 Bft)
18.09.2019 07:15 9,1 °C 85 % 1019,5 hPa 0,0 mm 2,5 km/h (1 Bft) NO 44 ° 0 min 0,000 mm 0,0 UV-I 7 W/m² 6,7 °C 9,1 °C 3,2 km/h (1 Bft)
18.09.2019 07:16 9,1 °C 85 % 1019,6 hPa 0,0 mm 3,3 km/h (1 Bft) NO 44 ° 0 min 0,000 mm 0,0 UV-I 7 W/m² 6,7 °C 9,1 °C 4,8 km/h (1 Bft)
18.09.2019 07:17 9,1 °C 85 % 1019,5 hPa 0,0 mm 2,3 km/h (1 Bft) O 95 ° 0 min 0,000 mm 0,0 UV-I 5 W/m² 6,7 °C 9,1 °C 6,4 km/h (2 Bft)
18.09.2019 07:18 9,0 °C 84 % 1019,5 hPa 0,0 mm 3,8 km/h (1 Bft) O-NO 72 ° 0 min 0,000 mm 0,0 UV-I 5 W/m² 6,4 °C 9,0 °C 4,8 km/h (1 Bft)
18.09.2019 07:19 9,0 °C 85 % 1019,6 hPa 0,0 mm 1,3 km/h (1 Bft) O-NO 72 ° 0 min 0,000 mm 0,0 UV-I 5 W/m² 6,6 °C 9,0 °C 3,2 km/h (1 Bft)
18.09.2019 07:20 9,0 °C 85 % 1019,6 hPa 0,0 mm 3,2 km/h (1 Bft) O-NO 78 ° 0 min 0,000 mm 0,0 UV-I 5 W/m² 6,6 °C 9,0 °C 4,8 km/h (1 Bft)
18.09.2019 07:21 9,0 °C 85 % 1019,6 hPa 0,0 mm 2,7 km/h (1 Bft) O-NO 60 ° 0 min 0,000 mm 0,0 UV-I 5 W/m² 6,6 °C 9,0 °C 4,8 km/h (1 Bft)
18.09.2019 07:22 9,0 °C 84 % 1019,6 hPa 0,0 mm 3,5 km/h (1 Bft) O 79 ° 0 min 0,000 mm 0,0 UV-I 5 W/m² 6,4 °C 9,0 °C 4,8 km/h (1 Bft)
18.09.2019 07:23 9,0 °C 84 % 1019,7 hPa 0,0 mm 1,4 km/h (1 Bft) O-SO 116 ° 0 min 0,000 mm 0,0 UV-I 5 W/m² 6,4 °C 9,0 °C 4,8 km/h (1 Bft)
18.09.2019 07:24 8,9 °C 84 % 1019,7 hPa 0,0 mm 1,4 km/h (1 Bft) O-SO 116 ° 0 min 0,000 mm 0,0 UV-I 5 W/m² 6,3 °C 8,9 °C 3,2 km/h (1 Bft)
18.09.2019 07:25 8,9 °C 84 % 1019,7 hPa 0,0 mm 0,2 km/h (0 Bft) O-SO 116 ° 0 min 0,000 mm 0,0 UV-I 7 W/m² 6,3 °C 8,9 °C 1,6 km/h (1 Bft)
18.09.2019 07:26 8,9 °C 84 % 1019,7 hPa 0,0 mm 1,4 km/h (1 Bft) O-SO 116 ° 0 min 0,000 mm 0,0 UV-I 9 W/m² 6,3 °C 8,9 °C 3,2 km/h (1 Bft)
18.09.2019 07:27 8,9 °C 84 % 1019,7 hPa 0,0 mm 4,7 km/h (1 Bft) SO 129 ° 0 min 0,000 mm 0,0 UV-I 9 W/m² 6,3 °C 8,6 °C 6,4 km/h (2 Bft)
18.09.2019 07:28 8,8 °C 84 % 1019,7 hPa 0,0 mm 3,1 km/h (1 Bft) O-SO 119 ° 0 min 0,000 mm 0,0 UV-I 9 W/m² 6,2 °C 8,8 °C 6,4 km/h (2 Bft)
18.09.2019 07:29 8,9 °C 84 % 1019,7 hPa 0,0 mm 3,1 km/h (1 Bft) O-NO 65 ° 0 min 0,000 mm 0,0 UV-I 9 W/m² 6,3 °C 8,9 °C 4,8 km/h (1 Bft)
18.09.2019 07:30 8,9 °C 84 % 1019,6 hPa 0,0 mm 4,5 km/h (1 Bft) O-NO 74 ° 0 min 0,000 mm 0,0 UV-I 9 W/m² 6,3 °C 8,9 °C 6,4 km/h (2 Bft)
18.09.2019 07:31 8,9 °C 84 % 1019,7 hPa 0,0 mm 3,4 km/h (1 Bft) O-NO 59 ° 0 min 0,000 mm 0,0 UV-I 11 W/m² 6,3 °C 8,9 °C 6,4 km/h (2 Bft)
18.09.2019 07:32 8,9 °C 84 % 1019,7 hPa 0,0 mm 0,3 km/h (0 Bft) O-NO 59 ° 0 min 0,000 mm 0,0 UV-I 11 W/m² 6,3 °C 8,9 °C 1,6 km/h (1 Bft)
18.09.2019 07:33 8,8 °C 84 % 1019,7 hPa 0,0 mm 1,0 km/h (0 Bft) O-NO 61 ° 0 min 0,000 mm 0,0 UV-I 11 W/m² 6,2 °C 8,8 °C 3,2 km/h (1 Bft)
18.09.2019 07:34 8,8 °C 84 % 1019,7 hPa 0,0 mm 2,7 km/h (1 Bft) NO 46 ° 0 min 0,000 mm 0,0 UV-I 11 W/m² 6,2 °C 8,8 °C 6,4 km/h (2 Bft)
18.09.2019 07:35 8,8 °C 84 % 1019,7 hPa 0,0 mm 2,6 km/h (1 Bft) O-NO 75 ° 0 min 0,000 mm 0,0 UV-I 12 W/m² 6,2 °C 8,8 °C 4,8 km/h (1 Bft)
18.09.2019 07:36 8,8 °C 84 % 1019,7 hPa 0,0 mm 2,9 km/h (1 Bft) O-NO 75 ° 0 min 0,000 mm 0,0 UV-I 12 W/m² 6,2 °C 8,8 °C 4,8 km/h (1 Bft)
18.09.2019 07:37 8,8 °C 84 % 1019,7 hPa 0,0 mm 3,1 km/h (1 Bft) O 96 ° 0 min 0,000 mm 0,0 UV-I 14 W/m² 6,2 °C 8,8 °C 4,8 km/h (1 Bft)
18.09.2019 07:38 8,8 °C 85 % 1019,7 hPa 0,0 mm 3,5 km/h (1 Bft) O 89 ° 0 min 0,000 mm 0,0 UV-I 14 W/m² 6,4 °C 8,8 °C 4,8 km/h (1 Bft)
18.09.2019 07:39 8,8 °C 84 % 1019,7 hPa 0,0 mm 0,1 km/h (0 Bft) O 88 ° 0 min 0,000 mm 0,0 UV-I 14 W/m² 6,2 °C 8,8 °C 1,6 km/h (1 Bft)
18.09.2019 07:40 8,8 °C 84 % 1019,7 hPa 0,0 mm 0,0 km/h (0 Bft) O 81 ° 0 min 0,000 mm 0,0 UV-I 14 W/m² 6,2 °C 8,8 °C 0,0 km/h (0 Bft)
18.09.2019 07:41 8,8 °C 84 % 1019,7 hPa 0,0 mm 0,1 km/h (0 Bft) O 83 ° 0 min 0,000 mm 0,0 UV-I 14 W/m² 6,2 °C 8,8 °C 3,2 km/h (1 Bft)
18.09.2019 07:42 8,8 °C 84 % 1019,7 hPa 0,0 mm 2,7 km/h (1 Bft) O-NO 70 ° 0 min 0,000 mm 0,0 UV-I 14 W/m² 6,2 °C 8,8 °C 6,4 km/h (2 Bft)
18.09.2019 07:43 8,8 °C 84 % 1019,7 hPa 0,0 mm 3,9 km/h (1 Bft) NO 38 ° 0 min 0,000 mm 0,0 UV-I 16 W/m² 6,2 °C 8,8 °C 6,4 km/h (2 Bft)
18.09.2019 07:44 8,8 °C 84 % 1019,7 hPa 0,0 mm 3,6 km/h (1 Bft) NO 47 ° 0 min 0,000 mm 0,0 UV-I 16 W/m² 6,2 °C 8,8 °C 6,4 km/h (2 Bft)
18.09.2019 07:45 8,8 °C 84 % 1019,7 hPa 0,0 mm 2,1 km/h (1 Bft) O 90 ° 0 min 0,000 mm 0,0 UV-I 16 W/m² 6,2 °C 8,8 °C 4,8 km/h (1 Bft)
18.09.2019 07:46 8,9 °C 84 % 1019,7 hPa 0,0 mm 4,2 km/h (1 Bft) O 82 ° 0 min 0,000 mm 0,0 UV-I 16 W/m² 6,3 °C 8,9 °C 4,8 km/h (1 Bft)
18.09.2019 07:47 8,8 °C 84 % 1019,8 hPa 0,0 mm 2,7 km/h (1 Bft) O 85 ° 0 min 0,000 mm 0,0 UV-I 16 W/m² 6,2 °C 8,8 °C 4,8 km/h (1 Bft)
18.09.2019 07:48 8,9 °C 84 % 1019,8 hPa 0,0 mm 3,6 km/h (1 Bft) O-NO 78 ° 0 min 0,000 mm 0,0 UV-I 16 W/m² 6,3 °C 8,9 °C 6,4 km/h (2 Bft)
18.09.2019 07:49 8,8 °C 84 % 1019,8 hPa 0,0 mm 3,8 km/h (1 Bft) O-NO 66 ° 0 min 0,000 mm 0,0 UV-I 16 W/m² 6,2 °C 8,8 °C 6,4 km/h (2 Bft)
18.09.2019 07:50 8,8 °C 84 % 1019,8 hPa 0,0 mm 4,4 km/h (1 Bft) NO 42 ° 0 min 0,000 mm 0,0 UV-I 16 W/m² 6,2 °C 8,8 °C 6,4 km/h (2 Bft)
18.09.2019 07:51 8,8 °C 84 % 1019,8 hPa 0,0 mm 4,4 km/h (1 Bft) O-NO 63 ° 0 min 0,000 mm 0,0 UV-I 18 W/m² 6,2 °C 8,8 °C 8,0 km/h (2 Bft)
18.09.2019 07:52 8,8 °C 84 % 1019,8 hPa 0,0 mm 1,3 km/h (1 Bft) O-NO 63 ° 0 min 0,000 mm 0,0 UV-I 18 W/m² 6,2 °C 8,8 °C 3,2 km/h (1 Bft)
18.09.2019 07:53 8,8 °C 84 % 1019,8 hPa 0,0 mm 0,7 km/h (0 Bft) O-NO 63 ° 0 min 0,000 mm 0,0 UV-I 19 W/m² 6,2 °C 8,8 °C 3,2 km/h (1 Bft)
18.09.2019 07:54 8,8 °C 84 % 1019,8 hPa 0,0 mm 4,3 km/h (1 Bft) O-NO 69 ° 0 min 0,000 mm 0,0 UV-I 21 W/m² 6,2 °C 8,8 °C 9,7 km/h (2 Bft)
18.09.2019 07:55 8,8 °C 84 % 1019,7 hPa 0,0 mm 4,4 km/h (1 Bft) O 79 ° 0 min 0,000 mm 0,0 UV-I 23 W/m² 6,2 °C 8,8 °C 8,0 km/h (2 Bft)
18.09.2019 07:56 8,8 °C 85 % 1019,7 hPa 0,0 mm 1,7 km/h (1 Bft) O-NO 73 ° 0 min 0,000 mm 0,0 UV-I 23 W/m² 6,4 °C 8,8 °C 4,8 km/h (1 Bft)
18.09.2019 07:57 8,8 °C 85 % 1019,7 hPa 0,0 mm 0,2 km/h (0 Bft) O-NO 73 ° 0 min 0,000 mm 0,0 UV-I 23 W/m² 6,4 °C 8,8 °C 1,6 km/h (1 Bft)
18.09.2019 07:58 8,8 °C 84 % 1019,6 hPa 0,0 mm 1,4 km/h (1 Bft) O-NO 73 ° 0 min 0,000 mm 0,0 UV-I 23 W/m² 6,2 °C 8,8 °C 3,2 km/h (1 Bft)
18.09.2019 07:59 8,8 °C 84 % 1019,7 hPa 0,0 mm 0,0 km/h (0 Bft) O-NO 73 ° 0 min 0,000 mm 0,0 UV-I 23 W/m² 6,2 °C 8,8 °C 0,0 km/h (0 Bft)
18.09.2019 08:00 8,8 °C 85 % 1019,6 hPa 0,0 mm 2,2 km/h (1 Bft) O-NO 73 ° 0 min 0,000 mm 0,0 UV-I 23 W/m² 6,4 °C 8,8 °C 3,2 km/h (1 Bft)
18.09.2019 08:01 8,8 °C 85 % 1019,7 hPa 0,0 mm 3,8 km/h (1 Bft) O-NO 72 ° 0 min 0,000 mm 0,0 UV-I 26 W/m² 6,4 °C 8,8 °C 4,8 km/h (1 Bft)
18.09.2019 08:02 8,8 °C 85 % 1019,6 hPa 0,0 mm 4,3 km/h (1 Bft) O-NO 73 ° 0 min 0,000 mm 0,0 UV-I 26 W/m² 6,4 °C 8,8 °C 4,8 km/h (1 Bft)
18.09.2019 08:03 8,8 °C 85 % 1019,6 hPa 0,0 mm 3,3 km/h (1 Bft) O-NO 67 ° 0 min 0,000 mm 0,0 UV-I 26 W/m² 6,4 °C 8,8 °C 4,8 km/h (1 Bft)
18.09.2019 08:04 8,8 °C 85 % 1019,7 hPa 0,0 mm 5,4 km/h (1 Bft) O-NO 65 ° 0 min 0,000 mm 0,0 UV-I 26 W/m² 6,4 °C 8,3 °C 8,0 km/h (2 Bft)
18.09.2019 08:05 8,8 °C 85 % 1019,7 hPa 0,0 mm 4,0 km/h (1 Bft) O-NO 72 ° 0 min 0,000 mm 0,0 UV-I 28 W/m² 6,4 °C 8,8 °C 4,8 km/h (1 Bft)
18.09.2019 08:06 8,8 °C 85 % 1019,7 hPa 0,0 mm 5,6 km/h (1 Bft) O-NO 76 ° 0 min 0,000 mm 0,0 UV-I 28 W/m² 6,4 °C 8,2 °C 8,0 km/h (2 Bft)
18.09.2019 08:07 8,8 °C 85 % 1019,6 hPa 0,0 mm 2,0 km/h (1 Bft) O 87 ° 0 min 0,000 mm 0,0 UV-I 32 W/m² 6,4 °C 8,8 °C 4,8 km/h (1 Bft)
18.09.2019 08:08 8,8 °C 85 % 1019,6 hPa 0,0 mm 2,9 km/h (1 Bft) O 86 ° 0 min 0,000 mm 0,0 UV-I 33 W/m² 6,4 °C 8,8 °C 4,8 km/h (1 Bft)
18.09.2019 08:09 8,8 °C 85 % 1019,6 hPa 0,0 mm 3,5 km/h (1 Bft) O-SO 106 ° 0 min 0,000 mm 0,0 UV-I 35 W/m² 6,4 °C 8,8 °C 4,8 km/h (1 Bft)
18.09.2019 08:10 8,8 °C 85 % 1019,6 hPa 0,0 mm 4,0 km/h (1 Bft) O 87 ° 0 min 0,000 mm 0,0 UV-I 35 W/m² 6,4 °C 8,8 °C 4,8 km/h (1 Bft)
18.09.2019 08:11 8,8 °C 85 % 1019,6 hPa 0,0 mm 5,2 km/h (1 Bft) O-NO 66 ° 0 min 0,000 mm 0,0 UV-I 35 W/m² 6,4 °C 8,3 °C 6,4 km/h (2 Bft)
18.09.2019 08:12 8,8 °C 85 % 1019,6 hPa 0,0 mm 2,6 km/h (1 Bft) O-NO 65 ° 0 min 0,000 mm 0,0 UV-I 35 W/m² 6,4 °C 8,8 °C 6,4 km/h (2 Bft)
18.09.2019 08:13 8,8 °C 85 % 1019,7 hPa 0,0 mm 3,7 km/h (1 Bft) O-NO 67 ° 0 min 0,000 mm 0,0 UV-I 37 W/m² 6,4 °C 8,8 °C 6,4 km/h (2 Bft)
18.09.2019 08:14 8,8 °C 85 % 1019,7 hPa 0,0 mm 5,8 km/h (2 Bft) O-NO 67 ° 0 min 0,000 mm 0,0 UV-I 39 W/m² 6,4 °C 8,1 °C 9,7 km/h (2 Bft)
18.09.2019 08:15 8,8 °C 85 % 1019,6 hPa 0,0 mm 6,2 km/h (2 Bft) O-NO 67 ° 0 min 0,000 mm 0,0 UV-I 40 W/m² 6,4 °C 8,0 °C 8,0 km/h (2 Bft)
18.09.2019 08:16 8,8 °C 85 % 1019,7 hPa 0,0 mm 4,4 km/h (1 Bft) O-NO 73 ° 0 min 0,000 mm 0,0 UV-I 44 W/m² 6,4 °C 8,8 °C 6,4 km/h (2 Bft)
18.09.2019 08:17 8,8 °C 85 % 1019,7 hPa 0,0 mm 5,5 km/h (1 Bft) O 80 ° 0 min 0,000 mm 0,0 UV-I 46 W/m² 6,4 °C 8,2 °C 8,0 km/h (2 Bft)
18.09.2019 08:18 8,8 °C 85 % 1019,7 hPa 0,0 mm 3,3 km/h (1 Bft) O-NO 64 ° 0 min 0,000 mm 0,0 UV-I 49 W/m² 6,4 °C 8,8 °C 8,0 km/h (2 Bft)
18.09.2019 08:19 8,8 °C 85 % 1019,7 hPa 0,0 mm 2,0 km/h (1 Bft) O-NO 65 ° 0 min 0,000 mm 0,0 UV-I 51 W/m² 6,4 °C 8,8 °C 4,8 km/h (1 Bft)
18.09.2019 08:20 8,8 °C 85 % 1019,7 hPa 0,0 mm 2,4 km/h (1 Bft) O-NO 65 ° 0 min 0,000 mm 0,0 UV-I 53 W/m² 6,4 °C 8,8 °C 4,8 km/h (1 Bft)
18.09.2019 08:21 8,8 °C 85 % 1019,7 hPa 0,0 mm 6,6 km/h (2 Bft) NO 45 ° 0 min 0,000 mm 0,0 UV-I 54 W/m² 6,4 °C 7,9 °C 8,0 km/h (2 Bft)
18.09.2019 08:22 8,8 °C 85 % 1019,7 hPa 0,0 mm 3,0 km/h (1 Bft) NO 45 ° 0 min 0,000 mm 0,0 UV-I 56 W/m² 6,4 °C 8,8 °C 4,8 km/h (1 Bft)
18.09.2019 08:23 8,8 °C 85 % 1019,7 hPa 0,0 mm 1,7 km/h (1 Bft) O 84 ° 0 min 0,000 mm 0,0 UV-I 60 W/m² 6,4 °C 8,8 °C 4,8 km/h (1 Bft)
18.09.2019 08:24 8,8 °C 86 % 1019,7 hPa 0,0 mm 2,8 km/h (1 Bft) O 86 ° 0 min 0,000 mm 0,0 UV-I 63 W/m² 6,6 °C 8,8 °C 4,8 km/h (1 Bft)
18.09.2019 08:25 8,9 °C 86 % 1019,7 hPa 0,0 mm 1,4 km/h (1 Bft) NO 44 ° 0 min 0,000 mm 0,0 UV-I 63 W/m² 6,7 °C 8,9 °C 6,4 km/h (2 Bft)
18.09.2019 08:26 8,9 °C 86 % 1019,7 hPa 0,0 mm 4,0 km/h (1 Bft) NO 40 ° 0 min 0,000 mm 0,0 UV-I 63 W/m² 6,7 °C 8,9 °C 6,4 km/h (2 Bft)
18.09.2019 08:27 8,9 °C 86 % 1019,7 hPa 0,0 mm 2,4 km/h (1 Bft) NO 40 ° 0 min 0,000 mm 0,0 UV-I 63 W/m² 6,7 °C 8,9 °C 3,2 km/h (1 Bft)
18.09.2019 08:28 8,9 °C 85 % 1019,8 hPa 0,0 mm 1,7 km/h (1 Bft) NO 40 ° 0 min 0,000 mm 0,0 UV-I 63 W/m² 6,5 °C 8,9 °C 3,2 km/h (1 Bft)
18.09.2019 08:29 8,9 °C 85 % 1019,8 hPa 0,0 mm 3,6 km/h (1 Bft) O-NO 65 ° 0 min 0,000 mm 0,0 UV-I 60 W/m² 6,5 °C 8,9 °C 4,8 km/h (1 Bft)
18.09.2019 08:30 8,9 °C 85 % 1019,8 hPa 0,0 mm 7,2 km/h (2 Bft) NO 51 ° 0 min 0,000 mm 0,0 UV-I 60 W/m² 6,5 °C 7,9 °C 11,3 km/h (2 Bft)
18.09.2019 08:31 8,9 °C 85 % 1019,8 hPa 0,0 mm 4,6 km/h (1 Bft) NO 38 ° 0 min 0,000 mm 0,0 UV-I 58 W/m² 6,5 °C 8,6 °C 8,0 km/h (2 Bft)
18.09.2019 08:32 9,0 °C 85 % 1019,8 hPa 0,0 mm 3,8 km/h (1 Bft) NO 44 ° 0 min 0,000 mm 0,0 UV-I 58 W/m² 6,6 °C 9,0 °C 4,8 km/h (1 Bft)
18.09.2019 08:33 8,9 °C 85 % 1019,8 hPa 0,0 mm 3,7 km/h (1 Bft) NO 44 ° 0 min 0,000 mm 0,0 UV-I 58 W/m² 6,5 °C 8,9 °C 4,8 km/h (1 Bft)
18.09.2019 08:34 9,0 °C 85 % 1019,8 hPa 0,0 mm 4,1 km/h (1 Bft) O-NO 61 ° 0 min 0,000 mm 0,0 UV-I 58 W/m² 6,6 °C 9,0 °C 6,4 km/h (2 Bft)
18.09.2019 08:35 9,0 °C 85 % 1019,8 hPa 0,0 mm 6,8 km/h (2 Bft) O-NO 76 ° 0 min 0,000 mm 0,0 UV-I 60 W/m² 6,6 °C 8,1 °C 11,3 km/h (2 Bft)
18.09.2019 08:36 8,9 °C 85 % 1019,8 hPa 0,0 mm 4,8 km/h (1 Bft) NO 44 ° 0 min 0,000 mm 0,0 UV-I 63 W/m² 6,5 °C 8,6 °C 9,7 km/h (2 Bft)
18.09.2019 08:37 9,0 °C 85 % 1019,8 hPa 0,0 mm 6,9 km/h (2 Bft) O-NO 76 ° 0 min 0,000 mm 0,0 UV-I 65 W/m² 6,6 °C 8,1 °C 11,3 km/h (2 Bft)
18.09.2019 08:38 8,9 °C 85 % 1019,8 hPa 0,0 mm 5,0 km/h (1 Bft) O-NO 63 ° 0 min 0,000 mm 0,5 UV-I 67 W/m² 6,5 °C 8,5 °C 11,3 km/h (2 Bft)
18.09.2019 08:39 8,9 °C 85 % 1019,8 hPa 0,0 mm 5,2 km/h (1 Bft) O-NO 69 ° 0 min 0,000 mm 0,5 UV-I 69 W/m² 6,5 °C 8,4 °C 8,0 km/h (2 Bft)
18.09.2019 08:40 8,9 °C 85 % 1019,8 hPa 0,0 mm 5,0 km/h (1 Bft) NO 38 ° 0 min 0,000 mm 0,5 UV-I 70 W/m² 6,5 °C 8,5 °C 6,4 km/h (2 Bft)
18.09.2019 08:41 8,9 °C 85 % 1019,8 hPa 0,0 mm 4,1 km/h (1 Bft) NO 44 ° 0 min 0,000 mm 0,5 UV-I 76 W/m² 6,5 °C 8,9 °C 6,4 km/h (2 Bft)
18.09.2019 08:42 9,0 °C 85 % 1019,8 hPa 0,0 mm 5,8 km/h (2 Bft) NO 50 ° 0 min 0,000 mm 0,5 UV-I 76 W/m² 6,6 °C 8,4 °C 8,0 km/h (2 Bft)
18.09.2019 08:43 9,0 °C 85 % 1019,8 hPa 0,0 mm 7,4 km/h (2 Bft) N-NO 30 ° 0 min 0,000 mm 0,5 UV-I 76 W/m² 6,6 °C 8,0 °C 9,7 km/h (2 Bft)
18.09.2019 08:44 9,0 °C 85 % 1019,9 hPa 0,0 mm 4,4 km/h (1 Bft) NO 55 ° 0 min 0,000 mm 0,5 UV-I 76 W/m² 6,6 °C 9,0 °C 6,4 km/h (2 Bft)
18.09.2019 08:45 9,0 °C 85 % 1019,8 hPa 0,0 mm 2,9 km/h (1 Bft) NO 54 ° 0 min 0,000 mm 0,5 UV-I 76 W/m² 6,6 °C 9,0 °C 4,8 km/h (1 Bft)
18.09.2019 08:46 9,0 °C 85 % 1019,8 hPa 0,0 mm 4,6 km/h (1 Bft) NO 49 ° 0 min 0,000 mm 0,5 UV-I 76 W/m² 6,6 °C 8,8 °C 8,0 km/h (2 Bft)
18.09.2019 08:47 9,1 °C 85 % 1019,9 hPa 0,0 mm 5,8 km/h (2 Bft) O-NO 69 ° 0 min 0,000 mm 0,5 UV-I 76 W/m² 6,7 °C 8,5 °C 8,0 km/h (2 Bft)
18.09.2019 08:48 9,0 °C 85 % 1019,9 hPa 0,0 mm 5,6 km/h (1 Bft) NO 44 ° 0 min 0,000 mm 0,6 UV-I 74 W/m² 6,6 °C 8,4 °C 11,3 km/h (2 Bft)
18.09.2019 08:49 9,1 °C 85 % 1019,9 hPa 0,0 mm 5,8 km/h (2 Bft) O-NO 62 ° 0 min 0,000 mm 0,6 UV-I 72 W/m² 6,7 °C 8,5 °C 12,9 km/h (3 Bft)
18.09.2019 08:50 9,0 °C 85 % 1019,9 hPa 0,0 mm 4,6 km/h (1 Bft) O-NO 67 ° 0 min 0,000 mm 0,5 UV-I 69 W/m² 6,6 °C 8,8 °C 6,4 km/h (2 Bft)
18.09.2019 08:51 9,0 °C 85 % 1019,9 hPa 0,0 mm 7,8 km/h (2 Bft) NO 55 ° 0 min 0,000 mm 0,5 UV-I 69 W/m² 6,6 °C 7,9 °C 11,3 km/h (2 Bft)
18.09.2019 08:52 9,0 °C 85 % 1019,9 hPa 0,0 mm 5,2 km/h (1 Bft) O-NO 73 ° 0 min 0,000 mm 0,5 UV-I 67 W/m² 6,6 °C 8,6 °C 9,7 km/h (2 Bft)
18.09.2019 08:53 9,0 °C 85 % 1019,9 hPa 0,0 mm 2,2 km/h (1 Bft) O-NO 71 ° 0 min 0,000 mm 0,5 UV-I 67 W/m² 6,6 °C 9,0 °C 4,8 km/h (1 Bft)
18.09.2019 08:54 9,0 °C 85 % 1019,9 hPa 0,0 mm 5,3 km/h (1 Bft) NO 54 ° 0 min 0,000 mm 0,5 UV-I 69 W/m² 6,6 °C 8,5 °C 8,0 km/h (2 Bft)
18.09.2019 08:55 8,9 °C 85 % 1020,0 hPa 0,0 mm 5,6 km/h (1 Bft) NO 38 ° 0 min 0,000 mm 0,6 UV-I 69 W/m² 6,5 °C 8,3 °C 9,7 km/h (2 Bft)
18.09.2019 08:56 8,9 °C 85 % 1020,0 hPa 0,0 mm 4,0 km/h (1 Bft) N-NO 26 ° 0 min 0,000 mm 0,6 UV-I 70 W/m² 6,5 °C 8,9 °C 9,7 km/h (2 Bft)
18.09.2019 08:57 8,9 °C 85 % 1019,9 hPa 0,0 mm 3,1 km/h (1 Bft) NO 43 ° 0 min 0,000 mm 0,6 UV-I 74 W/m² 6,5 °C 8,9 °C 4,8 km/h (1 Bft)
18.09.2019 08:58 9,0 °C 86 % 1019,9 hPa 0,0 mm 7,3 km/h (2 Bft) NO 46 ° 0 min 0,000 mm 0,6 UV-I 77 W/m² 6,8 °C 8,0 °C 9,7 km/h (2 Bft)
18.09.2019 08:59 9,1 °C 86 % 1019,9 hPa 0,0 mm 9,2 km/h (2 Bft) NO 34 ° 0 min 0,000 mm 0,7 UV-I 86 W/m² 6,9 °C 7,7 °C 14,5 km/h (3 Bft)
18.09.2019 09:00 9,0 °C 85 % 1020,0 hPa 0,0 mm 10,1 km/h (2 Bft) NO 51 ° 0 min 0,000 mm 0,7 UV-I 90 W/m² 6,6 °C 7,4 °C 14,5 km/h (3 Bft)
18.09.2019 09:01 9,0 °C 85 % 1020,0 hPa 0,0 mm 6,6 km/h (2 Bft) O-NO 71 ° 0 min 0,026 mm 0,7 UV-I 93 W/m² 6,6 °C 8,2 °C 8,0 km/h (2 Bft)
18.09.2019 09:02 9,0 °C 85 % 1019,9 hPa 0,0 mm 6,5 km/h (2 Bft) NO 44 ° 0 min 0,000 mm 0,6 UV-I 95 W/m² 6,6 °C 8,2 °C 9,7 km/h (2 Bft)
18.09.2019 09:03 9,0 °C 85 % 1020,0 hPa 0,0 mm 8,0 km/h (2 Bft) NO 40 ° 0 min 0,000 mm 0,6 UV-I 91 W/m² 6,6 °C 7,8 °C 9,7 km/h (2 Bft)
18.09.2019 09:04 9,0 °C 85 % 1020,0 hPa 0,0 mm 7,4 km/h (2 Bft) NO 51 ° 0 min 0,000 mm 0,6 UV-I 91 W/m² 6,6 °C 8,0 °C 9,7 km/h (2 Bft)
18.09.2019 09:05 8,9 °C 85 % 1020,0 hPa 0,0 mm 6,7 km/h (2 Bft) O-NO 61 ° 0 min 0,000 mm 0,6 UV-I 84 W/m² 6,5 °C 8,0 °C 9,7 km/h (2 Bft)
18.09.2019 09:06 9,0 °C 85 % 1020,1 hPa 0,0 mm 6,3 km/h (2 Bft) NO 53 ° 0 min 0,000 mm 0,6 UV-I 83 W/m² 6,6 °C 8,2 °C 9,7 km/h (2 Bft)
18.09.2019 09:07 8,9 °C 85 % 1020,1 hPa 0,0 mm 9,0 km/h (2 Bft) O-SO 102 ° 0 min 0,000 mm 0,6 UV-I 81 W/m² 6,5 °C 7,5 °C 12,9 km/h (3 Bft)
18.09.2019 09:08 8,9 °C 85 % 1020,0 hPa 0,0 mm 6,7 km/h (2 Bft) NO 49 ° 0 min 0,000 mm 0,6 UV-I 81 W/m² 6,5 °C 8,0 °C 12,9 km/h (3 Bft)
18.09.2019 09:09 8,9 °C 85 % 1020,1 hPa 0,0 mm 5,8 km/h (2 Bft) O-NO 72 ° 0 min 0,000 mm 0,6 UV-I 83 W/m² 6,5 °C 8,3 °C 12,9 km/h (3 Bft)
18.09.2019 09:10 8,9 °C 85 % 1020,0 hPa 0,0 mm 8,0 km/h (2 Bft) O-NO 76 ° 0 min 0,000 mm 0,6 UV-I 86 W/m² 6,5 °C 7,7 °C 14,5 km/h (3 Bft)
18.09.2019 09:11 8,9 °C 85 % 1020,1 hPa 0,0 mm 8,1 km/h (2 Bft) O 84 ° 0 min 0,000 mm 0,6 UV-I 86 W/m² 6,5 °C 7,7 °C 12,9 km/h (3 Bft)
18.09.2019 09:12 8,9 °C 85 % 1020,1 hPa 0,0 mm 6,4 km/h (2 Bft) NO 42 ° 0 min 0,000 mm 0,6 UV-I 81 W/m² 6,5 °C 8,1 °C 11,3 km/h (2 Bft)
18.09.2019 09:13 8,9 °C 85 % 1020,1 hPa 0,0 mm 4,9 km/h (1 Bft) O-NO 61 ° 0 min 0,000 mm 0,5 UV-I 79 W/m² 6,5 °C 8,5 °C 8,0 km/h (2 Bft)
18.09.2019 09:14 8,9 °C 85 % 1020,1 hPa 0,0 mm 8,3 km/h (2 Bft) O-NO 61 ° 0 min 0,000 mm 0,6 UV-I 79 W/m² 6,5 °C 7,7 °C 16,1 km/h (3 Bft)
18.09.2019 09:15 8,9 °C 85 % 1020,1 hPa 0,0 mm 6,0 km/h (2 Bft) N-NO 26 ° 0 min 0,000 mm 0,6 UV-I 81 W/m² 6,5 °C 8,2 °C 11,3 km/h (2 Bft)
18.09.2019 09:16 8,9 °C 85 % 1020,1 hPa 0,0 mm 6,0 km/h (2 Bft) N-NO 32 ° 0 min 0,000 mm 0,6 UV-I 83 W/m² 6,5 °C 8,2 °C 9,7 km/h (2 Bft)
18.09.2019 09:17 8,9 °C 85 % 1020,1 hPa 0,0 mm 5,7 km/h (1 Bft) N 11 ° 0 min 0,000 mm 0,7 UV-I 90 W/m² 6,5 °C 8,3 °C 8,0 km/h (2 Bft)
18.09.2019 09:18 8,9 °C 85 % 1020,1 hPa 0,0 mm 4,1 km/h (1 Bft) O-NO 72 ° 0 min 0,000 mm 0,7 UV-I 93 W/m² 6,5 °C 8,9 °C 11,3 km/h (2 Bft)
18.09.2019 09:19 8,9 °C 85 % 1020,1 hPa 0,0 mm 5,2 km/h (1 Bft) N 10 ° 0 min 0,000 mm 0,7 UV-I 98 W/m² 6,5 °C 8,4 °C 8,0 km/h (2 Bft)
18.09.2019 09:20 8,9 °C 85 % 1020,1 hPa 0,0 mm 10,5 km/h (2 Bft) O 91 ° 0 min 0,000 mm 0,7 UV-I 104 W/m² 6,5 °C 7,2 °C 17,7 km/h (3 Bft)
18.09.2019 09:21 8,9 °C 85 % 1020,1 hPa 0,0 mm 7,9 km/h (2 Bft) NO 51 ° 0 min 0,000 mm 0,7 UV-I 105 W/m² 6,5 °C 7,7 °C 12,9 km/h (3 Bft)
18.09.2019 09:22 8,9 °C 85 % 1020,1 hPa 0,0 mm 5,4 km/h (1 Bft) O 99 ° 0 min 0,000 mm 0,7 UV-I 105 W/m² 6,5 °C 8,4 °C 11,3 km/h (2 Bft)
18.09.2019 09:23 8,9 °C 85 % 1020,2 hPa 0,0 mm 8,4 km/h (2 Bft) O-NO 59 ° 0 min 0,000 mm 0,7 UV-I 88 W/m² 6,5 °C 7,6 °C 12,9 km/h (3 Bft)
18.09.2019 09:24 8,9 °C 85 % 1020,1 hPa 0,0 mm 7,6 km/h (2 Bft) O 85 ° 0 min 0,000 mm 0,6 UV-I 81 W/m² 6,5 °C 7,8 °C 11,3 km/h (2 Bft)
18.09.2019 09:25 8,9 °C 85 % 1020,1 hPa 0,0 mm 5,5 km/h (1 Bft) O-SO 119 ° 0 min 0,000 mm 0,6 UV-I 79 W/m² 6,5 °C 8,4 °C 8,0 km/h (2 Bft)
18.09.2019 09:26 8,9 °C 85 % 1020,2 hPa 0,0 mm 3,9 km/h (1 Bft) O-SO 119 ° 0 min 0,000 mm 0,5 UV-I 79 W/m² 6,5 °C 8,9 °C 6,4 km/h (2 Bft)
18.09.2019 09:27 8,9 °C 85 % 1020,2 hPa 0,0 mm 5,3 km/h (1 Bft) O 95 ° 0 min 0,000 mm 0,6 UV-I 81 W/m² 6,5 °C 8,4 °C 8,0 km/h (2 Bft)
18.09.2019 09:28 8,9 °C 85 % 1020,3 hPa 0,0 mm 5,6 km/h (1 Bft) O-NO 61 ° 0 min 0,000 mm 0,6 UV-I 88 W/m² 6,5 °C 8,3 °C 8,0 km/h (2 Bft)
18.09.2019 09:29 8,9 °C 85 % 1020,3 hPa 0,0 mm 7,6 km/h (2 Bft) NO 46 ° 0 min 0,000 mm 0,6 UV-I 90 W/m² 6,5 °C 7,8 °C 16,1 km/h (3 Bft)
18.09.2019 09:30 8,9 °C 85 % 1020,2 hPa 0,0 mm 9,1 km/h (2 Bft) NO 41 ° 0 min 0,000 mm 0,7 UV-I 91 W/m² 6,5 °C 7,5 °C 14,5 km/h (3 Bft)
18.09.2019 09:31 8,9 °C 84 % 1020,3 hPa 0,0 mm 7,9 km/h (2 Bft) NO 45 ° 0 min 0,000 mm 0,6 UV-I 91 W/m² 6,3 °C 7,7 °C 12,9 km/h (3 Bft)
18.09.2019 09:32 8,9 °C 84 % 1020,3 hPa 0,0 mm 6,8 km/h (2 Bft) O-NO 58 ° 0 min 0,000 mm 0,6 UV-I 88 W/m² 6,3 °C 8,0 °C 14,5 km/h (3 Bft)
18.09.2019 09:33 8,9 °C 84 % 1020,3 hPa 0,0 mm 7,8 km/h (2 Bft) O 89 ° 0 min 0,000 mm 0,6 UV-I 84 W/m² 6,3 °C 7,8 °C 14,5 km/h (3 Bft)
18.09.2019 09:34 9,0 °C 84 % 1020,4 hPa 0,0 mm 8,4 km/h (2 Bft) NO 50 ° 0 min 0,000 mm 0,6 UV-I 77 W/m² 6,4 °C 7,7 °C 14,5 km/h (3 Bft)
18.09.2019 09:35 9,0 °C 83 % 1020,4 hPa 0,0 mm 4,3 km/h (1 Bft) NO 44 ° 0 min 0,000 mm 0,5 UV-I 76 W/m² 6,3 °C 9,0 °C 8,0 km/h (2 Bft)
18.09.2019 09:36 8,9 °C 84 % 1020,4 hPa 0,0 mm 2,0 km/h (1 Bft) O 98 ° 0 min 0,000 mm 0,5 UV-I 74 W/m² 6,3 °C 8,9 °C 4,8 km/h (1 Bft)
18.09.2019 09:37 9,0 °C 84 % 1020,4 hPa 0,0 mm 5,6 km/h (1 Bft) NO 56 ° 0 min 0,000 mm 0,5 UV-I 72 W/m² 6,4 °C 8,4 °C 9,7 km/h (2 Bft)
18.09.2019 09:38 8,9 °C 83 % 1020,4 hPa 0,0 mm 3,3 km/h (1 Bft) NO 55 ° 0 min 0,000 mm 0,5 UV-I 72 W/m² 6,2 °C 8,9 °C 6,4 km/h (2 Bft)
18.09.2019 09:39 9,0 °C 84 % 1020,4 hPa 0,0 mm 3,6 km/h (1 Bft) O-NO 63 ° 0 min 0,000 mm 0,5 UV-I 72 W/m² 6,4 °C 9,0 °C 6,4 km/h (2 Bft)
18.09.2019 09:40 8,9 °C 84 % 1020,5 hPa 0,0 mm 6,2 km/h (2 Bft) O-NO 67 ° 0 min 0,000 mm 0,5 UV-I 76 W/m² 6,3 °C 8,2 °C 9,7 km/h (2 Bft)
18.09.2019 09:41 9,0 °C 83 % 1020,4 hPa 0,0 mm 6,8 km/h (2 Bft) N-NO 21 ° 0 min 0,000 mm 0,5 UV-I 77 W/m² 6,3 °C 8,1 °C 8,0 km/h (2 Bft)
18.09.2019 09:42 8,9 °C 83 % 1020,4 hPa 0,0 mm 6,0 km/h (2 Bft) O-NO 60 ° 0 min 0,000 mm 0,6 UV-I 79 W/m² 6,2 °C 8,2 °C 8,0 km/h (2 Bft)
18.09.2019 09:43 9,0 °C 83 % 1020,4 hPa 0,0 mm 6,2 km/h (2 Bft) NO 55 ° 0 min 0,000 mm 0,6 UV-I 81 W/m² 6,3 °C 8,3 °C 11,3 km/h (2 Bft)
18.09.2019 09:44 9,0 °C 83 % 1020,4 hPa 0,0 mm 4,2 km/h (1 Bft) N-NO 28 ° 0 min 0,000 mm 0,6 UV-I 84 W/m² 6,3 °C 9,0 °C 6,4 km/h (2 Bft)
18.09.2019 09:45 9,0 °C 82 % 1020,4 hPa 0,0 mm 5,9 km/h (2 Bft) O-NO 61 ° 0 min 0,000 mm 0,6 UV-I 90 W/m² 6,1 °C 8,3 °C 9,7 km/h (2 Bft)
18.09.2019 09:46 9,0 °C 82 % 1020,5 hPa 0,0 mm 11,3 km/h (2 Bft) O-NO 65 ° 0 min 0,000 mm 0,7 UV-I 95 W/m² 6,1 °C 7,2 °C 19,3 km/h (3 Bft)
18.09.2019 09:47 9,0 °C 81 % 1020,5 hPa 0,0 mm 7,2 km/h (2 Bft) O-NO 70 ° 0 min 0,000 mm 0,7 UV-I 97 W/m² 5,9 °C 8,0 °C 8,0 km/h (2 Bft)
18.09.2019 09:48 9,0 °C 81 % 1020,4 hPa 0,0 mm 7,1 km/h (2 Bft) NO 44 ° 0 min 0,000 mm 0,7 UV-I 97 W/m² 5,9 °C 8,0 °C 11,3 km/h (2 Bft)
18.09.2019 09:49 8,9 °C 81 % 1020,5 hPa 0,0 mm 8,0 km/h (2 Bft) W-NW 299 ° 0 min 0,000 mm 0,7 UV-I 95 W/m² 5,8 °C 7,7 °C 11,3 km/h (2 Bft)
18.09.2019 09:50 8,9 °C 80 % 1020,5 hPa 0,0 mm 5,9 km/h (2 Bft) NO 48 ° 0 min 0,000 mm 0,6 UV-I 91 W/m² 5,6 °C 8,2 °C 11,3 km/h (2 Bft)
18.09.2019 09:51 8,9 °C 80 % 1020,5 hPa 0,0 mm 6,8 km/h (2 Bft) O-SO 105 ° 0 min 0,000 mm 0,6 UV-I 86 W/m² 5,6 °C 8,0 °C 12,9 km/h (3 Bft)
18.09.2019 09:52 8,9 °C 80 % 1020,5 hPa 0,0 mm 5,2 km/h (1 Bft) NO 49 ° 0 min 0,000 mm 0,6 UV-I 79 W/m² 5,6 °C 8,4 °C 14,5 km/h (3 Bft)
18.09.2019 09:53 8,9 °C 80 % 1020,5 hPa 0,0 mm 6,4 km/h (2 Bft) NO 38 ° 0 min 0,000 mm 0,6 UV-I 79 W/m² 5,6 °C 8,1 °C 11,3 km/h (2 Bft)
18.09.2019 09:54 8,9 °C 79 % 1020,5 hPa 0,0 mm 2,4 km/h (1 Bft) NO 38 ° 0 min 0,000 mm 0,6 UV-I 81 W/m² 5,5 °C 8,9 °C 3,2 km/h (1 Bft)
18.09.2019 09:55 9,0 °C 79 % 1020,6 hPa 0,0 mm 7,6 km/h (2 Bft) NO 41 ° 0 min 0,000 mm 0,6 UV-I 84 W/m² 5,6 °C 7,9 °C 12,9 km/h (3 Bft)
18.09.2019 09:56 9,0 °C 79 % 1020,5 hPa 0,0 mm 7,9 km/h (2 Bft) O-NO 71 ° 0 min 0,000 mm 0,6 UV-I 84 W/m² 5,6 °C 7,9 °C 12,9 km/h (3 Bft)
18.09.2019 09:57 9,0 °C 79 % 1020,5 hPa 0,0 mm 6,0 km/h (2 Bft) N-NO 30 ° 0 min 0,000 mm 0,7 UV-I 90 W/m² 5,6 °C 8,3 °C 9,7 km/h (2 Bft)
18.09.2019 09:58 9,0 °C 79 % 1020,6 hPa 0,0 mm 5,6 km/h (1 Bft) N 351 ° 0 min 0,000 mm 0,7 UV-I 93 W/m² 5,6 °C 8,4 °C 6,4 km/h (2 Bft)
18.09.2019 09:59 9,0 °C 79 % 1020,5 hPa 0,0 mm 9,6 km/h (2 Bft) N-NO 22 ° 0 min 0,000 mm 0,7 UV-I 93 W/m² 5,6 °C 7,5 °C 16,1 km/h (3 Bft)
18.09.2019 10:00 9,0 °C 79 % 1020,5 hPa 0,0 mm 8,6 km/h (2 Bft) O-NO 60 ° 0 min 0,000 mm 0,7 UV-I 93 W/m² 5,6 °C 7,7 °C 16,1 km/h (3 Bft)
18.09.2019 10:01 9,0 °C 79 % 1020,6 hPa 0,0 mm 3,4 km/h (1 Bft) O-NO 66 ° 0 min 0,051 mm 0,7 UV-I 93 W/m² 5,6 °C 9,0 °C 6,4 km/h (2 Bft)
18.09.2019 10:02 9,1 °C 80 % 1020,6 hPa 0,0 mm 1,9 km/h (1 Bft) O-NO 66 ° 0 min 0,000 mm 0,7 UV-I 95 W/m² 5,8 °C 9,1 °C 3,2 km/h (1 Bft)
18.09.2019 10:03 9,1 °C 80 % 1020,6 hPa 0,0 mm 4,2 km/h (1 Bft) NO 52 ° 0 min 0,000 mm 0,7 UV-I 97 W/m² 5,8 °C 9,1 °C 9,7 km/h (2 Bft)
18.09.2019 10:04 9,1 °C 80 % 1020,6 hPa 0,0 mm 9,4 km/h (2 Bft) O 83 ° 0 min 0,000 mm 0,7 UV-I 102 W/m² 5,8 °C 7,7 °C 14,5 km/h (3 Bft)
18.09.2019 10:05 9,1 °C 79 % 1020,7 hPa 0,0 mm 7,2 km/h (2 Bft) O-NO 65 ° 0 min 0,000 mm 0,8 UV-I 105 W/m² 5,7 °C 8,1 °C 12,9 km/h (3 Bft)
18.09.2019 10:06 9,1 °C 79 % 1020,6 hPa 0,0 mm 6,8 km/h (2 Bft) O-NO 70 ° 0 min 0,000 mm 0,8 UV-I 105 W/m² 5,7 °C 8,2 °C 12,9 km/h (3 Bft)
18.09.2019 10:07 9,1 °C 79 % 1020,7 hPa 0,0 mm 4,4 km/h (1 Bft) N-NO 33 ° 0 min 0,000 mm 0,8 UV-I 107 W/m² 5,7 °C 9,1 °C 9,7 km/h (2 Bft)
18.09.2019 10:08 9,1 °C 79 % 1020,7 hPa 0,0 mm 6,4 km/h (2 Bft) O-NO 67 ° 0 min 0,000 mm 0,8 UV-I 105 W/m² 5,7 °C 8,3 °C 11,3 km/h (2 Bft)
18.09.2019 10:09 9,1 °C 79 % 1020,7 hPa 0,0 mm 5,0 km/h (1 Bft) O-NO 69 ° 0 min 0,000 mm 0,8 UV-I 105 W/m² 5,7 °C 8,7 °C 9,7 km/h (2 Bft)
18.09.2019 10:10 9,1 °C 79 % 1020,7 hPa 0,0 mm 9,0 km/h (2 Bft) O-NO 63 ° 0 min 0,000 mm 0,8 UV-I 107 W/m² 5,7 °C 7,7 °C 12,9 km/h (3 Bft)
18.09.2019 10:11 9,1 °C 79 % 1020,7 hPa 0,0 mm 5,1 km/h (1 Bft) O-NO 74 ° 0 min 0,000 mm 0,8 UV-I 109 W/m² 5,7 °C 8,7 °C 11,3 km/h (2 Bft)
18.09.2019 10:12 9,1 °C 79 % 1020,7 hPa 0,0 mm 5,8 km/h (2 Bft) O-NO 73 ° 0 min 0,000 mm 0,8 UV-I 111 W/m² 5,7 °C 8,5 °C 12,9 km/h (3 Bft)
18.09.2019 10:13 9,2 °C 78 % 1020,7 hPa 0,0 mm 4,7 km/h (1 Bft) O-NO 69 ° 0 min 0,000 mm 0,8 UV-I 113 W/m² 5,6 °C 8,9 °C 6,4 km/h (2 Bft)
18.09.2019 10:14 9,1 °C 79 % 1020,7 hPa 0,0 mm 0,4 km/h (0 Bft) O-NO 69 ° 0 min 0,000 mm 0,8 UV-I 113 W/m² 5,7 °C 9,1 °C 3,2 km/h (1 Bft)
18.09.2019 10:15 9,2 °C 79 % 1020,7 hPa 0,0 mm 0,0 km/h (0 Bft) O-NO 69 ° 0 min 0,000 mm 0,8 UV-I 113 W/m² 5,8 °C 9,2 °C 0,0 km/h (0 Bft)
18.09.2019 10:16 9,2 °C 79 % 1020,7 hPa 0,0 mm 0,0 km/h (0 Bft) O-NO 69 ° 0 min 0,000 mm 0,9 UV-I 118 W/m² 5,8 °C 9,2 °C 0,0 km/h (0 Bft)
18.09.2019 10:17 9,2 °C 80 % 1020,7 hPa 0,0 mm 0,0 km/h (0 Bft) O-NO 69 ° 0 min 0,000 mm 0,9 UV-I 123 W/m² 5,9 °C 9,2 °C 0,0 km/h (0 Bft)
18.09.2019 10:18 9,2 °C 80 % 1020,6 hPa 0,0 mm 0,0 km/h (0 Bft) O-NO 69 ° 0 min 0,000 mm 1,0 UV-I 132 W/m² 5,9 °C 9,2 °C 0,0 km/h (0 Bft)
18.09.2019 10:19 9,2 °C 80 % 1020,7 hPa 0,0 mm 5,0 km/h (1 Bft) O-NO 76 ° 0 min 0,000 mm 1,0 UV-I 139 W/m² 5,9 °C 8,8 °C 12,9 km/h (3 Bft)
18.09.2019 10:20 9,3 °C 79 % 1020,6 hPa 0,0 mm 2,5 km/h (1 Bft) O-NO 70 ° 0 min 0,000 mm 1,1 UV-I 142 W/m² 5,8 °C 9,3 °C 4,8 km/h (1 Bft)
18.09.2019 10:21 9,3 °C 79 % 1020,6 hPa 0,0 mm 4,4 km/h (1 Bft) O 84 ° 0 min 0,000 mm 1,1 UV-I 139 W/m² 5,8 °C 9,3 °C 8,0 km/h (2 Bft)
18.09.2019 10:22 9,2 °C 79 % 1020,7 hPa 0,0 mm 5,9 km/h (2 Bft) NO 40 ° 0 min 0,000 mm 1,0 UV-I 135 W/m² 5,8 °C 8,6 °C 12,9 km/h (3 Bft)
18.09.2019 10:23 9,3 °C 79 % 1020,7 hPa 0,0 mm 5,8 km/h (2 Bft) N-NO 27 ° 0 min 0,000 mm 1,0 UV-I 134 W/m² 5,8 °C 8,7 °C 9,7 km/h (2 Bft)
18.09.2019 10:24 9,3 °C 79 % 1020,7 hPa 0,0 mm 8,6 km/h (2 Bft) NO 46 ° 0 min 0,000 mm 1,0 UV-I 135 W/m² 5,8 °C 8,1 °C 14,5 km/h (3 Bft)
18.09.2019 10:25 9,3 °C 78 % 1020,7 hPa 0,0 mm 3,4 km/h (1 Bft) O-NO 67 ° 0 min 0,000 mm 1,1 UV-I 139 W/m² 5,7 °C 9,3 °C 9,7 km/h (2 Bft)
18.09.2019 10:26 9,3 °C 78 % 1020,7 hPa 0,0 mm 6,6 km/h (2 Bft) N-NO 15 ° 0 min 0,000 mm 1,1 UV-I 146 W/m² 5,7 °C 8,5 °C 9,7 km/h (2 Bft)
18.09.2019 10:27 9,3 °C 78 % 1020,7 hPa 0,0 mm 6,4 km/h (2 Bft) O 80 ° 0 min 0,000 mm 1,2 UV-I 160 W/m² 5,7 °C 8,6 °C 9,7 km/h (2 Bft)
18.09.2019 10:28 9,3 °C 79 % 1020,7 hPa 0,0 mm 2,9 km/h (1 Bft) N-NO 16 ° 0 min 0,000 mm 1,2 UV-I 165 W/m² 5,8 °C 9,3 °C 4,8 km/h (1 Bft)
18.09.2019 10:29 9,3 °C 79 % 1020,7 hPa 0,0 mm 5,0 km/h (1 Bft) O-NO 65 ° 0 min 0,000 mm 1,3 UV-I 169 W/m² 5,8 °C 9,0 °C 9,7 km/h (2 Bft)
18.09.2019 10:30 9,3 °C 79 % 1020,7 hPa 0,0 mm 3,1 km/h (1 Bft) O-NO 67 ° 0 min 0,000 mm 1,4 UV-I 171 W/m² 5,8 °C 9,3 °C 6,4 km/h (2 Bft)
18.09.2019 10:31 9,4 °C 79 % 1020,7 hPa 0,0 mm 7,1 km/h (2 Bft) S-SO 155 ° 0 min 0,000 mm 1,4 UV-I 174 W/m² 5,9 °C 8,5 °C 11,3 km/h (2 Bft)
18.09.2019 10:32 9,4 °C 79 % 1020,7 hPa 0,0 mm 7,2 km/h (2 Bft) O-NO 59 ° 0 min 0,000 mm 1,4 UV-I 176 W/m² 5,9 °C 8,5 °C 11,3 km/h (2 Bft)
18.09.2019 10:33 9,4 °C 79 % 1020,7 hPa 0,0 mm 4,8 km/h (1 Bft) N-NO 29 ° 0 min 0,000 mm 1,5 UV-I 178 W/m² 5,9 °C 9,1 °C 8,0 km/h (2 Bft)
18.09.2019 10:34 9,4 °C 79 % 1020,7 hPa 0,0 mm 4,8 km/h (1 Bft) N-NO 23 ° 0 min 0,000 mm 1,5 UV-I 179 W/m² 5,9 °C 9,1 °C 9,7 km/h (2 Bft)
18.09.2019 10:35 9,5 °C 79 % 1020,7 hPa 0,0 mm 4,5 km/h (1 Bft) O-NO 73 ° 0 min 0,000 mm 1,5 UV-I 181 W/m² 6,0 °C 9,5 °C 6,4 km/h (2 Bft)
18.09.2019 10:36 9,6 °C 79 % 1020,7 hPa 0,0 mm 4,7 km/h (1 Bft) N-NO 19 ° 0 min 0,000 mm 1,5 UV-I 183 W/m² 6,1 °C 9,4 °C 11,3 km/h (2 Bft)
18.09.2019 10:37 9,6 °C 78 % 1020,7 hPa 0,0 mm 5,2 km/h (1 Bft) SO 144 ° 0 min 0,000 mm 1,5 UV-I 185 W/m² 6,0 °C 9,2 °C 9,7 km/h (2 Bft)
18.09.2019 10:38 9,6 °C 78 % 1020,7 hPa 0,0 mm 2,3 km/h (1 Bft) O-NO 63 ° 0 min 0,000 mm 1,5 UV-I 183 W/m² 6,0 °C 9,6 °C 4,8 km/h (1 Bft)
18.09.2019 10:39 9,6 °C 78 % 1020,7 hPa 0,0 mm 3,0 km/h (1 Bft) O-NO 63 ° 0 min 0,000 mm 1,6 UV-I 190 W/m² 6,0 °C 9,6 °C 3,2 km/h (1 Bft)
18.09.2019 10:40 9,5 °C 78 % 1020,7 hPa 0,0 mm 5,5 km/h (1 Bft) O 88 ° 0 min 0,000 mm 1,7 UV-I 193 W/m² 5,9 °C 9,0 °C 8,0 km/h (2 Bft)
18.09.2019 10:41 9,6 °C 79 % 1020,7 hPa 0,0 mm 3,0 km/h (1 Bft) O 87 ° 0 min 0,000 mm 1,7 UV-I 197 W/m² 6,1 °C 9,6 °C 6,4 km/h (2 Bft)
18.09.2019 10:42 9,6 °C 78 % 1020,7 hPa 0,0 mm 1,0 km/h (0 Bft) O-NO 70 ° 0 min 0,000 mm 1,7 UV-I 200 W/m² 6,0 °C 9,6 °C 4,8 km/h (1 Bft)
18.09.2019 10:43 9,6 °C 78 % 1020,7 hPa 0,0 mm 3,8 km/h (1 Bft) O-NO 73 ° 0 min 0,000 mm 1,8 UV-I 206 W/m² 6,0 °C 9,6 °C 4,8 km/h (1 Bft)
18.09.2019 10:44 9,6 °C 79 % 1020,6 hPa 0,0 mm 7,3 km/h (2 Bft) SO 141 ° 0 min 0,000 mm 1,8 UV-I 211 W/m² 6,1 °C 8,7 °C 11,3 km/h (2 Bft)
18.09.2019 10:45 9,6 °C 79 % 1020,7 hPa 0,0 mm 4,8 km/h (1 Bft) O-SO 116 ° 0 min 0,000 mm 1,8 UV-I 214 W/m² 6,1 °C 9,4 °C 11,3 km/h (2 Bft)
18.09.2019 10:46 9,6 °C 79 % 1020,7 hPa 0,0 mm 4,7 km/h (1 Bft) O 88 ° 0 min 0,000 mm 1,8 UV-I 216 W/m² 6,1 °C 9,4 °C 11,3 km/h (2 Bft)
18.09.2019 10:47 9,7 °C 79 % 1020,7 hPa 0,0 mm 9,7 km/h (2 Bft) O-NO 57 ° 0 min 0,000 mm 1,8 UV-I 221 W/m² 6,2 °C 8,3 °C 14,5 km/h (3 Bft)
18.09.2019 10:48 9,6 °C 78 % 1020,7 hPa 0,0 mm 8,8 km/h (2 Bft) O-NO 65 ° 0 min 0,000 mm 1,8 UV-I 229 W/m² 6,0 °C 8,4 °C 11,3 km/h (2 Bft)
18.09.2019 10:49 9,6 °C 78 % 1020,7 hPa 0,0 mm 8,7 km/h (2 Bft) NO 54 ° 0 min 0,000 mm 1,9 UV-I 237 W/m² 6,0 °C 8,4 °C 11,3 km/h (2 Bft)
18.09.2019 10:50 9,6 °C 78 % 1020,7 hPa 0,0 mm 6,2 km/h (2 Bft) S-SO 157 ° 0 min 0,000 mm 1,9 UV-I 246 W/m² 6,0 °C 9,0 °C 12,9 km/h (3 Bft)
18.09.2019 10:51 9,6 °C 78 % 1020,7 hPa 0,0 mm 6,3 km/h (2 Bft) O-NO 63 ° 0 min 0,000 mm 1,9 UV-I 251 W/m² 6,0 °C 8,9 °C 11,3 km/h (2 Bft)
18.09.2019 10:52 9,6 °C 78 % 1020,7 hPa 0,0 mm 1,4 km/h (1 Bft) NO 56 ° 0 min 0,000 mm 1,9 UV-I 257 W/m² 6,0 °C 9,6 °C 6,4 km/h (2 Bft)
18.09.2019 10:53 9,7 °C 78 % 1020,7 hPa 0,0 mm 7,0 km/h (2 Bft) S-SO 150 ° 0 min 0,000 mm 1,9 UV-I 258 W/m² 6,1 °C 8,9 °C 12,9 km/h (3 Bft)
18.09.2019 10:54 9,7 °C 79 % 1020,7 hPa 0,0 mm 4,0 km/h (1 Bft) O-NO 78 ° 0 min 0,000 mm 2,0 UV-I 260 W/m² 6,2 °C 9,7 °C 6,4 km/h (2 Bft)
18.09.2019 10:55 9,8 °C 79 % 1020,7 hPa 0,0 mm 6,0 km/h (2 Bft) O-NO 71 ° 0 min 0,000 mm 2,0 UV-I 265 W/m² 6,3 °C 9,2 °C 8,0 km/h (2 Bft)
18.09.2019 10:56 9,8 °C 78 % 1020,7 hPa 0,0 mm 5,8 km/h (2 Bft) SO 136 ° 0 min 0,000 mm 2,0 UV-I 264 W/m² 6,1 °C 9,3 °C 8,0 km/h (2 Bft)
18.09.2019 10:57 9,8 °C 78 % 1020,6 hPa 0,0 mm 5,6 km/h (1 Bft) O 92 ° 0 min 0,000 mm 1,9 UV-I 260 W/m² 6,1 °C 9,4 °C 11,3 km/h (2 Bft)
18.09.2019 10:58 9,8 °C 79 % 1020,6 hPa 0,0 mm 5,6 km/h (1 Bft) O-NO 71 ° 0 min 0,000 mm 1,9 UV-I 257 W/m² 6,3 °C 9,4 °C 8,0 km/h (2 Bft)
18.09.2019 10:59 9,9 °C 79 % 1020,7 hPa 0,0 mm 6,2 km/h (2 Bft) O 84 ° 0 min 0,000 mm 1,9 UV-I 253 W/m² 6,4 °C 9,3 °C 9,7 km/h (2 Bft)
18.09.2019 11:00 9,9 °C 78 % 1020,6 hPa 0,0 mm 4,1 km/h (1 Bft) N-NO 30 ° 0 min 0,000 mm 1,9 UV-I 246 W/m² 6,2 °C 9,9 °C 6,4 km/h (2 Bft)
18.09.2019 11:01 9,9 °C 78 % 1020,6 hPa 0,0 mm 7,2 km/h (2 Bft) NO 42 ° 0 min 0,101 mm 1,9 UV-I 241 W/m² 6,2 °C 9,1 °C 11,3 km/h (2 Bft)
18.09.2019 11:02 9,9 °C 78 % 1020,6 hPa 0,0 mm 3,7 km/h (1 Bft) O-NO 58 ° 0 min 0,000 mm 1,9 UV-I 237 W/m² 6,2 °C 9,9 °C 8,0 km/h (2 Bft)
18.09.2019 11:03 9,9 °C 78 % 1020,6 hPa 0,0 mm 0,8 km/h (0 Bft) NO 40 ° 0 min 0,000 mm 1,9 UV-I 237 W/m² 6,2 °C 9,9 °C 3,2 km/h (1 Bft)
18.09.2019 11:04 9,9 °C 78 % 1020,6 hPa 0,0 mm 3,0 km/h (1 Bft) N-NO 23 ° 0 min 0,000 mm 1,9 UV-I 237 W/m² 6,2 °C 9,9 °C 4,8 km/h (1 Bft)
18.09.2019 11:05 10,0 °C 78 % 1020,6 hPa 0,0 mm 8,2 km/h (2 Bft) NO 39 ° 0 min 0,000 mm 1,9 UV-I 239 W/m² 6,3 °C 9,0 °C 12,9 km/h (3 Bft)
18.09.2019 11:06 10,1 °C 78 % 1020,6 hPa 0,0 mm 6,4 km/h (2 Bft) O 90 ° 0 min 0,000 mm 1,9 UV-I 241 W/m² 6,4 °C 10,1 °C 9,7 km/h (2 Bft)
18.09.2019 11:07 10,1 °C 78 % 1020,6 hPa 0,0 mm 2,9 km/h (1 Bft) NO 55 ° 0 min 0,000 mm 1,9 UV-I 243 W/m² 6,4 °C 10,1 °C 4,8 km/h (1 Bft)
18.09.2019 11:08 10,1 °C 78 % 1020,6 hPa 0,0 mm 6,4 km/h (2 Bft) NO 44 ° 0 min 0,000 mm 1,9 UV-I 244 W/m² 6,4 °C 10,1 °C 9,7 km/h (2 Bft)
18.09.2019 11:09 10,1 °C 78 % 1020,6 hPa 0,0 mm 6,2 km/h (2 Bft) N-NO 31 ° 0 min 0,000 mm 2,0 UV-I 244 W/m² 6,4 °C 10,1 °C 9,7 km/h (2 Bft)
18.09.2019 11:10 10,1 °C 78 % 1020,6 hPa 0,0 mm 7,2 km/h (2 Bft) O 92 ° 0 min 0,000 mm 2,0 UV-I 253 W/m² 6,4 °C 10,1 °C 11,3 km/h (2 Bft)
18.09.2019 11:11 10,1 °C 78 % 1020,6 hPa 0,0 mm 5,0 km/h (1 Bft) O-NO 76 ° 0 min 0,000 mm 2,0 UV-I 253 W/m² 6,4 °C 10,1 °C 9,7 km/h (2 Bft)
18.09.2019 11:12 10,1 °C 77 % 1020,6 hPa 0,0 mm 5,7 km/h (1 Bft) O-NO 76 ° 0 min 0,000 mm 2,1 UV-I 258 W/m² 6,3 °C 10,1 °C 9,7 km/h (2 Bft)
18.09.2019 11:13 10,1 °C 78 % 1020,6 hPa 0,0 mm 6,0 km/h (2 Bft) NO 53 ° 0 min 0,000 mm 2,1 UV-I 262 W/m² 6,4 °C 10,1 °C 8,0 km/h (2 Bft)
18.09.2019 11:14 10,1 °C 78 % 1020,6 hPa 0,0 mm 4,3 km/h (1 Bft) O-NO 68 ° 0 min 0,000 mm 2,1 UV-I 260 W/m² 6,4 °C 10,1 °C 6,4 km/h (2 Bft)
18.09.2019 11:15 10,1 °C 79 % 1020,7 hPa 0,0 mm 5,9 km/h (2 Bft) O-NO 77 ° 0 min 0,000 mm 2,1 UV-I 260 W/m² 6,6 °C 10,1 °C 6,4 km/h (2 Bft)
18.09.2019 11:16 10,2 °C 79 % 1020,6 hPa 0,0 mm 4,0 km/h (1 Bft) O-NO 60 ° 0 min 0,000 mm 2,1 UV-I 260 W/m² 6,7 °C 10,2 °C 6,4 km/h (2 Bft)
18.09.2019 11:17 10,2 °C 78 % 1020,6 hPa 0,0 mm 3,9 km/h (1 Bft) O 84 ° 0 min 0,000 mm 2,1 UV-I 262 W/m² 6,5 °C 10,2 °C 6,4 km/h (2 Bft)
18.09.2019 11:18 10,3 °C 78 % 1020,6 hPa 0,0 mm 4,6 km/h (1 Bft) O-NO 66 ° 0 min 0,000 mm 2,1 UV-I 265 W/m² 6,6 °C 10,3 °C 6,4 km/h (2 Bft)
18.09.2019 11:19 10,3 °C 78 % 1020,6 hPa 0,0 mm 2,9 km/h (1 Bft) N-NO 30 ° 0 min 0,000 mm 2,2 UV-I 267 W/m² 6,6 °C 10,3 °C 4,8 km/h (1 Bft)
18.09.2019 11:20 10,3 °C 78 % 1020,6 hPa 0,0 mm 4,6 km/h (1 Bft) NO 56 ° 0 min 0,000 mm 2,2 UV-I 269 W/m² 6,6 °C 10,3 °C 6,4 km/h (2 Bft)
18.09.2019 11:21 10,4 °C 78 % 1020,6 hPa 0,0 mm 3,5 km/h (1 Bft) NO 47 ° 0 min 0,000 mm 2,2 UV-I 272 W/m² 6,7 °C 10,4 °C 6,4 km/h (2 Bft)
18.09.2019 11:22 10,4 °C 78 % 1020,6 hPa 0,0 mm 4,0 km/h (1 Bft) O-NO 63 ° 0 min 0,000 mm 2,2 UV-I 274 W/m² 6,7 °C 10,4 °C 6,4 km/h (2 Bft)
18.09.2019 11:23 10,4 °C 78 % 1020,6 hPa 0,0 mm 4,1 km/h (1 Bft) N-NO 20 ° 0 min 0,000 mm 2,2 UV-I 274 W/m² 6,7 °C 10,4 °C 6,4 km/h (2 Bft)
18.09.2019 11:24 10,6 °C 78 % 1020,6 hPa 0,0 mm 6,2 km/h (2 Bft) O 90 ° 0 min 0,000 mm 2,2 UV-I 276 W/m² 6,9 °C 10,6 °C 11,3 km/h (2 Bft)
18.09.2019 11:25 10,6 °C 77 % 1020,6 hPa 0,0 mm 1,9 km/h (1 Bft) O-NO 69 ° 0 min 0,000 mm 2,2 UV-I 276 W/m² 6,7 °C 10,6 °C 3,2 km/h (1 Bft)
18.09.2019 11:26 10,5 °C 78 % 1020,6 hPa 0,0 mm 3,8 km/h (1 Bft) O 93 ° 0 min 0,000 mm 2,2 UV-I 269 W/m² 6,8 °C 10,5 °C 6,4 km/h (2 Bft)
18.09.2019 11:27 10,6 °C 78 % 1020,6 hPa 0,0 mm 5,6 km/h (1 Bft) N-NO 28 ° 0 min 0,000 mm 2,2 UV-I 269 W/m² 6,9 °C 10,6 °C 9,7 km/h (2 Bft)
18.09.2019 11:28 10,6 °C 78 % 1020,6 hPa 0,0 mm 5,3 km/h (1 Bft) O-NO 73 ° 0 min 0,000 mm 2,3 UV-I 274 W/m² 6,9 °C 10,6 °C 8,0 km/h (2 Bft)
18.09.2019 11:29 10,6 °C 77 % 1020,6 hPa 0,0 mm 4,5 km/h (1 Bft) O-SO 104 ° 0 min 0,000 mm 2,3 UV-I 274 W/m² 6,7 °C 10,6 °C 6,4 km/h (2 Bft)
18.09.2019 11:30 10,6 °C 78 % 1020,6 hPa 0,0 mm 1,9 km/h (1 Bft) O-SO 104 ° 0 min 0,000 mm 2,3 UV-I 274 W/m² 6,9 °C 10,6 °C 3,2 km/h (1 Bft)
18.09.2019 11:31 10,6 °C 78 % 1020,6 hPa 0,0 mm 4,3 km/h (1 Bft) O 89 ° 0 min 0,000 mm 2,3 UV-I 272 W/m² 6,9 °C 10,6 °C 6,4 km/h (2 Bft)
18.09.2019 11:32 10,6 °C 77 % 1020,6 hPa 0,0 mm 0,5 km/h (0 Bft) N-NO 23 ° 0 min 0,000 mm 2,3 UV-I 265 W/m² 6,7 °C 10,6 °C 3,2 km/h (1 Bft)
18.09.2019 11:33 10,6 °C 78 % 1020,6 hPa 0,0 mm 0,8 km/h (0 Bft) N-NO 29 ° 0 min 0,000 mm 2,4 UV-I 267 W/m² 6,9 °C 10,6 °C 3,2 km/h (1 Bft)
18.09.2019 11:34 10,6 °C 78 % 1020,6 hPa 0,0 mm 3,6 km/h (1 Bft) O-NO 74 ° 0 min 0,000 mm 2,4 UV-I 257 W/m² 6,9 °C 10,6 °C 4,8 km/h (1 Bft)
18.09.2019 11:35 10,7 °C 77 % 1020,7 hPa 0,0 mm 7,4 km/h (2 Bft) S 173 ° 0 min 0,000 mm 2,4 UV-I 251 W/m² 6,8 °C 10,7 °C 9,7 km/h (2 Bft)
18.09.2019 11:36 10,6 °C 77 % 1020,7 hPa 0,0 mm 4,8 km/h (1 Bft) SO 128 ° 0 min 0,000 mm 2,4 UV-I 246 W/m² 6,7 °C 10,6 °C 8,0 km/h (2 Bft)
18.09.2019 11:37 10,6 °C 78 % 1020,6 hPa 0,0 mm 5,5 km/h (1 Bft) O 98 ° 0 min 0,000 mm 2,4 UV-I 281 W/m² 6,9 °C 10,6 °C 6,4 km/h (2 Bft)
18.09.2019 11:38 10,6 °C 78 % 1020,6 hPa 0,0 mm 3,1 km/h (1 Bft) O 98 ° 0 min 0,000 mm 2,5 UV-I 297 W/m² 6,9 °C 10,6 °C 4,8 km/h (1 Bft)
18.09.2019 11:39 10,6 °C 77 % 1020,6 hPa 0,0 mm 3,0 km/h (1 Bft) NO 34 ° 0 min 0,000 mm 3,1 UV-I 297 W/m² 6,7 °C 10,6 °C 4,8 km/h (1 Bft)
18.09.2019 11:40 10,7 °C 77 % 1020,6 hPa 0,0 mm 4,3 km/h (1 Bft) O-NO 76 ° 0 min 0,000 mm 3,2 UV-I 297 W/m² 6,8 °C 10,7 °C 6,4 km/h (2 Bft)
18.09.2019 11:41 10,8 °C 78 % 1020,6 hPa 0,0 mm 1,9 km/h (1 Bft) O-NO 77 ° 0 min 0,000 mm 4,1 UV-I 297 W/m² 7,1 °C 10,8 °C 3,2 km/h (1 Bft)
18.09.2019 11:42 10,9 °C 79 % 1020,6 hPa 0,0 mm 5,0 km/h (1 Bft) N-NO 28 ° 0 min 0,000 mm 2,9 UV-I 297 W/m² 7,4 °C 10,9 °C 8,0 km/h (2 Bft)
18.09.2019 11:43 11,0 °C 78 % 1020,6 hPa 0,0 mm 4,8 km/h (1 Bft) N-NO 24 ° 0 min 0,000 mm 3,7 UV-I 306 W/m² 7,3 °C 11,0 °C 8,0 km/h (2 Bft)
18.09.2019 11:44 11,1 °C 77 % 1020,6 hPa 0,0 mm 2,8 km/h (1 Bft) NO 43 ° 0 min 0,000 mm 2,8 UV-I 311 W/m² 7,2 °C 11,1 °C 4,8 km/h (1 Bft)
18.09.2019 11:45 11,1 °C 77 % 1020,6 hPa 0,0 mm 7,6 km/h (2 Bft) N-NO 21 ° 0 min 0,000 mm 3,2 UV-I 311 W/m² 7,2 °C 11,1 °C 12,9 km/h (3 Bft)
18.09.2019 11:46 11,2 °C 78 % 1020,6 hPa 0,0 mm 5,8 km/h (2 Bft) NO 50 ° 0 min 0,000 mm 3,6 UV-I 311 W/m² 7,5 °C 11,2 °C 9,7 km/h (2 Bft)
18.09.2019 11:47 11,3 °C 76 % 1020,6 hPa 0,0 mm 8,4 km/h (2 Bft) NO 45 ° 0 min 0,000 mm 2,8 UV-I 311 W/m² 7,2 °C 11,3 °C 11,3 km/h (2 Bft)
18.09.2019 11:48 11,3 °C 76 % 1020,6 hPa 0,0 mm 7,1 km/h (2 Bft) N-NO 15 ° 0 min 0,000 mm 3,3 UV-I 323 W/m² 7,2 °C 11,3 °C 8,0 km/h (2 Bft)
18.09.2019 11:49 11,3 °C 76 % 1020,6 hPa 0,0 mm 5,8 km/h (2 Bft) N 11 ° 0 min 0,000 mm 3,3 UV-I 304 W/m² 7,2 °C 11,3 °C 9,7 km/h (2 Bft)
18.09.2019 11:50 11,3 °C 75 % 1020,6 hPa 0,0 mm 3,9 km/h (1 Bft) NO 35 ° 0 min 0,000 mm 3,1 UV-I 304 W/m² 7,0 °C 11,3 °C 8,0 km/h (2 Bft)
18.09.2019 11:51 11,2 °C 75 % 1020,6 hPa 0,0 mm 4,1 km/h (1 Bft) O-NO 63 ° 0 min 0,000 mm 3,2 UV-I 304 W/m² 6,9 °C 11,2 °C 6,4 km/h (2 Bft)
18.09.2019 11:52 11,2 °C 77 % 1020,6 hPa 0,0 mm 4,3 km/h (1 Bft) O 86 ° 0 min 0,000 mm 2,7 UV-I 304 W/m² 7,3 °C 11,2 °C 6,4 km/h (2 Bft)
18.09.2019 11:53 11,2 °C 76 % 1020,6 hPa 0,0 mm 4,4 km/h (1 Bft) N-NO 27 ° 0 min 0,000 mm 3,3 UV-I 332 W/m² 7,1 °C 11,2 °C 8,0 km/h (2 Bft)
18.09.2019 11:54 11,2 °C 75 % 1020,6 hPa 0,0 mm 6,2 km/h (2 Bft) NO 43 ° 0 min 0,000 mm 2,6 UV-I 248 W/m² 6,9 °C 11,2 °C 8,0 km/h (2 Bft)
18.09.2019 11:55 11,2 °C 76 % 1020,6 hPa 0,0 mm 9,1 km/h (2 Bft) NO 35 ° 0 min 0,000 mm 2,8 UV-I 318 W/m² 7,1 °C 11,2 °C 12,9 km/h (3 Bft)
18.09.2019 11:56 11,1 °C 75 % 1020,6 hPa 0,0 mm 3,9 km/h (1 Bft) NO 35 ° 0 min 0,000 mm 2,9 UV-I 345 W/m² 6,8 °C 11,1 °C 6,4 km/h (2 Bft)
18.09.2019 11:57 11,1 °C 75 % 1020,6 hPa 0,0 mm 3,7 km/h (1 Bft) N-NO 13 ° 0 min 0,000 mm 3,0 UV-I 371 W/m² 6,8 °C 11,1 °C 4,8 km/h (1 Bft)
18.09.2019 11:58 11,1 °C 77 % 1020,7 hPa 0,0 mm 6,7 km/h (2 Bft) O 98 ° 0 min 0,000 mm 2,8 UV-I 330 W/m² 7,2 °C 11,1 °C 11,3 km/h (2 Bft)
18.09.2019 11:59 11,1 °C 77 % 1020,6 hPa 0,0 mm 6,8 km/h (2 Bft) O 87 ° 0 min 0,000 mm 2,7 UV-I 302 W/m² 7,2 °C 11,1 °C 11,3 km/h (2 Bft)
18.09.2019 12:00 11,1 °C 77 % 1020,7 hPa 0,0 mm 5,7 km/h (1 Bft) O 86 ° 0 min 0,000 mm 2,8 UV-I 299 W/m² 7,2 °C 11,1 °C 6,4 km/h (2 Bft)
18.09.2019 12:01 11,1 °C 76 % 1020,6 hPa 0,0 mm 5,2 km/h (1 Bft) O 86 ° 0 min 0,153 mm 3,3 UV-I 353 W/m² 7,0 °C 11,1 °C 8,0 km/h (2 Bft)
18.09.2019 12:02 11,2 °C 78 % 1020,7 hPa 0,0 mm 5,5 km/h (1 Bft) N-NO 33 ° 0 min 0,000 mm 3,8 UV-I 508 W/m² 7,5 °C 11,2 °C 6,4 km/h (2 Bft)
18.09.2019 12:03 11,2 °C 78 % 1020,6 hPa 0,0 mm 7,5 km/h (2 Bft) O-SO 105 ° 0 min 0,000 mm 3,8 UV-I 508 W/m² 7,5 °C 11,2 °C 11,3 km/h (2 Bft)
18.09.2019 12:04 11,3 °C 77 % 1020,6 hPa 0,0 mm 7,0 km/h (2 Bft) O 80 ° 0 min 0,000 mm 3,8 UV-I 508 W/m² 7,4 °C 11,3 °C 11,3 km/h (2 Bft)
18.09.2019 12:05 11,3 °C 77 % 1020,6 hPa 0,0 mm 6,1 km/h (2 Bft) O 83 ° 0 min 0,000 mm 3,4 UV-I 508 W/m² 7,4 °C 11,3 °C 8,0 km/h (2 Bft)
18.09.2019 12:06 11,3 °C 76 % 1020,6 hPa 0,0 mm 3,8 km/h (1 Bft) O 86 ° 0 min 0,000 mm 3,2 UV-I 367 W/m² 7,2 °C 11,3 °C 4,8 km/h (1 Bft)
18.09.2019 12:07 11,3 °C 77 % 1020,7 hPa 0,0 mm 9,1 km/h (2 Bft) NO 42 ° 0 min 0,000 mm 3,2 UV-I 362 W/m² 7,4 °C 11,3 °C 14,5 km/h (3 Bft)
18.09.2019 12:08 11,4 °C 76 % 1020,6 hPa 0,0 mm 9,9 km/h (2 Bft) N-NO 26 ° 0 min 0,000 mm 3,1 UV-I 357 W/m² 7,3 °C 11,4 °C 14,5 km/h (3 Bft)
18.09.2019 12:09 11,5 °C 76 % 1020,6 hPa 0,0 mm 7,6 km/h (2 Bft) O-NO 71 ° 0 min 0,000 mm 2,9 UV-I 329 W/m² 7,4 °C 11,5 °C 11,3 km/h (2 Bft)
18.09.2019 12:10 11,6 °C 76 % 1020,6 hPa 0,0 mm 7,6 km/h (2 Bft) O-NO 68 ° 0 min 0,000 mm 2,8 UV-I 311 W/m² 7,5 °C 11,6 °C 11,3 km/h (2 Bft)
18.09.2019 12:11 11,6 °C 76 % 1020,6 hPa 0,0 mm 5,3 km/h (1 Bft) N 10 ° 0 min 0,000 mm 2,8 UV-I 306 W/m² 7,5 °C 11,6 °C 9,7 km/h (2 Bft)
18.09.2019 12:12 11,6 °C 76 % 1020,6 hPa 0,0 mm 7,1 km/h (2 Bft) NO 50 ° 0 min 0,000 mm 2,9 UV-I 338 W/m² 7,5 °C 11,6 °C 14,5 km/h (3 Bft)
18.09.2019 12:13 11,6 °C 75 % 1020,6 hPa 0,0 mm 8,9 km/h (2 Bft) O-NO 67 ° 0 min 0,000 mm 3,0 UV-I 369 W/m² 7,3 °C 11,6 °C 14,5 km/h (3 Bft)
18.09.2019 12:14 11,6 °C 74 % 1020,6 hPa 0,0 mm 5,5 km/h (1 Bft) NO 40 ° 0 min 0,000 mm 3,1 UV-I 355 W/m² 7,1 °C 11,6 °C 8,0 km/h (2 Bft)
18.09.2019 12:15 11,6 °C 75 % 1020,6 hPa 0,0 mm 5,3 km/h (1 Bft) NO 55 ° 0 min 0,000 mm 2,9 UV-I 334 W/m² 7,3 °C 11,6 °C 8,0 km/h (2 Bft)
18.09.2019 12:16 11,6 °C 75 % 1020,6 hPa 0,0 mm 10,2 km/h (2 Bft) O 84 ° 0 min 0,000 mm 3,0 UV-I 346 W/m² 7,3 °C 11,6 °C 14,5 km/h (3 Bft)
18.09.2019 12:17 11,6 °C 76 % 1020,6 hPa 0,0 mm 4,2 km/h (1 Bft) NO 54 ° 0 min 0,000 mm 3,2 UV-I 383 W/m² 7,5 °C 11,6 °C 8,0 km/h (2 Bft)
18.09.2019 12:18 11,7 °C 76 % 1020,6 hPa 0,0 mm 4,0 km/h (1 Bft) O 87 ° 0 min 0,000 mm 3,4 UV-I 485 W/m² 7,6 °C 11,7 °C 8,0 km/h (2 Bft)
18.09.2019 12:19 11,8 °C 77 % 1020,7 hPa 0,0 mm 4,7 km/h (1 Bft) NO 40 ° 0 min 0,000 mm 3,5 UV-I 445 W/m² 7,9 °C 11,8 °C 6,4 km/h (2 Bft)
18.09.2019 12:20 11,8 °C 76 % 1020,6 hPa 0,0 mm 6,4 km/h (2 Bft) O-NO 61 ° 0 min 0,000 mm 3,2 UV-I 397 W/m² 7,7 °C 11,8 °C 12,9 km/h (3 Bft)
18.09.2019 12:21 11,8 °C 76 % 1020,6 hPa 0,0 mm 3,8 km/h (1 Bft) O-NO 68 ° 0 min 0,000 mm 3,3 UV-I 397 W/m² 7,7 °C 11,8 °C 4,8 km/h (1 Bft)
18.09.2019 12:22 11,8 °C 77 % 1020,6 hPa 0,0 mm 5,5 km/h (1 Bft) O-NO 78 ° 0 min 0,000 mm 3,2 UV-I 431 W/m² 7,9 °C 11,8 °C 8,0 km/h (2 Bft)
18.09.2019 12:23 11,9 °C 77 % 1020,6 hPa 0,0 mm 6,0 km/h (2 Bft) O-NO 66 ° 0 min 0,000 mm 3,2 UV-I 385 W/m² 8,0 °C 11,9 °C 9,7 km/h (2 Bft)
18.09.2019 12:24 11,9 °C 76 % 1020,6 hPa 0,0 mm 6,4 km/h (2 Bft) NO 42 ° 0 min 0,000 mm 3,2 UV-I 355 W/m² 7,8 °C 11,9 °C 9,7 km/h (2 Bft)
18.09.2019 12:25 12,0 °C 76 % 1020,6 hPa 0,0 mm 6,9 km/h (2 Bft) O 88 ° 0 min 0,000 mm 3,2 UV-I 352 W/m² 7,9 °C 12,0 °C 8,0 km/h (2 Bft)
18.09.2019 12:26 11,9 °C 75 % 1020,7 hPa 0,0 mm 7,8 km/h (2 Bft) O-SO 105 ° 0 min 0,000 mm 3,0 UV-I 359 W/m² 7,6 °C 11,9 °C 11,3 km/h (2 Bft)
18.09.2019 12:27 11,9 °C 75 % 1020,7 hPa 0,0 mm 6,9 km/h (2 Bft) O 82 ° 0 min 0,000 mm 3,1 UV-I 366 W/m² 7,6 °C 11,9 °C 9,7 km/h (2 Bft)
18.09.2019 12:28 11,9 °C 76 % 1020,7 hPa 0,0 mm 6,3 km/h (2 Bft) O-NO 67 ° 0 min 0,000 mm 3,2 UV-I 436 W/m² 7,8 °C 11,9 °C 8,0 km/h (2 Bft)
18.09.2019 12:29 11,9 °C 76 % 1020,7 hPa 0,0 mm 7,8 km/h (2 Bft) N 355 ° 0 min 0,000 mm 3,2 UV-I 396 W/m² 7,8 °C 11,9 °C 12,9 km/h (3 Bft)
18.09.2019 12:30 11,9 °C 76 % 1020,7 hPa 0,0 mm 4,6 km/h (1 Bft) SO 127 ° 0 min 0,000 mm 3,2 UV-I 388 W/m² 7,8 °C 11,9 °C 8,0 km/h (2 Bft)
18.09.2019 12:31 11,9 °C 76 % 1020,7 hPa 0,0 mm 4,5 km/h (1 Bft) O-SO 108 ° 0 min 0,000 mm 3,3 UV-I 425 W/m² 7,8 °C 11,9 °C 11,3 km/h (2 Bft)
18.09.2019 12:32 11,9 °C 76 % 1020,6 hPa 0,0 mm 3,1 km/h (1 Bft) O-NO 63 ° 0 min 0,000 mm 3,1 UV-I 388 W/m² 7,8 °C 11,9 °C 8,0 km/h (2 Bft)
18.09.2019 12:33 12,0 °C 76 % 1020,6 hPa 0,0 mm 6,1 km/h (2 Bft) O-NO 63 ° 0 min 0,000 mm 3,1 UV-I 374 W/m² 7,9 °C 12,0 °C 9,7 km/h (2 Bft)
18.09.2019 12:34 12,0 °C 76 % 1020,6 hPa 0,0 mm 8,4 km/h (2 Bft) SO 128 ° 0 min 0,000 mm 3,1 UV-I 388 W/m² 7,9 °C 12,0 °C 11,3 km/h (2 Bft)
18.09.2019 12:35 12,1 °C 76 % 1020,6 hPa 0,0 mm 9,4 km/h (2 Bft) O-SO 116 ° 0 min 0,000 mm 3,1 UV-I 387 W/m² 8,0 °C 12,1 °C 14,5 km/h (3 Bft)
18.09.2019 12:36 12,2 °C 77 % 1020,6 hPa 0,0 mm 5,8 km/h (2 Bft) SO 139 ° 0 min 0,000 mm 3,1 UV-I 378 W/m² 8,3 °C 12,2 °C 9,7 km/h (2 Bft)
18.09.2019 12:37 12,1 °C 77 % 1020,6 hPa 0,0 mm 4,5 km/h (1 Bft) S-SO 157 ° 0 min 0,000 mm 3,1 UV-I 383 W/m² 8,2 °C 12,1 °C 6,4 km/h (2 Bft)
18.09.2019 12:38 12,1 °C 76 % 1020,6 hPa 0,0 mm 3,8 km/h (1 Bft) O 86 ° 0 min 0,000 mm 3,1 UV-I 404 W/m² 8,0 °C 12,1 °C 4,8 km/h (1 Bft)
18.09.2019 12:39 12,1 °C 76 % 1020,6 hPa 0,0 mm 3,6 km/h (1 Bft) O 93 ° 0 min 0,000 mm 3,2 UV-I 404 W/m² 8,0 °C 12,1 °C 6,4 km/h (2 Bft)
18.09.2019 12:40 12,2 °C 76 % 1020,6 hPa 0,0 mm 4,1 km/h (1 Bft) NO 44 ° 0 min 0,000 mm 3,1 UV-I 411 W/m² 8,1 °C 12,2 °C 9,7 km/h (2 Bft)
18.09.2019 12:41 12,2 °C 76 % 1020,6 hPa 0,0 mm 3,8 km/h (1 Bft) NO 36 ° 0 min 0,000 mm 3,1 UV-I 420 W/m² 8,1 °C 12,2 °C 4,8 km/h (1 Bft)
18.09.2019 12:42 12,3 °C 77 % 1020,6 hPa 0,0 mm 8,4 km/h (2 Bft) N-NO 28 ° 0 min 0,000 mm 3,0 UV-I 392 W/m² 8,4 °C 12,3 °C 14,5 km/h (3 Bft)
18.09.2019 12:43 12,4 °C 75 % 1020,6 hPa 0,0 mm 5,4 km/h (1 Bft) NO 42 ° 0 min 0,000 mm 2,9 UV-I 413 W/m² 8,1 °C 12,4 °C 8,0 km/h (2 Bft)
18.09.2019 12:44 12,5 °C 75 % 1020,6 hPa 0,0 mm 2,6 km/h (1 Bft) N 360 ° 0 min 0,000 mm 2,8 UV-I 399 W/m² 8,2 °C 12,5 °C 4,8 km/h (1 Bft)
18.09.2019 12:45 12,6 °C 77 % 1020,5 hPa 0,0 mm 2,5 km/h (1 Bft) N 5 ° 0 min 0,000 mm 2,4 UV-I 329 W/m² 8,7 °C 12,6 °C 4,8 km/h (1 Bft)
18.09.2019 12:46 12,7 °C 77 % 1020,5 hPa 0,0 mm 5,4 km/h (1 Bft) N-NO 19 ° 0 min 0,000 mm 2,4 UV-I 306 W/m² 8,8 °C 12,7 °C 8,0 km/h (2 Bft)
18.09.2019 12:47 12,7 °C 76 % 1020,5 hPa 0,0 mm 8,2 km/h (2 Bft) O-NO 63 ° 0 min 0,000 mm 2,4 UV-I 315 W/m² 8,6 °C 12,7 °C 14,5 km/h (3 Bft)
18.09.2019 12:48 12,8 °C 75 % 1020,6 hPa 0,0 mm 7,5 km/h (2 Bft) N-NW 331 ° 0 min 0,000 mm 2,5 UV-I 323 W/m² 8,5 °C 12,8 °C 9,7 km/h (2 Bft)
18.09.2019 12:49 12,8 °C 75 % 1020,6 hPa 0,0 mm 7,5 km/h (2 Bft) NO 56 ° 0 min 0,000 mm 2,7 UV-I 338 W/m² 8,5 °C 12,8 °C 9,7 km/h (2 Bft)
18.09.2019 12:50 12,8 °C 74 % 1020,6 hPa 0,0 mm 4,1 km/h (1 Bft) N 10 ° 0 min 0,000 mm 2,9 UV-I 367 W/m² 8,3 °C 12,8 °C 4,8 km/h (1 Bft)
18.09.2019 12:51 12,7 °C 75 % 1020,6 hPa 0,0 mm 8,1 km/h (2 Bft) O-NO 76 ° 0 min 0,000 mm 2,9 UV-I 385 W/m² 8,4 °C 12,7 °C 12,9 km/h (3 Bft)
18.09.2019 12:52 12,7 °C 74 % 1020,6 hPa 0,0 mm 10,0 km/h (2 Bft) N-NO 32 ° 0 min 0,000 mm 3,0 UV-I 388 W/m² 8,2 °C 12,7 °C 16,1 km/h (3 Bft)
18.09.2019 12:53 12,6 °C 74 % 1020,6 hPa 0,0 mm 6,5 km/h (2 Bft) NO 52 ° 0 min 0,000 mm 3,0 UV-I 403 W/m² 8,1 °C 12,6 °C 12,9 km/h (3 Bft)
18.09.2019 12:54 12,6 °C 74 % 1020,5 hPa 0,0 mm 4,5 km/h (1 Bft) NO 54 ° 0 min 0,000 mm 3,1 UV-I 404 W/m² 8,1 °C 12,6 °C 6,4 km/h (2 Bft)
18.09.2019 12:55 12,5 °C 74 % 1020,5 hPa 0,0 mm 7,3 km/h (2 Bft) N-NO 22 ° 0 min 0,000 mm 2,8 UV-I 374 W/m² 8,0 °C 12,5 °C 9,7 km/h (2 Bft)
18.09.2019 12:56 12,5 °C 75 % 1020,5 hPa 0,0 mm 5,4 km/h (1 Bft) NO 35 ° 0 min 0,000 mm 2,7 UV-I 352 W/m² 8,2 °C 12,5 °C 11,3 km/h (2 Bft)
18.09.2019 12:57 12,6 °C 74 % 1020,6 hPa 0,0 mm 9,4 km/h (2 Bft) O-NO 65 ° 0 min 0,000 mm 2,8 UV-I 352 W/m² 8,1 °C 12,6 °C 16,1 km/h (3 Bft)
18.09.2019 12:58 12,5 °C 74 % 1020,6 hPa 0,0 mm 7,3 km/h (2 Bft) O-NO 75 ° 0 min 0,000 mm 2,4 UV-I 301 W/m² 8,0 °C 12,5 °C 12,9 km/h (3 Bft)
18.09.2019 12:59 12,5 °C 74 % 1020,6 hPa 0,0 mm 6,3 km/h (2 Bft) N-NO 22 ° 0 min 0,000 mm 2,4 UV-I 281 W/m² 8,0 °C 12,5 °C 11,3 km/h (2 Bft)
18.09.2019 13:00 12,3 °C 73 % 1020,6 hPa 0,0 mm 11,8 km/h (2 Bft) O-NO 76 ° 0 min 0,000 mm 2,5 UV-I 299 W/m² 7,6 °C 12,3 °C 16,1 km/h (3 Bft)
18.09.2019 13:01 12,2 °C 73 % 1020,6 hPa 0,0 mm 11,7 km/h (2 Bft) O-NO 68 ° 0 min 0,203 mm 3,3 UV-I 299 W/m² 7,5 °C 12,2 °C 17,7 km/h (3 Bft)
18.09.2019 13:02 12,1 °C 74 % 1020,6 hPa 0,0 mm 7,6 km/h (2 Bft) NO 53 ° 0 min 0,000 mm 4,0 UV-I 299 W/m² 7,6 °C 12,1 °C 12,9 km/h (3 Bft)
18.09.2019 13:03 12,1 °C 75 % 1020,6 hPa 0,0 mm 9,3 km/h (2 Bft) NO 36 ° 0 min 0,000 mm 3,6 UV-I 554 W/m² 7,8 °C 12,1 °C 14,5 km/h (3 Bft)
18.09.2019 13:04 12,2 °C 75 % 1020,5 hPa 0,0 mm 5,2 km/h (1 Bft) O-NO 74 ° 0 min 0,000 mm 4,3 UV-I 462 W/m² 7,9 °C 12,2 °C 9,7 km/h (2 Bft)
18.09.2019 13:05 12,2 °C 75 % 1020,6 hPa 0,0 mm 5,6 km/h (1 Bft) O-NO 78 ° 0 min 0,000 mm 3,4 UV-I 425 W/m² 7,9 °C 12,2 °C 8,0 km/h (2 Bft)
18.09.2019 13:06 12,2 °C 75 % 1020,6 hPa 0,0 mm 6,1 km/h (2 Bft) NO 42 ° 0 min 0,000 mm 3,0 UV-I 355 W/m² 7,9 °C 12,2 °C 8,0 km/h (2 Bft)
18.09.2019 13:07 12,2 °C 74 % 1020,5 hPa 0,0 mm 4,6 km/h (1 Bft) O 88 ° 0 min 0,000 mm 3,1 UV-I 364 W/m² 7,7 °C 12,2 °C 11,3 km/h (2 Bft)
18.09.2019 13:08 12,2 °C 76 % 1020,6 hPa 0,0 mm 9,2 km/h (2 Bft) NO 50 ° 0 min 0,000 mm 3,6 UV-I 364 W/m² 8,1 °C 12,2 °C 14,5 km/h (3 Bft)
18.09.2019 13:09 12,2 °C 75 % 1020,6 hPa 0,0 mm 5,5 km/h (1 Bft) N-NO 33 ° 0 min 0,000 mm 3,6 UV-I 364 W/m² 7,9 °C 12,2 °C 14,5 km/h (3 Bft)
18.09.2019 13:10 12,2 °C 75 % 1020,6 hPa 0,0 mm 6,1 km/h (2 Bft) O-NO 61 ° 0 min 0,000 mm 2,8 UV-I 332 W/m² 7,9 °C 12,2 °C 12,9 km/h (3 Bft)
18.09.2019 13:11 12,2 °C 74 % 1020,5 hPa 0,0 mm 4,8 km/h (1 Bft) N-NW 329 ° 0 min 0,000 mm 2,9 UV-I 374 W/m² 7,7 °C 12,2 °C 9,7 km/h (2 Bft)
18.09.2019 13:12 12,2 °C 75 % 1020,5 hPa 0,0 mm 8,8 km/h (2 Bft) NO 41 ° 0 min 0,000 mm 3,3 UV-I 420 W/m² 7,9 °C 12,2 °C 14,5 km/h (3 Bft)
18.09.2019 13:13 12,2 °C 75 % 1020,5 hPa 0,0 mm 8,5 km/h (2 Bft) N-NO 21 ° 0 min 0,000 mm 3,8 UV-I 454 W/m² 7,9 °C 12,2 °C 14,5 km/h (3 Bft)
18.09.2019 13:14 12,4 °C 75 % 1020,5 hPa 0,0 mm 6,2 km/h (2 Bft) O-SO 108 ° 0 min 0,000 mm 3,7 UV-I 468 W/m² 8,1 °C 12,4 °C 11,3 km/h (2 Bft)
18.09.2019 13:15 12,4 °C 76 % 1020,5 hPa 0,0 mm 4,6 km/h (1 Bft) O 82 ° 0 min 0,000 mm 3,8 UV-I 468 W/m² 8,3 °C 12,4 °C 9,7 km/h (2 Bft)
18.09.2019 13:16 12,4 °C 75 % 1020,5 hPa 0,0 mm 6,6 km/h (2 Bft) O-NO 71 ° 0 min 0,000 mm 4,1 UV-I 468 W/m² 8,1 °C 12,4 °C 9,7 km/h (2 Bft)
18.09.2019 13:17 12,6 °C 76 % 1020,5 hPa 0,0 mm 6,2 km/h (2 Bft) O-NO 65 ° 1 min 0,000 mm 4,4 UV-I 742 W/m² 8,5 °C 12,6 °C 12,9 km/h (3 Bft)
18.09.2019 13:18 12,6 °C 76 % 1020,5 hPa 0,0 mm 8,5 km/h (2 Bft) N-NO 32 ° 1 min 0,000 mm 4,5 UV-I 742 W/m² 8,5 °C 12,6 °C 16,1 km/h (3 Bft)
18.09.2019 13:19 12,7 °C 74 % 1020,5 hPa 0,0 mm 3,2 km/h (1 Bft) O-NO 68 ° 0 min 0,000 mm 3,5 UV-I 387 W/m² 8,2 °C 12,7 °C 6,4 km/h (2 Bft)
18.09.2019 13:20 12,7 °C 75 % 1020,5 hPa 0,0 mm 2,8 km/h (1 Bft) O 89 ° 0 min 0,000 mm 3,2 UV-I 387 W/m² 8,4 °C 12,7 °C 6,4 km/h (2 Bft)
18.09.2019 13:21 12,7 °C 74 % 1020,5 hPa 0,0 mm 6,2 km/h (2 Bft) O 80 ° 0 min 0,000 mm 2,8 UV-I 387 W/m² 8,2 °C 12,7 °C 8,0 km/h (2 Bft)
18.09.2019 13:22 12,7 °C 73 % 1020,4 hPa 0,0 mm 3,3 km/h (1 Bft) O-NO 63 ° 0 min 0,000 mm 2,8 UV-I 251 W/m² 8,0 °C 12,7 °C 6,4 km/h (2 Bft)
18.09.2019 13:23 12,6 °C 74 % 1020,4 hPa 0,0 mm 6,4 km/h (2 Bft) O 79 ° 0 min 0,000 mm 3,0 UV-I 295 W/m² 8,1 °C 12,6 °C 11,3 km/h (2 Bft)
18.09.2019 13:24 12,4 °C 74 % 1020,5 hPa 0,0 mm 8,0 km/h (2 Bft) O-NO 74 ° 0 min 0,000 mm 4,4 UV-I 295 W/m² 7,9 °C 12,4 °C 12,9 km/h (3 Bft)
18.09.2019 13:25 12,3 °C 73 % 1020,4 hPa 0,0 mm 6,3 km/h (2 Bft) O-NO 67 ° 0 min 0,000 mm 4,7 UV-I 295 W/m² 7,6 °C 12,3 °C 14,5 km/h (3 Bft)
18.09.2019 13:26 12,3 °C 75 % 1020,4 hPa 0,0 mm 8,2 km/h (2 Bft) N-NO 29 ° 0 min 0,000 mm 3,0 UV-I 295 W/m² 8,0 °C 12,3 °C 11,3 km/h (2 Bft)
18.09.2019 13:27 12,4 °C 74 % 1020,4 hPa 0,0 mm 9,1 km/h (2 Bft) NO 45 ° 0 min 0,000 mm 3,3 UV-I 290 W/m² 7,9 °C 12,4 °C 16,1 km/h (3 Bft)
18.09.2019 13:28 12,4 °C 74 % 1020,4 hPa 0,0 mm 6,1 km/h (2 Bft) NO 53 ° 0 min 0,000 mm 4,5 UV-I 290 W/m² 7,9 °C 12,4 °C 9,7 km/h (2 Bft)
18.09.2019 13:29 12,4 °C 74 % 1020,4 hPa 0,0 mm 5,6 km/h (1 Bft) N-NW 342 ° 1 min 0,000 mm 4,4 UV-I 701 W/m² 7,9 °C 12,4 °C 8,0 km/h (2 Bft)
18.09.2019 13:30 12,5 °C 74 % 1020,4 hPa 0,0 mm 6,7 km/h (2 Bft) NO 44 ° 1 min 0,000 mm 1,9 UV-I 649 W/m² 8,0 °C 12,5 °C 11,3 km/h (2 Bft)
18.09.2019 13:31 12,6 °C 74 % 1020,3 hPa 0,0 mm 3,7 km/h (1 Bft) NW 318 ° 1 min 0,000 mm 1,7 UV-I 649 W/m² 8,1 °C 12,6 °C 4,8 km/h (1 Bft)
18.09.2019 13:32 12,6 °C 74 % 1020,4 hPa 0,0 mm 4,1 km/h (1 Bft) N-NO 20 ° 0 min 0,000 mm 2,9 UV-I 197 W/m² 8,1 °C 12,6 °C 6,4 km/h (2 Bft)
18.09.2019 13:33 12,6 °C 77 % 1020,4 hPa 0,0 mm 4,2 km/h (1 Bft) N 360 ° 0 min 0,000 mm 4,6 UV-I 197 W/m² 8,7 °C 12,6 °C 6,4 km/h (2 Bft)
18.09.2019 13:34 12,8 °C 77 % 1020,3 hPa 0,0 mm 3,2 km/h (1 Bft) O-NO 61 ° 1 min 0,000 mm 4,5 UV-I 714 W/m² 8,9 °C 12,8 °C 6,4 km/h (2 Bft)
18.09.2019 13:35 12,9 °C 75 % 1020,4 hPa 0,0 mm 6,7 km/h (2 Bft) O 87 ° 1 min 0,000 mm 4,5 UV-I 714 W/m² 8,6 °C 12,9 °C 9,7 km/h (2 Bft)
18.09.2019 13:36 12,9 °C 74 % 1020,4 hPa 0,0 mm 5,1 km/h (1 Bft) O-SO 102 ° 1 min 0,000 mm 4,5 UV-I 714 W/m² 8,4 °C 12,9 °C 11,3 km/h (2 Bft)
18.09.2019 13:37 12,8 °C 73 % 1020,4 hPa 0,0 mm 4,0 km/h (1 Bft) N-NO 15 ° 1 min 0,000 mm 4,5 UV-I 714 W/m² 8,1 °C 12,8 °C 11,3 km/h (2 Bft)
18.09.2019 13:38 12,8 °C 75 % 1020,4 hPa 0,0 mm 6,7 km/h (2 Bft) NO 51 ° 1 min 0,000 mm 4,3 UV-I 714 W/m² 8,5 °C 12,8 °C 9,7 km/h (2 Bft)
18.09.2019 13:39 12,8 °C 73 % 1020,3 hPa 0,0 mm 6,6 km/h (2 Bft) O-NO 68 ° 1 min 0,000 mm 4,6 UV-I 744 W/m² 8,1 °C 12,8 °C 14,5 km/h (3 Bft)
18.09.2019 13:40 12,8 °C 73 % 1020,4 hPa 0,0 mm 7,3 km/h (2 Bft) N-NO 26 ° 1 min 0,000 mm 4,6 UV-I 770 W/m² 8,1 °C 12,8 °C 12,9 km/h (3 Bft)
18.09.2019 13:41 12,9 °C 74 % 1020,3 hPa 0,0 mm 6,4 km/h (2 Bft) O-NO 65 ° 1 min 0,000 mm 4,5 UV-I 770 W/m² 8,4 °C 12,9 °C 8,0 km/h (2 Bft)
18.09.2019 13:42 12,9 °C 74 % 1020,4 hPa 0,0 mm 7,9 km/h (2 Bft) O 81 ° 0 min 0,000 mm 2,8 UV-I 213 W/m² 8,4 °C 12,9 °C 14,5 km/h (3 Bft)
18.09.2019 13:43 12,9 °C 74 % 1020,3 hPa 0,0 mm 6,6 km/h (2 Bft) NO 45 ° 0 min 0,000 mm 4,5 UV-I 213 W/m² 8,4 °C 12,9 °C 12,9 km/h (3 Bft)
18.09.2019 13:44 12,9 °C 75 % 1020,3 hPa 0,0 mm 4,9 km/h (1 Bft) O-NO 60 ° 1 min 0,000 mm 4,6 UV-I 745 W/m² 8,6 °C 12,9 °C 8,0 km/h (2 Bft)
18.09.2019 13:45 13,1 °C 75 % 1020,3 hPa 0,0 mm 10,1 km/h (2 Bft) NO 52 ° 1 min 0,000 mm 4,5 UV-I 729 W/m² 8,8 °C 13,1 °C 17,7 km/h (3 Bft)
18.09.2019 13:46 13,2 °C 75 % 1020,3 hPa 0,0 mm 4,7 km/h (1 Bft) NO 52 ° 1 min 0,000 mm 4,5 UV-I 721 W/m² 8,9 °C 13,2 °C 8,0 km/h (2 Bft)
18.09.2019 13:47 13,2 °C 74 % 1020,3 hPa 0,0 mm 3,2 km/h (1 Bft) O-NO 74 ° 1 min 0,000 mm 4,4 UV-I 719 W/m² 8,7 °C 13,2 °C 6,4 km/h (2 Bft)
18.09.2019 13:48 13,2 °C 74 % 1020,3 hPa 0,0 mm 4,5 km/h (1 Bft) O-SO 109 ° 1 min 0,000 mm 3,6 UV-I 719 W/m² 8,7 °C 13,2 °C 9,7 km/h (2 Bft)
18.09.2019 13:49 13,2 °C 72 % 1020,3 hPa 0,0 mm 1,9 km/h (1 Bft) O-SO 111 ° 0 min 0,000 mm 3,8 UV-I 434 W/m² 8,3 °C 13,2 °C 3,2 km/h (1 Bft)
18.09.2019 13:50 13,1 °C 73 % 1020,3 hPa 0,0 mm 0,5 km/h (0 Bft) O-SO 111 ° 0 min 0,000 mm 3,4 UV-I 367 W/m² 8,4 °C 13,1 °C 3,2 km/h (1 Bft)
18.09.2019 13:51 13,1 °C 74 % 1020,3 hPa 0,0 mm 4,1 km/h (1 Bft) N-NW 331 ° 0 min 0,000 mm 4,1 UV-I 367 W/m² 8,6 °C 13,1 °C 8,0 km/h (2 Bft)
18.09.2019 13:52 13,3 °C 76 % 1020,2 hPa 0,0 mm 5,9 km/h (2 Bft) O-NO 59 ° 1 min 0,000 mm 4,5 UV-I 744 W/m² 9,2 °C 13,3 °C 8,0 km/h (2 Bft)
18.09.2019 13:53 13,4 °C 75 % 1020,2 hPa 0,0 mm 7,6 km/h (2 Bft) O 95 ° 1 min 0,000 mm 4,6 UV-I 744 W/m² 9,1 °C 13,4 °C 12,9 km/h (3 Bft)
18.09.2019 13:54 13,4 °C 73 % 1020,3 hPa 0,0 mm 4,3 km/h (1 Bft) NO 41 ° 1 min 0,000 mm 4,6 UV-I 686 W/m² 8,7 °C 13,4 °C 8,0 km/h (2 Bft)
18.09.2019 13:55 13,5 °C 72 % 1020,2 hPa 0,0 mm 10,3 km/h (2 Bft) NO 56 ° 1 min 0,000 mm 4,5 UV-I 703 W/m² 8,6 °C 13,5 °C 14,5 km/h (3 Bft)
18.09.2019 13:56 13,5 °C 71 % 1020,3 hPa 0,0 mm 8,2 km/h (2 Bft) N-NO 30 ° 1 min 0,000 mm 3,9 UV-I 703 W/m² 8,3 °C 13,5 °C 12,9 km/h (3 Bft)
18.09.2019 13:57 13,4 °C 72 % 1020,2 hPa 0,0 mm 6,8 km/h (2 Bft) O 82 ° 1 min 0,000 mm 4,4 UV-I 703 W/m² 8,5 °C 13,4 °C 12,9 km/h (3 Bft)
18.09.2019 13:58 13,4 °C 72 % 1020,2 hPa 0,0 mm 6,8 km/h (2 Bft) O-NO 63 ° 1 min 0,000 mm 4,4 UV-I 710 W/m² 8,5 °C 13,4 °C 11,3 km/h (2 Bft)
18.09.2019 13:59 13,4 °C 72 % 1020,2 hPa 0,0 mm 7,4 km/h (2 Bft) O-NO 66 ° 1 min 0,000 mm 4,5 UV-I 712 W/m² 8,5 °C 13,4 °C 14,5 km/h (3 Bft)
18.09.2019 14:00 13,3 °C 72 % 1020,3 hPa 0,0 mm 5,9 km/h (2 Bft) O-SO 108 ° 1 min 0,000 mm 4,4 UV-I 700 W/m² 8,4 °C 13,3 °C 9,7 km/h (2 Bft)
18.09.2019 14:01 13,3 °C 71 % 1020,2 hPa 0,0 mm 6,6 km/h (2 Bft) O-NO 67 ° 1 min 0,279 mm 4,4 UV-I 629 W/m² 8,2 °C 13,3 °C 8,0 km/h (2 Bft)
18.09.2019 14:02 13,3 °C 72 % 1020,2 hPa 0,0 mm 5,1 km/h (1 Bft) NO 44 ° 0 min 0,000 mm 4,0 UV-I 589 W/m² 8,4 °C 13,3 °C 9,7 km/h (2 Bft)
18.09.2019 14:03 13,3 °C 73 % 1020,2 hPa 0,0 mm 3,9 km/h (1 Bft) O-SO 119 ° 0 min 0,000 mm 4,5 UV-I 589 W/m² 8,6 °C 13,3 °C 6,4 km/h (2 Bft)
18.09.2019 14:04 13,4 °C 73 % 1020,2 hPa 0,0 mm 7,3 km/h (2 Bft) O-NO 61 ° 1 min 0,000 mm 4,5 UV-I 745 W/m² 8,7 °C 13,4 °C 14,5 km/h (3 Bft)
18.09.2019 14:05 13,4 °C 72 % 1020,1 hPa 0,0 mm 14,2 km/h (3 Bft) N 351 ° 1 min 0,000 mm 4,5 UV-I 749 W/m² 8,5 °C 13,4 °C 17,7 km/h (3 Bft)
18.09.2019 14:06 13,6 °C 72 % 1020,2 hPa 0,0 mm 6,3 km/h (2 Bft) O-NO 57 ° 1 min 0,000 mm 3,8 UV-I 749 W/m² 8,6 °C 13,6 °C 12,9 km/h (3 Bft)
18.09.2019 14:07 13,7 °C 72 % 1020,1 hPa 0,0 mm 3,4 km/h (1 Bft) N 355 ° 0 min 0,000 mm 3,3 UV-I 554 W/m² 8,7 °C 13,7 °C 6,4 km/h (2 Bft)
18.09.2019 14:08 13,7 °C 71 % 1020,1 hPa 0,0 mm 7,4 km/h (2 Bft) NO 55 ° 0 min 0,000 mm 2,6 UV-I 554 W/m² 8,5 °C 13,7 °C 12,9 km/h (3 Bft)
18.09.2019 14:09 13,7 °C 72 % 1020,2 hPa 0,0 mm 8,3 km/h (2 Bft) O-NO 76 ° 0 min 0,000 mm 2,4 UV-I 554 W/m² 8,7 °C 13,7 °C 12,9 km/h (3 Bft)
18.09.2019 14:10 13,6 °C 71 % 1020,2 hPa 0,0 mm 7,8 km/h (2 Bft) O-NO 76 ° 0 min 0,000 mm 2,4 UV-I 213 W/m² 8,4 °C 13,6 °C 12,9 km/h (3 Bft)
18.09.2019 14:11 13,4 °C 71 % 1020,1 hPa 0,0 mm 7,8 km/h (2 Bft) O 82 ° 0 min 0,000 mm 2,5 UV-I 230 W/m² 8,3 °C 13,4 °C 9,7 km/h (2 Bft)
18.09.2019 14:12 13,3 °C 72 % 1020,1 hPa 0,0 mm 4,7 km/h (1 Bft) NO 52 ° 0 min 0,000 mm 2,5 UV-I 253 W/m² 8,4 °C 13,3 °C 8,0 km/h (2 Bft)
18.09.2019 14:13 13,2 °C 72 % 1020,1 hPa 0,0 mm 1,2 km/h (1 Bft) O-NO 69 ° 0 min 0,000 mm 2,6 UV-I 267 W/m² 8,3 °C 13,2 °C 3,2 km/h (1 Bft)
18.09.2019 14:14 13,2 °C 73 % 1020,1 hPa 0,0 mm 3,6 km/h (1 Bft) O-NO 63 ° 0 min 0,000 mm 2,6 UV-I 260 W/m² 8,5 °C 13,2 °C 8,0 km/h (2 Bft)
18.09.2019 14:15 13,1 °C 73 % 1020,1 hPa 0,0 mm 6,0 km/h (2 Bft) O 92 ° 0 min 0,000 mm 2,6 UV-I 336 W/m² 8,4 °C 13,1 °C 14,5 km/h (3 Bft)
18.09.2019 14:16 13,1 °C 73 % 1020,1 hPa 0,0 mm 3,5 km/h (1 Bft) N-NO 21 ° 0 min 0,000 mm 3,4 UV-I 336 W/m² 8,4 °C 13,1 °C 6,4 km/h (2 Bft)
18.09.2019 14:17 13,2 °C 73 % 1020,1 hPa 0,0 mm 4,1 km/h (1 Bft) N-NO 26 ° 1 min 0,000 mm 4,1 UV-I 809 W/m² 8,5 °C 13,2 °C 4,8 km/h (1 Bft)
18.09.2019 14:18 13,4 °C 77 % 1020,1 hPa 0,0 mm 3,8 km/h (1 Bft) O-NO 57 ° 1 min 0,000 mm 2,9 UV-I 809 W/m² 9,5 °C 13,4 °C 9,7 km/h (2 Bft)
18.09.2019 14:19 13,4 °C 73 % 1020,1 hPa 0,0 mm 5,4 km/h (1 Bft) NO 48 ° 0 min 0,000 mm 2,8 UV-I 294 W/m² 8,7 °C 13,4 °C 12,9 km/h (3 Bft)
18.09.2019 14:20 13,4 °C 72 % 1020,1 hPa 0,0 mm 7,6 km/h (2 Bft) O 79 ° 0 min 0,000 mm 2,8 UV-I 306 W/m² 8,5 °C 13,4 °C 11,3 km/h (2 Bft)
18.09.2019 14:21 13,4 °C 71 % 1020,1 hPa 0,0 mm 6,3 km/h (2 Bft) NO 55 ° 0 min 0,000 mm 3,0 UV-I 338 W/m² 8,3 °C 13,4 °C 11,3 km/h (2 Bft)
18.09.2019 14:22 13,3 °C 71 % 1020,1 hPa 0,0 mm 4,8 km/h (1 Bft) O-NO 74 ° 0 min 0,000 mm 2,9 UV-I 309 W/m² 8,2 °C 13,3 °C 12,9 km/h (3 Bft)
18.09.2019 14:23 13,2 °C 72 % 1020,0 hPa 0,0 mm 3,7 km/h (1 Bft) O-SO 105 ° 0 min 0,000 mm 2,6 UV-I 281 W/m² 8,3 °C 13,2 °C 6,4 km/h (2 Bft)
18.09.2019 14:24 13,2 °C 72 % 1020,1 hPa 0,0 mm 5,3 km/h (1 Bft) SO 125 ° 0 min 0,000 mm 2,5 UV-I 244 W/m² 8,3 °C 13,2 °C 6,4 km/h (2 Bft)
18.09.2019 14:25 13,2 °C 73 % 1020,1 hPa 0,0 mm 3,9 km/h (1 Bft) O-NO 72 ° 0 min 0,000 mm 2,4 UV-I 229 W/m² 8,5 °C 13,2 °C 6,4 km/h (2 Bft)
18.09.2019 14:26 13,2 °C 72 % 1020,1 hPa 0,0 mm 4,2 km/h (1 Bft) O-NO 65 ° 0 min 0,000 mm 2,4 UV-I 230 W/m² 8,3 °C 13,2 °C 6,4 km/h (2 Bft)
18.09.2019 14:27 13,1 °C 72 % 1020,1 hPa 0,0 mm 7,6 km/h (2 Bft) O 88 ° 0 min 0,000 mm 2,5 UV-I 287 W/m² 8,2 °C 13,1 °C 11,3 km/h (2 Bft)
18.09.2019 14:28 13,1 °C 73 % 1020,1 hPa 0,0 mm 3,3 km/h (1 Bft) O-NO 60 ° 0 min 0,000 mm 2,7 UV-I 320 W/m² 8,4 °C 13,1 °C 6,4 km/h (2 Bft)
18.09.2019 14:29 13,1 °C 74 % 1020,2 hPa 0,0 mm 9,2 km/h (2 Bft) NO 40 ° 0 min 0,000 mm 3,1 UV-I 403 W/m² 8,6 °C 13,1 °C 16,1 km/h (3 Bft)
18.09.2019 14:30 13,1 °C 72 % 1020,1 hPa 0,0 mm 8,1 km/h (2 Bft) NO 40 ° 0 min 0,000 mm 3,1 UV-I 475 W/m² 8,2 °C 13,1 °C 16,1 km/h (3 Bft)
18.09.2019 14:31 13,1 °C 72 % 1020,1 hPa 0,0 mm 4,6 km/h (1 Bft) SO 134 ° 0 min 0,000 mm 3,5 UV-I 513 W/m² 8,2 °C 13,1 °C 8,0 km/h (2 Bft)
18.09.2019 14:32 13,1 °C 73 % 1020,1 hPa 0,0 mm 3,5 km/h (1 Bft) NO 42 ° 0 min 0,000 mm 3,2 UV-I 499 W/m² 8,4 °C 13,1 °C 6,4 km/h (2 Bft)
18.09.2019 14:33 13,2 °C 73 % 1020,0 hPa 0,0 mm 1,7 km/h (1 Bft) O-NO 57 ° 0 min 0,000 mm 2,8 UV-I 290 W/m² 8,5 °C 13,2 °C 4,8 km/h (1 Bft)
18.09.2019 14:34 13,1 °C 72 % 1020,1 hPa 0,0 mm 4,6 km/h (1 Bft) SO 132 ° 0 min 0,000 mm 2,5 UV-I 271 W/m² 8,2 °C 13,1 °C 9,7 km/h (2 Bft)
18.09.2019 14:35 13,1 °C 72 % 1020,1 hPa 0,0 mm 5,5 km/h (1 Bft) O 96 ° 0 min 0,000 mm 2,6 UV-I 274 W/m² 8,2 °C 13,1 °C 9,7 km/h (2 Bft)
18.09.2019 14:36 13,1 °C 71 % 1020,0 hPa 0,0 mm 3,4 km/h (1 Bft) O-NO 74 ° 0 min 0,000 mm 2,7 UV-I 301 W/m² 8,0 °C 13,1 °C 6,4 km/h (2 Bft)
18.09.2019 14:37 13,0 °C 71 % 1020,0 hPa 0,0 mm 2,7 km/h (1 Bft) S-SO 159 ° 0 min 0,000 mm 2,8 UV-I 318 W/m² 7,9 °C 13,0 °C 6,4 km/h (2 Bft)
18.09.2019 14:38 13,0 °C 72 % 1020,0 hPa 0,0 mm 5,3 km/h (1 Bft) NO 51 ° 0 min 0,000 mm 2,9 UV-I 359 W/m² 8,1 °C 13,0 °C 12,9 km/h (3 Bft)
18.09.2019 14:39 13,1 °C 72 % 1020,0 hPa 0,0 mm 5,6 km/h (1 Bft) S-SO 148 ° 0 min 0,000 mm 2,9 UV-I 369 W/m² 8,2 °C 13,1 °C 9,7 km/h (2 Bft)
18.09.2019 14:40 13,1 °C 73 % 1020,1 hPa 0,0 mm 2,6 km/h (1 Bft) SO 134 ° 0 min 0,000 mm 2,8 UV-I 355 W/m² 8,4 °C 13,1 °C 4,8 km/h (1 Bft)
18.09.2019 14:41 13,2 °C 73 % 1020,0 hPa 0,0 mm 4,3 km/h (1 Bft) O 88 ° 0 min 0,000 mm 2,7 UV-I 339 W/m² 8,5 °C 13,2 °C 6,4 km/h (2 Bft)
18.09.2019 14:42 13,3 °C 74 % 1020,0 hPa 0,0 mm 2,5 km/h (1 Bft) NO 34 ° 0 min 0,000 mm 2,6 UV-I 325 W/m² 8,8 °C 13,3 °C 4,8 km/h (1 Bft)
18.09.2019 14:43 13,4 °C 74 % 1020,1 hPa 0,0 mm 7,1 km/h (2 Bft) O-NO 61 ° 0 min 0,000 mm 2,6 UV-I 320 W/m² 8,9 °C 13,4 °C 12,9 km/h (3 Bft)
18.09.2019 14:44 13,5 °C 74 % 1020,0 hPa 0,0 mm 4,7 km/h (1 Bft) O-SO 113 ° 0 min 0,000 mm 2,6 UV-I 316 W/m² 9,0 °C 13,5 °C 6,4 km/h (2 Bft)
18.09.2019 14:45 13,6 °C 73 % 1020,0 hPa 0,0 mm 3,6 km/h (1 Bft) SO 136 ° 0 min 0,000 mm 2,7 UV-I 336 W/m² 8,9 °C 13,6 °C 4,8 km/h (1 Bft)
18.09.2019 14:46 13,5 °C 72 % 1020,0 hPa 0,0 mm 3,7 km/h (1 Bft) O-NO 69 ° 0 min 0,000 mm 2,8 UV-I 350 W/m² 8,6 °C 13,5 °C 9,7 km/h (2 Bft)
18.09.2019 14:47 13,5 °C 73 % 1020,0 hPa 0,0 mm 6,6 km/h (2 Bft) O-NO 74 ° 0 min 0,000 mm 2,9 UV-I 376 W/m² 8,8 °C 13,5 °C 11,3 km/h (2 Bft)
18.09.2019 14:48 13,5 °C 72 % 1020,0 hPa 0,0 mm 6,3 km/h (2 Bft) O 80 ° 0 min 0,000 mm 2,9 UV-I 397 W/m² 8,6 °C 13,5 °C 8,0 km/h (2 Bft)
18.09.2019 14:49 13,5 °C 72 % 1020,0 hPa 0,0 mm 5,2 km/h (1 Bft) O 84 ° 0 min 0,000 mm 3,1 UV-I 424 W/m² 8,6 °C 13,5 °C 8,0 km/h (2 Bft)
18.09.2019 14:50 13,5 °C 72 % 1020,0 hPa 0,0 mm 3,4 km/h (1 Bft) NO 45 ° 0 min 0,000 mm 3,5 UV-I 424 W/m² 8,6 °C 13,5 °C 6,4 km/h (2 Bft)
18.09.2019 14:51 13,6 °C 72 % 1019,9 hPa 0,0 mm 5,2 km/h (1 Bft) NO 53 ° 0 min 0,000 mm 3,2 UV-I 503 W/m² 8,6 °C 13,6 °C 6,4 km/h (2 Bft)
18.09.2019 14:52 13,8 °C 74 % 1019,9 hPa 0,0 mm 5,3 km/h (1 Bft) NO 44 ° 0 min 0,000 mm 3,1 UV-I 445 W/m² 9,2 °C 13,8 °C 8,0 km/h (2 Bft)
18.09.2019 14:53 13,9 °C 72 % 1019,9 hPa 0,0 mm 2,0 km/h (1 Bft) O-NO 57 ° 0 min 0,000 mm 3,1 UV-I 434 W/m² 8,9 °C 13,9 °C 4,8 km/h (1 Bft)
18.09.2019 14:54 13,9 °C 73 % 1019,9 hPa 0,0 mm 6,4 km/h (2 Bft) O-NO 76 ° 0 min 0,000 mm 3,5 UV-I 434 W/m² 9,1 °C 13,9 °C 9,7 km/h (2 Bft)
18.09.2019 14:55 14,0 °C 71 % 1019,9 hPa 0,0 mm 5,4 km/h (1 Bft) NO 46 ° 0 min 0,000 mm 3,4 UV-I 534 W/m² 8,8 °C 14,0 °C 9,7 km/h (2 Bft)
18.09.2019 14:56 13,9 °C 71 % 1019,8 hPa 0,0 mm 7,2 km/h (2 Bft) W-NW 294 ° 1 min 0,000 mm 3,4 UV-I 605 W/m² 8,7 °C 13,9 °C 11,3 km/h (2 Bft)
18.09.2019 14:57 14,0 °C 71 % 1019,9 hPa 0,0 mm 4,8 km/h (1 Bft) O-NO 62 ° 0 min 0,000 mm 3,0 UV-I 427 W/m² 8,8 °C 14,0 °C 6,4 km/h (2 Bft)
18.09.2019 14:58 13,9 °C 72 % 1019,9 hPa 0,0 mm 10,2 km/h (2 Bft) O-NO 60 ° 0 min 0,000 mm 2,7 UV-I 427 W/m² 8,9 °C 13,9 °C 17,7 km/h (3 Bft)
18.09.2019 14:59 13,9 °C 71 % 1019,9 hPa 0,0 mm 10,4 km/h (2 Bft) O 84 ° 0 min 0,000 mm 2,6 UV-I 288 W/m² 8,7 °C 13,9 °C 14,5 km/h (3 Bft)
18.09.2019 15:00 13,9 °C 70 % 1019,9 hPa 0,0 mm 7,1 km/h (2 Bft) O-NO 57 ° 0 min 0,000 mm 2,6 UV-I 278 W/m² 8,5 °C 13,9 °C 12,9 km/h (3 Bft)
18.09.2019 15:01 13,8 °C 70 % 1019,9 hPa 0,0 mm 5,2 km/h (1 Bft) N-NO 30 ° 0 min 0,229 mm 2,6 UV-I 306 W/m² 8,4 °C 13,8 °C 9,7 km/h (2 Bft)
18.09.2019 15:02 13,8 °C 70 % 1020,0 hPa 0,0 mm 9,1 km/h (2 Bft) N 355 ° 0 min 0,000 mm 2,7 UV-I 339 W/m² 8,4 °C 13,8 °C 14,5 km/h (3 Bft)
18.09.2019 15:03 13,8 °C 71 % 1019,9 hPa 0,0 mm 7,4 km/h (2 Bft) N-NO 13 ° 0 min 0,000 mm 2,7 UV-I 306 W/m² 8,6 °C 13,8 °C 12,9 km/h (3 Bft)
18.09.2019 15:04 13,8 °C 70 % 1019,9 hPa 0,0 mm 5,1 km/h (1 Bft) NO 39 ° 0 min 0,000 mm 2,6 UV-I 318 W/m² 8,4 °C 13,8 °C 11,3 km/h (2 Bft)
18.09.2019 15:05 13,7 °C 70 % 1019,9 hPa 0,0 mm 5,8 km/h (2 Bft) O-NO 78 ° 0 min 0,000 mm 2,8 UV-I 345 W/m² 8,3 °C 13,7 °C 11,3 km/h (2 Bft)
18.09.2019 15:06 13,7 °C 71 % 1020,0 hPa 0,0 mm 6,1 km/h (2 Bft) O-NO 62 ° 0 min 0,000 mm 2,8 UV-I 441 W/m² 8,5 °C 13,7 °C 6,4 km/h (2 Bft)
18.09.2019 15:07 13,7 °C 72 % 1020,0 hPa 0,0 mm 6,6 km/h (2 Bft) NO 40 ° 0 min 0,000 mm 2,8 UV-I 359 W/m² 8,7 °C 13,7 °C 9,7 km/h (2 Bft)
18.09.2019 15:08 13,7 °C 71 % 1020,0 hPa 0,0 mm 3,4 km/h (1 Bft) N 5 ° 0 min 0,000 mm 2,8 UV-I 418 W/m² 8,5 °C 13,7 °C 8,0 km/h (2 Bft)
18.09.2019 15:09 13,7 °C 72 % 1019,9 hPa 0,0 mm 4,9 km/h (1 Bft) NO 40 ° 0 min 0,000 mm 2,6 UV-I 357 W/m² 8,7 °C 13,7 °C 6,4 km/h (2 Bft)
18.09.2019 15:10 13,8 °C 71 % 1019,9 hPa 0,0 mm 7,8 km/h (2 Bft) NO 38 ° 0 min 0,000 mm 2,4 UV-I 320 W/m² 8,6 °C 13,8 °C 11,3 km/h (2 Bft)
18.09.2019 15:11 13,8 °C 72 % 1019,9 hPa 0,0 mm 5,9 km/h (2 Bft) O-NO 78 ° 0 min 0,000 mm 2,4 UV-I 292 W/m² 8,8 °C 13,8 °C 12,9 km/h (3 Bft)
18.09.2019 15:12 13,8 °C 72 % 1019,9 hPa 0,0 mm 11,3 km/h (2 Bft) O-NO 75 ° 0 min 0,000 mm 2,1 UV-I 262 W/m² 8,8 °C 13,8 °C 16,1 km/h (3 Bft)
18.09.2019 15:13 13,8 °C 71 % 1020,0 hPa 0,0 mm 7,2 km/h (2 Bft) O-NO 61 ° 0 min 0,000 mm 2,0 UV-I 230 W/m² 8,6 °C 13,8 °C 12,9 km/h (3 Bft)
18.09.2019 15:14 13,8 °C 71 % 1020,0 hPa 0,0 mm 7,8 km/h (2 Bft) O-NO 63 ° 0 min 0,000 mm 1,9 UV-I 188 W/m² 8,6 °C 13,8 °C 11,3 km/h (2 Bft)
18.09.2019 15:15 13,8 °C 71 % 1020,0 hPa 0,0 mm 7,3 km/h (2 Bft) NO 36 ° 0 min 0,000 mm 1,9 UV-I 181 W/m² 8,6 °C 13,8 °C 9,7 km/h (2 Bft)
18.09.2019 15:16 13,8 °C 71 % 1019,9 hPa 0,0 mm 6,5 km/h (2 Bft) O-NO 60 ° 0 min 0,000 mm 1,9 UV-I 176 W/m² 8,6 °C 13,8 °C 9,7 km/h (2 Bft)
18.09.2019 15:17 13,7 °C 71 % 1019,9 hPa 0,0 mm 8,3 km/h (2 Bft) O-NO 65 ° 0 min 0,000 mm 1,9 UV-I 174 W/m² 8,5 °C 13,7 °C 16,1 km/h (3 Bft)
18.09.2019 15:18 13,7 °C 70 % 1019,9 hPa 0,0 mm 8,9 km/h (2 Bft) N 360 ° 0 min 0,000 mm 2,0 UV-I 181 W/m² 8,3 °C 13,7 °C 16,1 km/h (3 Bft)
18.09.2019 15:19 13,6 °C 72 % 1019,9 hPa 0,0 mm 6,0 km/h (2 Bft) O 99 ° 0 min 0,000 mm 2,0 UV-I 197 W/m² 8,6 °C 13,6 °C 9,7 km/h (2 Bft)
18.09.2019 15:20 13,6 °C 72 % 1019,9 hPa 0,0 mm 4,7 km/h (1 Bft) O 83 ° 0 min 0,000 mm 2,1 UV-I 241 W/m² 8,6 °C 13,6 °C 9,7 km/h (2 Bft)
18.09.2019 15:21 13,5 °C 72 % 1020,0 hPa 0,0 mm 3,2 km/h (1 Bft) NO 51 ° 0 min 0,000 mm 2,2 UV-I 267 W/m² 8,6 °C 13,5 °C 4,8 km/h (1 Bft)
18.09.2019 15:22 13,5 °C 72 % 1020,0 hPa 0,0 mm 4,5 km/h (1 Bft) NO 40 ° 0 min 0,000 mm 2,2 UV-I 288 W/m² 8,6 °C 13,5 °C 6,4 km/h (2 Bft)
18.09.2019 15:23 13,5 °C 71 % 1020,0 hPa 0,0 mm 7,5 km/h (2 Bft) O 80 ° 0 min 0,000 mm 2,2 UV-I 297 W/m² 8,3 °C 13,5 °C 9,7 km/h (2 Bft)
18.09.2019 15:24 13,5 °C 71 % 1020,0 hPa 0,0 mm 5,5 km/h (1 Bft) NO 51 ° 0 min 0,000 mm 2,1 UV-I 285 W/m² 8,3 °C 13,5 °C 8,0 km/h (2 Bft)
18.09.2019 15:25 13,5 °C 71 % 1020,0 hPa 0,0 mm 4,1 km/h (1 Bft) SW 217 ° 0 min 0,000 mm 2,1 UV-I 264 W/m² 8,3 °C 13,5 °C 4,8 km/h (1 Bft)
18.09.2019 15:26 13,6 °C 71 % 1020,0 hPa 0,0 mm 3,8 km/h (1 Bft) NO 51 ° 0 min 0,000 mm 2,0 UV-I 237 W/m² 8,4 °C 13,6 °C 8,0 km/h (2 Bft)
18.09.2019 15:27 13,7 °C 72 % 1020,0 hPa 0,0 mm 7,9 km/h (2 Bft) O-NO 74 ° 0 min 0,000 mm 1,9 UV-I 225 W/m² 8,7 °C 13,7 °C 12,9 km/h (3 Bft)
18.09.2019 15:28 13,7 °C 74 % 1019,9 hPa 0,0 mm 4,2 km/h (1 Bft) NO 52 ° 0 min 0,000 mm 1,9 UV-I 214 W/m² 9,2 °C 13,7 °C 6,4 km/h (2 Bft)
18.09.2019 15:29 13,7 °C 72 % 1019,9 hPa 0,0 mm 5,8 km/h (2 Bft) O-NO 73 ° 0 min 0,000 mm 1,9 UV-I 211 W/m² 8,7 °C 13,7 °C 6,4 km/h (2 Bft)
18.09.2019 15:30 13,8 °C 72 % 1019,9 hPa 0,0 mm 6,4 km/h (2 Bft) S-SO 157 ° 0 min 0,000 mm 1,9 UV-I 213 W/m² 8,8 °C 13,8 °C 11,3 km/h (2 Bft)
18.09.2019 15:31 13,8 °C 72 % 1019,9 hPa 0,0 mm 4,9 km/h (1 Bft) O 81 ° 0 min 0,000 mm 1,9 UV-I 216 W/m² 8,8 °C 13,8 °C 8,0 km/h (2 Bft)
18.09.2019 15:32 13,8 °C 71 % 1019,9 hPa 0,0 mm 4,8 km/h (1 Bft) O-NO 62 ° 0 min 0,000 mm 1,9 UV-I 225 W/m² 8,6 °C 13,8 °C 6,4 km/h (2 Bft)
18.09.2019 15:33 13,7 °C 72 % 1019,8 hPa 0,0 mm 3,3 km/h (1 Bft) O-NO 74 ° 0 min 0,000 mm 1,9 UV-I 225 W/m² 8,7 °C 13,7 °C 4,8 km/h (1 Bft)
18.09.2019 15:34 13,7 °C 72 % 1019,8 hPa 0,0 mm 2,7 km/h (1 Bft) NO 44 ° 0 min 0,000 mm 1,8 UV-I 221 W/m² 8,7 °C 13,7 °C 6,4 km/h (2 Bft)
18.09.2019 15:35 13,7 °C 73 % 1019,8 hPa 0,0 mm 5,4 km/h (1 Bft) NO 54 ° 0 min 0,000 mm 1,8 UV-I 214 W/m² 8,9 °C 13,7 °C 8,0 km/h (2 Bft)
18.09.2019 15:36 13,7 °C 74 % 1019,9 hPa 0,0 mm 3,6 km/h (1 Bft) O-NO 68 ° 0 min 0,000 mm 1,7 UV-I 202 W/m² 9,2 °C 13,7 °C 6,4 km/h (2 Bft)
18.09.2019 15:37 13,8 °C 73 % 1019,9 hPa 0,0 mm 5,3 km/h (1 Bft) N-NO 30 ° 0 min 0,000 mm 1,7 UV-I 192 W/m² 9,0 °C 13,8 °C 8,0 km/h (2 Bft)
18.09.2019 15:38 13,8 °C 73 % 1019,9 hPa 0,0 mm 4,0 km/h (1 Bft) O 86 ° 0 min 0,000 mm 1,6 UV-I 183 W/m² 9,0 °C 13,8 °C 6,4 km/h (2 Bft)
18.09.2019 15:39 13,7 °C 71 % 1019,9 hPa 0,0 mm 4,3 km/h (1 Bft) O-NO 69 ° 0 min 0,000 mm 1,7 UV-I 185 W/m² 8,5 °C 13,7 °C 6,4 km/h (2 Bft)
18.09.2019 15:40 13,7 °C 71 % 1019,8 hPa 0,0 mm 2,6 km/h (1 Bft) O 86 ° 0 min 0,000 mm 1,7 UV-I 190 W/m² 8,5 °C 13,7 °C 6,4 km/h (2 Bft)
18.09.2019 15:41 13,7 °C 72 % 1019,9 hPa 0,0 mm 8,5 km/h (2 Bft) O-NO 63 ° 0 min 0,000 mm 1,8 UV-I 204 W/m² 8,7 °C 13,7 °C 12,9 km/h (3 Bft)
18.09.2019 15:42 13,7 °C 72 % 1019,9 hPa 0,0 mm 7,1 km/h (2 Bft) O 88 ° 0 min 0,000 mm 1,8 UV-I 218 W/m² 8,7 °C 13,7 °C 9,7 km/h (2 Bft)
18.09.2019 15:43 13,7 °C 72 % 1019,9 hPa 0,0 mm 6,8 km/h (2 Bft) NO 34 ° 0 min 0,000 mm 1,8 UV-I 246 W/m² 8,7 °C 13,7 °C 9,7 km/h (2 Bft)
18.09.2019 15:44 13,7 °C 71 % 1019,9 hPa 0,0 mm 3,2 km/h (1 Bft) O-NO 74 ° 0 min 0,000 mm 1,9 UV-I 257 W/m² 8,5 °C 13,7 °C 11,3 km/h (2 Bft)
18.09.2019 15:45 13,7 °C 73 % 1019,9 hPa 0,0 mm 5,4 km/h (1 Bft) NO 50 ° 0 min 0,000 mm 1,9 UV-I 264 W/m² 8,9 °C 13,7 °C 8,0 km/h (2 Bft)
18.09.2019 15:46 13,7 °C 72 % 1019,9 hPa 0,0 mm 1,9 km/h (1 Bft) NO 44 ° 0 min 0,000 mm 1,8 UV-I 265 W/m² 8,7 °C 13,7 °C 4,8 km/h (1 Bft)
18.09.2019 15:47 13,8 °C 72 % 1019,9 hPa 0,0 mm 2,3 km/h (1 Bft) NO 50 ° 0 min 0,000 mm 1,8 UV-I 267 W/m² 8,8 °C 13,8 °C 4,8 km/h (1 Bft)
18.09.2019 15:48 13,8 °C 72 % 1019,9 hPa 0,0 mm 5,2 km/h (1 Bft) NO 43 ° 0 min 0,000 mm 1,7 UV-I 258 W/m² 8,8 °C 13,8 °C 9,7 km/h (2 Bft)
18.09.2019 15:49 13,8 °C 71 % 1019,9 hPa 0,0 mm 5,7 km/h (1 Bft) N-NW 336 ° 0 min 0,000 mm 1,7 UV-I 239 W/m² 8,6 °C 13,8 °C 9,7 km/h (2 Bft)
18.09.2019 15:50 13,8 °C 71 % 1019,9 hPa 0,0 mm 5,4 km/h (1 Bft) N 11 ° 0 min 0,000 mm 1,6 UV-I 232 W/m² 8,6 °C 13,8 °C 6,4 km/h (2 Bft)
18.09.2019 15:51 13,8 °C 72 % 1019,9 hPa 0,0 mm 3,1 km/h (1 Bft) N 360 ° 0 min 0,000 mm 1,5 UV-I 223 W/m² 8,8 °C 13,8 °C 6,4 km/h (2 Bft)
18.09.2019 15:52 13,9 °C 74 % 1019,9 hPa 0,0 mm 2,7 km/h (1 Bft) O-SO 119 ° 0 min 0,000 mm 1,5 UV-I 218 W/m² 9,3 °C 13,9 °C 3,2 km/h (1 Bft)
18.09.2019 15:53 13,9 °C 72 % 1019,9 hPa 0,0 mm 2,3 km/h (1 Bft) O-SO 117 ° 0 min 0,000 mm 1,5 UV-I 213 W/m² 8,9 °C 13,9 °C 3,2 km/h (1 Bft)
18.09.2019 15:54 13,9 °C 71 % 1019,9 hPa 0,0 mm 2,8 km/h (1 Bft) NO 34 ° 0 min 0,000 mm 1,5 UV-I 209 W/m² 8,7 °C 13,9 °C 4,8 km/h (1 Bft)
18.09.2019 15:55 14,0 °C 72 % 1019,9 hPa 0,0 mm 2,7 km/h (1 Bft) NO 34 ° 0 min 0,000 mm 1,4 UV-I 192 W/m² 9,0 °C 14,0 °C 4,8 km/h (1 Bft)
18.09.2019 15:56 14,0 °C 72 % 1019,9 hPa 0,0 mm 5,7 km/h (1 Bft) NO 50 ° 0 min 0,000 mm 1,3 UV-I 192 W/m² 9,0 °C 14,0 °C 9,7 km/h (2 Bft)
18.09.2019 15:57 14,0 °C 71 % 1019,9 hPa 0,0 mm 4,8 km/h (1 Bft) NO 55 ° 0 min 0,000 mm 1,3 UV-I 176 W/m² 8,8 °C 14,0 °C 6,4 km/h (2 Bft)
18.09.2019 15:58 14,0 °C 70 % 1019,9 hPa 0,0 mm 7,0 km/h (2 Bft) O-NO 68 ° 0 min 0,000 mm 1,3 UV-I 171 W/m² 8,6 °C 14,0 °C 11,3 km/h (2 Bft)
18.09.2019 15:59 13,9 °C 71 % 1020,0 hPa 0,0 mm 5,7 km/h (1 Bft) O 88 ° 0 min 0,000 mm 1,3 UV-I 169 W/m² 8,7 °C 13,9 °C 9,7 km/h (2 Bft)
18.09.2019 16:00 13,9 °C 71 % 1019,9 hPa 0,0 mm 7,7 km/h (2 Bft) O-NO 61 ° 0 min 0,000 mm 1,3 UV-I 172 W/m² 8,7 °C 13,9 °C 12,9 km/h (3 Bft)
18.09.2019 16:01 13,8 °C 70 % 1019,9 hPa 0,0 mm 8,9 km/h (2 Bft) NO 35 ° 0 min 0,152 mm 1,3 UV-I 178 W/m² 8,4 °C 13,8 °C 12,9 km/h (3 Bft)
18.09.2019 16:02 13,9 °C 70 % 1019,9 hPa 0,0 mm 7,4 km/h (2 Bft) O-NO 57 ° 0 min 0,000 mm 1,3 UV-I 181 W/m² 8,5 °C 13,9 °C 14,5 km/h (3 Bft)
18.09.2019 16:03 13,9 °C 70 % 1019,9 hPa 0,0 mm 4,8 km/h (1 Bft) O-SO 104 ° 0 min 0,000 mm 1,3 UV-I 181 W/m² 8,5 °C 13,9 °C 6,4 km/h (2 Bft)
18.09.2019 16:04 13,8 °C 71 % 1019,9 hPa 0,0 mm 6,3 km/h (2 Bft) N-NO 33 ° 0 min 0,000 mm 1,3 UV-I 179 W/m² 8,6 °C 13,8 °C 8,0 km/h (2 Bft)
18.09.2019 16:05 13,8 °C 70 % 1019,9 hPa 0,0 mm 10,8 km/h (2 Bft) O-NO 74 ° 0 min 0,000 mm 1,3 UV-I 178 W/m² 8,4 °C 13,8 °C 16,1 km/h (3 Bft)
18.09.2019 16:06 13,8 °C 71 % 1019,9 hPa 0,0 mm 9,1 km/h (2 Bft) N-NO 21 ° 0 min 0,000 mm 1,3 UV-I 176 W/m² 8,6 °C 13,8 °C 14,5 km/h (3 Bft)
18.09.2019 16:07 13,7 °C 71 % 1019,9 hPa 0,0 mm 9,5 km/h (2 Bft) O-NO 75 ° 0 min 0,000 mm 1,3 UV-I 174 W/m² 8,5 °C 13,7 °C 12,9 km/h (3 Bft)
18.09.2019 16:08 13,7 °C 71 % 1019,9 hPa 0,0 mm 7,9 km/h (2 Bft) O-NO 67 ° 0 min 0,000 mm 1,3 UV-I 174 W/m² 8,5 °C 13,7 °C 14,5 km/h (3 Bft)
18.09.2019 16:09 13,6 °C 71 % 1019,9 hPa 0,0 mm 4,8 km/h (1 Bft) N-NO 27 ° 0 min 0,000 mm 1,3 UV-I 174 W/m² 8,4 °C 13,6 °C 8,0 km/h (2 Bft)
18.09.2019 16:10 13,6 °C 71 % 1019,9 hPa 0,0 mm 3,1 km/h (1 Bft) O-NO 65 ° 0 min 0,000 mm 1,3 UV-I 174 W/m² 8,4 °C 13,6 °C 4,8 km/h (1 Bft)
18.09.2019 16:11 13,6 °C 72 % 1019,9 hPa 0,0 mm 5,7 km/h (1 Bft) O-NO 73 ° 0 min 0,000 mm 1,3 UV-I 172 W/m² 8,6 °C 13,6 °C 11,3 km/h (2 Bft)
18.09.2019 16:12 13,6 °C 71 % 1019,9 hPa 0,0 mm 4,1 km/h (1 Bft) O-NO 74 ° 0 min 0,000 mm 1,3 UV-I 171 W/m² 8,4 °C 13,6 °C 6,4 km/h (2 Bft)
18.09.2019 16:13 13,6 °C 72 % 1019,9 hPa 0,0 mm 4,1 km/h (1 Bft) NO 42 ° 0 min 0,000 mm 1,3 UV-I 165 W/m² 8,6 °C 13,6 °C 6,4 km/h (2 Bft)
18.09.2019 16:14 13,6 °C 72 % 1019,9 hPa 0,0 mm 3,2 km/h (1 Bft) N-NO 32 ° 0 min 0,000 mm 1,2 UV-I 165 W/m² 8,6 °C 13,6 °C 8,0 km/h (2 Bft)
18.09.2019 16:15 13,6 °C 72 % 1019,9 hPa 0,0 mm 4,1 km/h (1 Bft) N-NO 28 ° 0 min 0,000 mm 1,2 UV-I 163 W/m² 8,6 °C 13,6 °C 6,4 km/h (2 Bft)
18.09.2019 16:16 13,6 °C 71 % 1019,9 hPa 0,0 mm 5,0 km/h (1 Bft) NO 42 ° 0 min 0,000 mm 1,2 UV-I 162 W/m² 8,4 °C 13,6 °C 9,7 km/h (2 Bft)
18.09.2019 16:17 13,6 °C 71 % 1019,9 hPa 0,0 mm 3,4 km/h (1 Bft) N-NO 12 ° 0 min 0,000 mm 1,2 UV-I 162 W/m² 8,4 °C 13,6 °C 6,4 km/h (2 Bft)
18.09.2019 16:18 13,6 °C 71 % 1020,0 hPa 0,0 mm 4,8 km/h (1 Bft) N-NO 28 ° 0 min 0,000 mm 1,2 UV-I 160 W/m² 8,4 °C 13,6 °C 6,4 km/h (2 Bft)
18.09.2019 16:19 13,7 °C 72 % 1020,0 hPa 0,0 mm 5,1 km/h (1 Bft) NO 51 ° 0 min 0,000 mm 1,3 UV-I 160 W/m² 8,7 °C 13,7 °C 8,0 km/h (2 Bft)
18.09.2019 16:20 13,6 °C 72 % 1020,0 hPa 0,0 mm 3,7 km/h (1 Bft) NO 40 ° 0 min 0,000 mm 1,3 UV-I 160 W/m² 8,6 °C 13,6 °C 6,4 km/h (2 Bft)
18.09.2019 16:21 13,6 °C 71 % 1020,0 hPa 0,0 mm 7,4 km/h (2 Bft) N 5 ° 0 min 0,000 mm 1,3 UV-I 162 W/m² 8,4 °C 13,6 °C 12,9 km/h (3 Bft)
18.09.2019 16:22 13,6 °C 71 % 1019,9 hPa 0,0 mm 3,7 km/h (1 Bft) N 9 ° 0 min 0,000 mm 1,3 UV-I 165 W/m² 8,4 °C 13,6 °C 6,4 km/h (2 Bft)
18.09.2019 16:23 13,6 °C 71 % 1019,9 hPa 0,0 mm 5,3 km/h (1 Bft) NO 37 ° 0 min 0,000 mm 1,3 UV-I 169 W/m² 8,4 °C 13,6 °C 8,0 km/h (2 Bft)
18.09.2019 16:24 13,6 °C 71 % 1019,9 hPa 0,0 mm 0,9 km/h (0 Bft) NO 37 ° 0 min 0,000 mm 1,4 UV-I 181 W/m² 8,4 °C 13,6 °C 3,2 km/h (1 Bft)
18.09.2019 16:25 13,6 °C 72 % 1019,9 hPa 0,0 mm 7,4 km/h (2 Bft) O-NO 58 ° 0 min 0,000 mm 1,4 UV-I 186 W/m² 8,6 °C 13,6 °C 11,3 km/h (2 Bft)
18.09.2019 16:26 13,5 °C 71 % 1019,9 hPa 0,0 mm 5,0 km/h (1 Bft) NO 52 ° 0 min 0,000 mm 1,4 UV-I 193 W/m² 8,3 °C 13,5 °C 6,4 km/h (2 Bft)
18.09.2019 16:27 13,6 °C 72 % 1019,9 hPa 0,0 mm 4,1 km/h (1 Bft) O 82 ° 0 min 0,000 mm 1,4 UV-I 197 W/m² 8,6 °C 13,6 °C 6,4 km/h (2 Bft)
18.09.2019 16:28 13,6 °C 73 % 1019,9 hPa 0,0 mm 2,1 km/h (1 Bft) NO 41 ° 0 min 0,000 mm 1,4 UV-I 202 W/m² 8,9 °C 13,6 °C 6,4 km/h (2 Bft)
18.09.2019 16:29 13,6 °C 72 % 1019,9 hPa 0,0 mm 5,3 km/h (1 Bft) NO 39 ° 0 min 0,000 mm 1,4 UV-I 206 W/m² 8,6 °C 13,6 °C 9,7 km/h (2 Bft)
18.09.2019 16:30 13,6 °C 72 % 1019,9 hPa 0,0 mm 2,1 km/h (1 Bft) O-NO 66 ° 0 min 0,000 mm 1,4 UV-I 213 W/m² 8,6 °C 13,6 °C 6,4 km/h (2 Bft)
18.09.2019 16:31 13,7 °C 72 % 1019,9 hPa 0,0 mm 4,8 km/h (1 Bft) O-NO 70 ° 0 min 0,000 mm 1,4 UV-I 213 W/m² 8,7 °C 13,7 °C 8,0 km/h (2 Bft)
18.09.2019 16:32 13,6 °C 71 % 1019,9 hPa 0,0 mm 3,5 km/h (1 Bft) O 95 ° 0 min 0,000 mm 1,4 UV-I 213 W/m² 8,4 °C 13,6 °C 6,4 km/h (2 Bft)
18.09.2019 16:33 13,6 °C 72 % 1019,9 hPa 0,0 mm 5,5 km/h (1 Bft) O-NO 59 ° 0 min 0,000 mm 1,4 UV-I 216 W/m² 8,6 °C 13,6 °C 8,0 km/h (2 Bft)
18.09.2019 16:34 13,6 °C 71 % 1019,9 hPa 0,0 mm 5,4 km/h (1 Bft) NO 49 ° 0 min 0,000 mm 1,4 UV-I 218 W/m² 8,4 °C 13,6 °C 8,0 km/h (2 Bft)
18.09.2019 16:35 13,6 °C 71 % 1019,8 hPa 0,0 mm 3,8 km/h (1 Bft) NO 55 ° 0 min 0,000 mm 1,4 UV-I 218 W/m² 8,4 °C 13,6 °C 6,4 km/h (2 Bft)
18.09.2019 16:36 13,6 °C 70 % 1019,8 hPa 0,0 mm 3,7 km/h (1 Bft) NO 55 ° 0 min 0,000 mm 1,3 UV-I 209 W/m² 8,2 °C 13,6 °C 6,4 km/h (2 Bft)
18.09.2019 16:37 13,7 °C 71 % 1019,8 hPa 0,0 mm 3,9 km/h (1 Bft) N-NO 12 ° 0 min 0,000 mm 1,3 UV-I 200 W/m² 8,5 °C 13,7 °C 6,4 km/h (2 Bft)
18.09.2019 16:38 13,7 °C 72 % 1019,9 hPa 0,0 mm 5,3 km/h (1 Bft) O-NO 71 ° 0 min 0,000 mm 1,3 UV-I 192 W/m² 8,7 °C 13,7 °C 11,3 km/h (2 Bft)
18.09.2019 16:39 13,8 °C 72 % 1019,9 hPa 0,0 mm 4,6 km/h (1 Bft) NO 52 ° 0 min 0,000 mm 1,2 UV-I 181 W/m² 8,8 °C 13,8 °C 9,7 km/h (2 Bft)
18.09.2019 16:40 13,8 °C 70 % 1019,9 hPa 0,0 mm 7,0 km/h (2 Bft) NO 51 ° 0 min 0,000 mm 1,2 UV-I 172 W/m² 8,4 °C 13,8 °C 9,7 km/h (2 Bft)
18.09.2019 16:41 13,7 °C 71 % 1019,9 hPa 0,0 mm 3,6 km/h (1 Bft) O 80 ° 0 min 0,000 mm 1,2 UV-I 167 W/m² 8,5 °C 13,7 °C 6,4 km/h (2 Bft)
18.09.2019 16:42 13,7 °C 70 % 1019,8 hPa 0,0 mm 0,7 km/h (0 Bft) N-NO 28 ° 0 min 0,000 mm 1,2 UV-I 165 W/m² 8,3 °C 13,7 °C 3,2 km/h (1 Bft)
18.09.2019 16:43 13,7 °C 72 % 1019,8 hPa 0,0 mm 4,7 km/h (1 Bft) N 355 ° 0 min 0,000 mm 1,2 UV-I 169 W/m² 8,7 °C 13,7 °C 6,4 km/h (2 Bft)
18.09.2019 16:44 13,7 °C 72 % 1019,8 hPa 0,0 mm 3,5 km/h (1 Bft) N-NO 21 ° 0 min 0,000 mm 1,2 UV-I 172 W/m² 8,7 °C 13,7 °C 4,8 km/h (1 Bft)
18.09.2019 16:45 13,7 °C 72 % 1019,8 hPa 0,0 mm 2,5 km/h (1 Bft) N-NO 19 ° 0 min 0,000 mm 1,2 UV-I 176 W/m² 8,7 °C 13,7 °C 4,8 km/h (1 Bft)
18.09.2019 16:46 13,8 °C 72 % 1019,9 hPa 0,0 mm 3,6 km/h (1 Bft) O-NO 73 ° 0 min 0,000 mm 1,2 UV-I 174 W/m² 8,8 °C 13,8 °C 6,4 km/h (2 Bft)
18.09.2019 16:47 13,7 °C 72 % 1019,9 hPa 0,0 mm 3,9 km/h (1 Bft) O-NO 76 ° 0 min 0,000 mm 1,2 UV-I 172 W/m² 8,7 °C 13,7 °C 6,4 km/h (2 Bft)
18.09.2019 16:48 13,8 °C 72 % 1019,9 hPa 0,0 mm 7,2 km/h (2 Bft) O 90 ° 0 min 0,000 mm 1,1 UV-I 158 W/m² 8,8 °C 13,8 °C 12,9 km/h (3 Bft)
18.09.2019 16:49 13,7 °C 72 % 1019,9 hPa 0,0 mm 6,2 km/h (2 Bft) O 81 ° 0 min 0,000 mm 1,1 UV-I 151 W/m² 8,7 °C 13,7 °C 12,9 km/h (3 Bft)
18.09.2019 16:50 13,7 °C 71 % 1019,9 hPa 0,0 mm 4,3 km/h (1 Bft) O-NO 59 ° 0 min 0,000 mm 1,0 UV-I 151 W/m² 8,5 °C 13,7 °C 6,4 km/h (2 Bft)
18.09.2019 16:51 13,7 °C 71 % 1019,9 hPa 0,0 mm 3,7 km/h (1 Bft) O-NO 63 ° 0 min 0,000 mm 1,0 UV-I 142 W/m² 8,5 °C 13,7 °C 6,4 km/h (2 Bft)
18.09.2019 16:52 13,6 °C 71 % 1019,9 hPa 0,0 mm 6,5 km/h (2 Bft) O-NO 76 ° 0 min 0,000 mm 1,0 UV-I 141 W/m² 8,4 °C 13,6 °C 11,3 km/h (2 Bft)
18.09.2019 16:53 13,6 °C 71 % 1019,8 hPa 0,0 mm 4,5 km/h (1 Bft) NO 53 ° 0 min 0,000 mm 1,0 UV-I 142 W/m² 8,4 °C 13,6 °C 8,0 km/h (2 Bft)
18.09.2019 16:54 13,6 °C 72 % 1019,9 hPa 0,0 mm 5,3 km/h (1 Bft) NO 50 ° 0 min 0,000 mm 1,1 UV-I 148 W/m² 8,6 °C 13,6 °C 11,3 km/h (2 Bft)
18.09.2019 16:55 13,6 °C 71 % 1019,8 hPa 0,0 mm 4,8 km/h (1 Bft) O-NO 78 ° 0 min 0,000 mm 1,1 UV-I 151 W/m² 8,4 °C 13,6 °C 6,4 km/h (2 Bft)
18.09.2019 16:56 13,6 °C 70 % 1019,8 hPa 0,0 mm 4,8 km/h (1 Bft) NO 42 ° 0 min 0,000 mm 1,1 UV-I 153 W/m² 8,2 °C 13,6 °C 8,0 km/h (2 Bft)
18.09.2019 16:57 13,6 °C 71 % 1019,8 hPa 0,0 mm 7,3 km/h (2 Bft) O 91 ° 0 min 0,000 mm 1,1 UV-I 155 W/m² 8,4 °C 13,6 °C 12,9 km/h (3 Bft)
18.09.2019 16:58 13,5 °C 70 % 1019,8 hPa 0,0 mm 6,2 km/h (2 Bft) O-NO 61 ° 0 min 0,000 mm 1,0 UV-I 153 W/m² 8,1 °C 13,5 °C 9,7 km/h (2 Bft)
18.09.2019 16:59 13,5 °C 71 % 1019,9 hPa 0,0 mm 2,8 km/h (1 Bft) O-NO 63 ° 0 min 0,000 mm 1,0 UV-I 144 W/m² 8,3 °C 13,5 °C 4,8 km/h (1 Bft)
18.09.2019 17:00 13,4 °C 71 % 1019,8 hPa 0,0 mm 4,0 km/h (1 Bft) O-NO 58 ° 0 min 0,000 mm 1,0 UV-I 137 W/m² 8,3 °C 13,4 °C 8,0 km/h (2 Bft)
18.09.2019 17:01 13,4 °C 72 % 1019,9 hPa 0,0 mm 7,1 km/h (2 Bft) O 86 ° 0 min 0,102 mm 0,9 UV-I 132 W/m² 8,5 °C 13,4 °C 11,3 km/h (2 Bft)
18.09.2019 17:02 13,4 °C 73 % 1019,8 hPa 0,0 mm 4,1 km/h (1 Bft) N 355 ° 0 min 0,000 mm 0,9 UV-I 128 W/m² 8,7 °C 13,4 °C 6,4 km/h (2 Bft)
18.09.2019 17:03 13,4 °C 73 % 1019,9 hPa 0,0 mm 4,1 km/h (1 Bft) N 360 ° 0 min 0,000 mm 0,9 UV-I 128 W/m² 8,7 °C 13,4 °C 4,8 km/h (1 Bft)
18.09.2019 17:04 13,5 °C 73 % 1019,9 hPa 0,0 mm 6,1 km/h (2 Bft) NO 48 ° 0 min 0,000 mm 0,9 UV-I 132 W/m² 8,8 °C 13,5 °C 8,0 km/h (2 Bft)
18.09.2019 17:05 13,6 °C 72 % 1019,9 hPa 0,0 mm 4,0 km/h (1 Bft) O 88 ° 0 min 0,000 mm 0,9 UV-I 139 W/m² 8,6 °C 13,6 °C 8,0 km/h (2 Bft)
18.09.2019 17:06 13,6 °C 72 % 1019,9 hPa 0,0 mm 2,4 km/h (1 Bft) O 88 ° 0 min 0,000 mm 0,9 UV-I 142 W/m² 8,6 °C 13,6 °C 4,8 km/h (1 Bft)
18.09.2019 17:07 13,5 °C 71 % 1019,9 hPa 0,0 mm 5,2 km/h (1 Bft) NO 37 ° 0 min 0,000 mm 0,9 UV-I 144 W/m² 8,3 °C 13,5 °C 6,4 km/h (2 Bft)
18.09.2019 17:08 13,5 °C 71 % 1019,9 hPa 0,0 mm 4,0 km/h (1 Bft) O-NO 60 ° 0 min 0,000 mm 0,9 UV-I 144 W/m² 8,3 °C 13,5 °C 4,8 km/h (1 Bft)
18.09.2019 17:09 13,5 °C 71 % 1019,9 hPa 0,0 mm 0,3 km/h (0 Bft) O-NO 60 ° 0 min 0,000 mm 0,9 UV-I 139 W/m² 8,3 °C 13,5 °C 1,6 km/h (1 Bft)
18.09.2019 17:10 13,6 °C 72 % 1019,9 hPa 0,0 mm 3,4 km/h (1 Bft) O-NO 66 ° 0 min 0,000 mm 0,9 UV-I 134 W/m² 8,6 °C 13,6 °C 4,8 km/h (1 Bft)
18.09.2019 17:11 13,6 °C 71 % 1019,9 hPa 0,0 mm 4,4 km/h (1 Bft) O 92 ° 0 min 0,000 mm 0,8 UV-I 127 W/m² 8,4 °C 13,6 °C 4,8 km/h (1 Bft)
18.09.2019 17:12 13,6 °C 71 % 1019,9 hPa 0,0 mm 7,2 km/h (2 Bft) O-NO 66 ° 0 min 0,000 mm 0,8 UV-I 127 W/m² 8,4 °C 13,6 °C 11,3 km/h (2 Bft)
18.09.2019 17:13 13,6 °C 71 % 1019,9 hPa 0,0 mm 2,5 km/h (1 Bft) O-NO 66 ° 0 min 0,000 mm 0,8 UV-I 128 W/m² 8,4 °C 13,6 °C 3,2 km/h (1 Bft)
18.09.2019 17:14 13,5 °C 71 % 1019,9 hPa 0,0 mm 3,8 km/h (1 Bft) O-NO 63 ° 0 min 0,000 mm 0,8 UV-I 132 W/m² 8,3 °C 13,5 °C 6,4 km/h (2 Bft)
18.09.2019 17:15 13,6 °C 72 % 1019,8 hPa 0,0 mm 2,7 km/h (1 Bft) O-NO 62 ° 0 min 0,000 mm 0,8 UV-I 132 W/m² 8,6 °C 13,6 °C 6,4 km/h (2 Bft)
18.09.2019 17:16 13,5 °C 71 % 1019,9 hPa 0,0 mm 0,9 km/h (0 Bft) O-NO 60 ° 0 min 0,000 mm 0,8 UV-I 128 W/m² 8,3 °C 13,5 °C 4,8 km/h (1 Bft)
18.09.2019 17:17 13,5 °C 72 % 1019,9 hPa 0,0 mm 5,1 km/h (1 Bft) NO 41 ° 0 min 0,000 mm 0,7 UV-I 113 W/m² 8,6 °C 13,5 °C 8,0 km/h (2 Bft)
18.09.2019 17:18 13,6 °C 71 % 1019,9 hPa 0,0 mm 4,3 km/h (1 Bft) NO 51 ° 0 min 0,000 mm 0,7 UV-I 107 W/m² 8,4 °C 13,6 °C 6,4 km/h (2 Bft)
18.09.2019 17:19 13,6 °C 71 % 1019,9 hPa 0,0 mm 3,0 km/h (1 Bft) NO 45 ° 0 min 0,000 mm 0,7 UV-I 104 W/m² 8,4 °C 13,6 °C 6,4 km/h (2 Bft)
18.09.2019 17:20 13,6 °C 71 % 1019,9 hPa 0,0 mm 2,7 km/h (1 Bft) NO 45 ° 0 min 0,000 mm 0,7 UV-I 100 W/m² 8,4 °C 13,6 °C 3,2 km/h (1 Bft)
18.09.2019 17:21 13,5 °C 72 % 1019,8 hPa 0,0 mm 4,7 km/h (1 Bft) O-NO 61 ° 0 min 0,000 mm 0,7 UV-I 100 W/m² 8,6 °C 13,5 °C 6,4 km/h (2 Bft)
18.09.2019 17:22 13,5 °C 71 % 1019,9 hPa 0,0 mm 2,6 km/h (1 Bft) O-NO 61 ° 0 min 0,000 mm 0,7 UV-I 102 W/m² 8,3 °C 13,5 °C 4,8 km/h (1 Bft)
18.09.2019 17:23 13,5 °C 71 % 1019,9 hPa 0,0 mm 0,3 km/h (0 Bft) O-NO 61 ° 0 min 0,000 mm 0,7 UV-I 107 W/m² 8,3 °C 13,5 °C 3,2 km/h (1 Bft)
18.09.2019 17:24 13,4 °C 72 % 1019,9 hPa 0,0 mm 0,0 km/h (0 Bft) O-NO 61 ° 0 min 0,000 mm 0,7 UV-I 107 W/m² 8,5 °C 13,4 °C 0,0 km/h (0 Bft)
18.09.2019 17:25 13,5 °C 74 % 1019,9 hPa 0,0 mm 1,7 km/h (1 Bft) NO 56 ° 0 min 0,000 mm 0,7 UV-I 113 W/m² 9,0 °C 13,5 °C 6,4 km/h (2 Bft)
18.09.2019 17:26 13,5 °C 72 % 1019,9 hPa 0,0 mm 3,2 km/h (1 Bft) O-NO 57 ° 0 min 0,000 mm 0,7 UV-I 113 W/m² 8,6 °C 13,5 °C 4,8 km/h (1 Bft)
18.09.2019 17:27 13,4 °C 72 % 1019,9 hPa 0,0 mm 0,2 km/h (0 Bft) O-NO 57 ° 0 min 0,000 mm 0,6 UV-I 109 W/m² 8,5 °C 13,4 °C 1,6 km/h (1 Bft)
18.09.2019 17:28 13,4 °C 72 % 1019,9 hPa 0,0 mm 3,2 km/h (1 Bft) O-NO 69 ° 0 min 0,000 mm 0,6 UV-I 105 W/m² 8,5 °C 13,4 °C 4,8 km/h (1 Bft)
18.09.2019 17:29 13,4 °C 73 % 1019,9 hPa 0,0 mm 2,5 km/h (1 Bft) O-NO 69 ° 0 min 0,000 mm 0,6 UV-I 98 W/m² 8,7 °C 13,4 °C 3,2 km/h (1 Bft)
18.09.2019 17:30 13,4 °C 73 % 1019,9 hPa 0,0 mm 5,1 km/h (1 Bft) O-NO 68 ° 0 min 0,000 mm 0,6 UV-I 95 W/m² 8,7 °C 13,4 °C 8,0 km/h (2 Bft)
18.09.2019 17:31 13,4 °C 73 % 1019,9 hPa 0,0 mm 4,1 km/h (1 Bft) O 84 ° 0 min 0,000 mm 0,5 UV-I 90 W/m² 8,7 °C 13,4 °C 6,4 km/h (2 Bft)
18.09.2019 17:32 13,4 °C 74 % 1019,9 hPa 0,0 mm 5,5 km/h (1 Bft) NO 38 ° 0 min 0,000 mm 0,5 UV-I 86 W/m² 8,9 °C 13,4 °C 6,4 km/h (2 Bft)
18.09.2019 17:33 13,4 °C 72 % 1019,9 hPa 0,0 mm 7,8 km/h (2 Bft) NO 44 ° 0 min 0,000 mm 0,5 UV-I 81 W/m² 8,5 °C 13,4 °C 12,9 km/h (3 Bft)
18.09.2019 17:34 13,4 °C 74 % 1019,9 hPa 0,0 mm 4,6 km/h (1 Bft) O-NO 66 ° 0 min 0,000 mm 0,5 UV-I 77 W/m² 8,9 °C 13,4 °C 6,4 km/h (2 Bft)
18.09.2019 17:35 13,4 °C 74 % 1019,9 hPa 0,0 mm 2,2 km/h (1 Bft) O-NO 66 ° 0 min 0,000 mm 0,5 UV-I 74 W/m² 8,9 °C 13,4 °C 4,8 km/h (1 Bft)
18.09.2019 17:36 13,4 °C 73 % 1019,9 hPa 0,0 mm 1,1 km/h (1 Bft) O-NO 66 ° 0 min 0,000 mm 0,5 UV-I 74 W/m² 8,7 °C 13,4 °C 3,2 km/h (1 Bft)
18.09.2019 17:37 13,3 °C 74 % 1019,9 hPa 0,0 mm 4,9 km/h (1 Bft) NO 51 ° 0 min 0,000 mm 0,5 UV-I 72 W/m² 8,8 °C 13,3 °C 9,7 km/h (2 Bft)
18.09.2019 17:38 13,3 °C 74 % 1019,9 hPa 0,0 mm 4,1 km/h (1 Bft) O-NO 59 ° 0 min 0,000 mm 0,0 UV-I 70 W/m² 8,8 °C 13,3 °C 8,0 km/h (2 Bft)
18.09.2019 17:39 13,3 °C 74 % 1020,0 hPa 0,0 mm 4,2 km/h (1 Bft) NO 53 ° 0 min 0,000 mm 0,0 UV-I 69 W/m² 8,8 °C 13,3 °C 6,4 km/h (2 Bft)
18.09.2019 17:40 13,3 °C 73 % 1020,0 hPa 0,0 mm 5,0 km/h (1 Bft) O 80 ° 0 min 0,000 mm 0,0 UV-I 67 W/m² 8,6 °C 13,3 °C 9,7 km/h (2 Bft)
18.09.2019 17:41 13,2 °C 73 % 1019,9 hPa 0,0 mm 4,4 km/h (1 Bft) S-SO 155 ° 0 min 0,000 mm 0,0 UV-I 62 W/m² 8,5 °C 13,2 °C 8,0 km/h (2 Bft)
18.09.2019 17:42 13,2 °C 72 % 1020,0 hPa 0,0 mm 3,5 km/h (1 Bft) O-NO 76 ° 0 min 0,000 mm 0,0 UV-I 60 W/m² 8,3 °C 13,2 °C 4,8 km/h (1 Bft)
18.09.2019 17:43 13,2 °C 72 % 1020,0 hPa 0,0 mm 2,3 km/h (1 Bft) O-NO 76 ° 0 min 0,000 mm 0,0 UV-I 58 W/m² 8,3 °C 13,2 °C 4,8 km/h (1 Bft)
18.09.2019 17:44 13,2 °C 74 % 1020,0 hPa 0,0 mm 2,7 km/h (1 Bft) O-NO 76 ° 0 min 0,000 mm 0,0 UV-I 58 W/m² 8,7 °C 13,2 °C 4,8 km/h (1 Bft)
18.09.2019 17:45 13,2 °C 74 % 1020,0 hPa 0,0 mm 5,0 km/h (1 Bft) O-NO 69 ° 0 min 0,000 mm 0,0 UV-I 56 W/m² 8,7 °C 13,2 °C 6,4 km/h (2 Bft)
18.09.2019 17:46 13,1 °C 74 % 1020,0 hPa 0,0 mm 4,1 km/h (1 Bft) O 85 ° 0 min 0,000 mm 0,0 UV-I 54 W/m² 8,6 °C 13,1 °C 8,0 km/h (2 Bft)
18.09.2019 17:47 13,1 °C 75 % 1020,0 hPa 0,0 mm 5,7 km/h (1 Bft) O 100 ° 0 min 0,000 mm 0,0 UV-I 54 W/m² 8,8 °C 13,1 °C 11,3 km/h (2 Bft)
18.09.2019 17:48 13,1 °C 75 % 1020,0 hPa 0,0 mm 2,0 km/h (1 Bft) O 100 ° 0 min 0,000 mm 0,0 UV-I 54 W/m² 8,8 °C 13,1 °C 3,2 km/h (1 Bft)
18.09.2019 17:49 13,0 °C 74 % 1020,0 hPa 0,0 mm 1,7 km/h (1 Bft) O-NO 61 ° 0 min 0,000 mm 0,0 UV-I 53 W/m² 8,5 °C 13,0 °C 6,4 km/h (2 Bft)
18.09.2019 17:50 13,0 °C 74 % 1020,0 hPa 0,0 mm 4,6 km/h (1 Bft) O 99 ° 0 min 0,000 mm 0,0 UV-I 53 W/m² 8,5 °C 13,0 °C 6,4 km/h (2 Bft)
18.09.2019 17:51 12,9 °C 74 % 1020,0 hPa 0,0 mm 3,2 km/h (1 Bft) O 101 ° 0 min 0,000 mm 0,0 UV-I 51 W/m² 8,4 °C 12,9 °C 6,4 km/h (2 Bft)
18.09.2019 17:52 12,9 °C 74 % 1020,0 hPa 0,0 mm 4,6 km/h (1 Bft) O-NO 72 ° 0 min 0,000 mm 0,0 UV-I 51 W/m² 8,4 °C 12,9 °C 9,7 km/h (2 Bft)
18.09.2019 17:53 12,9 °C 74 % 1020,0 hPa 0,0 mm 0,7 km/h (0 Bft) O-NO 72 ° 0 min 0,000 mm 0,0 UV-I 49 W/m² 8,4 °C 12,9 °C 3,2 km/h (1 Bft)
18.09.2019 17:54 12,9 °C 73 % 1020,0 hPa 0,0 mm 2,5 km/h (1 Bft) O-NO 72 ° 0 min 0,000 mm 0,0 UV-I 47 W/m² 8,2 °C 12,9 °C 4,8 km/h (1 Bft)
18.09.2019 17:55 12,9 °C 72 % 1020,0 hPa 0,0 mm 3,8 km/h (1 Bft) N-NO 27 ° 0 min 0,000 mm 0,0 UV-I 46 W/m² 8,0 °C 12,9 °C 6,4 km/h (2 Bft)
18.09.2019 17:56 12,9 °C 73 % 1020,0 hPa 0,0 mm 4,2 km/h (1 Bft) O-NO 70 ° 0 min 0,000 mm 0,0 UV-I 44 W/m² 8,2 °C 12,9 °C 6,4 km/h (2 Bft)
18.09.2019 17:57 12,9 °C 74 % 1020,0 hPa 0,0 mm 2,9 km/h (1 Bft) O-NO 70 ° 0 min 0,000 mm 0,0 UV-I 44 W/m² 8,4 °C 12,9 °C 4,8 km/h (1 Bft)
18.09.2019 17:58 12,9 °C 74 % 1020,0 hPa 0,0 mm 1,3 km/h (1 Bft) O-NO 72 ° 0 min 0,000 mm 0,0 UV-I 42 W/m² 8,4 °C 12,9 °C 4,8 km/h (1 Bft)
18.09.2019 17:59 12,9 °C 73 % 1020,0 hPa 0,0 mm 0,0 km/h (0 Bft) O-NO 72 ° 0 min 0,000 mm 0,0 UV-I 44 W/m² 8,2 °C 12,9 °C 0,0 km/h (0 Bft)
18.09.2019 18:00 12,9 °C 75 % 1020,0 hPa 0,0 mm 0,0 km/h (0 Bft) O-NO 72 ° 0 min 0,000 mm 0,0 UV-I 44 W/m² 8,6 °C 12,9 °C 0,0 km/h (0 Bft)
18.09.2019 18:01 12,8 °C 76 % 1020,0 hPa 0,0 mm 0,0 km/h (0 Bft) O-NO 72 ° 0 min 0,051 mm 0,0 UV-I 44 W/m² 8,7 °C 12,8 °C 0,0 km/h (0 Bft)
18.09.2019 18:02 12,8 °C 73 % 1020,0 hPa 0,0 mm 0,0 km/h (0 Bft) O-NO 72 ° 0 min 0,000 mm 0,0 UV-I 44 W/m² 8,1 °C 12,8 °C 0,0 km/h (0 Bft)
18.09.2019 18:03 12,8 °C 75 % 1020,0 hPa 0,0 mm 0,0 km/h (0 Bft) O-NO 72 ° 0 min 0,000 mm 0,0 UV-I 44 W/m² 8,5 °C 12,8 °C 0,0 km/h (0 Bft)
18.09.2019 18:04 12,8 °C 74 % 1020,0 hPa 0,0 mm 0,0 km/h (0 Bft) O-NO 72 ° 0 min 0,000 mm 0,0 UV-I 40 W/m² 8,3 °C 12,8 °C 0,0 km/h (0 Bft)
18.09.2019 18:05 12,8 °C 75 % 1020,1 hPa 0,0 mm 0,0 km/h (0 Bft) O-NO 72 ° 0 min 0,000 mm 0,0 UV-I 39 W/m² 8,5 °C 12,8 °C 0,0 km/h (0 Bft)
18.09.2019 18:06 12,7 °C 74 % 1020,1 hPa 0,0 mm 0,0 km/h (0 Bft) O-NO 72 ° 0 min 0,000 mm 0,0 UV-I 37 W/m² 8,2 °C 12,7 °C 0,0 km/h (0 Bft)
18.09.2019 18:07 12,7 °C 74 % 1020,1 hPa 0,0 mm 0,0 km/h (0 Bft) O-NO 72 ° 0 min 0,000 mm 0,0 UV-I 35 W/m² 8,2 °C 12,7 °C 0,0 km/h (0 Bft)
18.09.2019 18:08 12,7 °C 76 % 1020,1 hPa 0,0 mm 0,0 km/h (0 Bft) O-NO 72 ° 0 min 0,000 mm 0,0 UV-I 33 W/m² 8,6 °C 12,7 °C 0,0 km/h (0 Bft)
18.09.2019 18:09 12,6 °C 76 % 1020,1 hPa 0,0 mm 0,0 km/h (0 Bft) O-NO 72 ° 0 min 0,000 mm 0,0 UV-I 33 W/m² 8,5 °C 12,6 °C 0,0 km/h (0 Bft)
18.09.2019 18:10 12,6 °C 75 % 1020,1 hPa 0,0 mm 0,0 km/h (0 Bft) O-NO 72 ° 0 min 0,000 mm 0,0 UV-I 33 W/m² 8,3 °C 12,6 °C 0,0 km/h (0 Bft)
18.09.2019 18:11 12,6 °C 75 % 1020,1 hPa 0,0 mm 0,0 km/h (0 Bft) O-NO 72 ° 0 min 0,000 mm 0,0 UV-I 33 W/m² 8,3 °C 12,6 °C 0,0 km/h (0 Bft)
18.09.2019 18:12 12,6 °C 76 % 1020,0 hPa 0,0 mm 0,0 km/h (0 Bft) O-NO 72 ° 0 min 0,000 mm 0,0 UV-I 33 W/m² 8,5 °C 12,6 °C 0,0 km/h (0 Bft)
18.09.2019 18:13 12,6 °C 77 % 1020,0 hPa 0,0 mm 0,0 km/h (0 Bft) O-NO 72 ° 0 min 0,000 mm 0,0 UV-I 33 W/m² 8,7 °C 12,6 °C 0,0 km/h (0 Bft)
18.09.2019 18:14 12,4 °C 77 % 1020,1 hPa 0,0 mm 0,0 km/h (0 Bft) O-NO 72 ° 0 min 0,000 mm 0,0 UV-I 35 W/m² 8,5 °C 12,4 °C 0,0 km/h (0 Bft)
18.09.2019 18:15 12,4 °C 77 % 1020,1 hPa 0,0 mm 0,0 km/h (0 Bft) O-NO 72 ° 0 min 0,000 mm 0,0 UV-I 35 W/m² 8,5 °C 12,4 °C 0,0 km/h (0 Bft)
18.09.2019 18:16 12,5 °C 77 % 1020,1 hPa 0,0 mm 0,0 km/h (0 Bft) O-NO 72 ° 0 min 0,000 mm 0,0 UV-I 37 W/m² 8,6 °C 12,5 °C 0,0 km/h (0 Bft)
18.09.2019 18:17 12,5 °C 76 % 1020,1 hPa 0,0 mm 0,0 km/h (0 Bft) O-NO 72 ° 0 min 0,000 mm 0,0 UV-I 37 W/m² 8,4 °C 12,5 °C 0,0 km/h (0 Bft)
18.09.2019 18:18 12,5 °C 76 % 1020,1 hPa 0,0 mm 0,0 km/h (0 Bft) O-NO 72 ° 0 min 0,000 mm 0,0 UV-I 37 W/m² 8,4 °C 12,5 °C 0,0 km/h (0 Bft)
18.09.2019 18:19 12,5 °C 77 % 1020,1 hPa 0,0 mm 0,0 km/h (0 Bft) O-NO 72 ° 0 min 0,000 mm 0,0 UV-I 37 W/m² 8,6 °C 12,5 °C 0,0 km/h (0 Bft)
18.09.2019 18:20 12,5 °C 77 % 1020,1 hPa 0,0 mm 0,0 km/h (0 Bft) O-NO 72 ° 0 min 0,000 mm 0,0 UV-I 37 W/m² 8,6 °C 12,5 °C 0,0 km/h (0 Bft)
18.09.2019 18:21 12,5 °C 78 % 1020,1 hPa 0,0 mm 0,0 km/h (0 Bft) O-NO 72 ° 0 min 0,000 mm 0,0 UV-I 35 W/m² 8,8 °C 12,5 °C 0,0 km/h (0 Bft)
18.09.2019 18:22 12,4 °C 77 % 1020,2 hPa 0,0 mm 0,0 km/h (0 Bft) O-NO 72 ° 0 min 0,000 mm 0,0 UV-I 33 W/m² 8,5 °C 12,4 °C 0,0 km/h (0 Bft)
18.09.2019 18:23 12,4 °C 77 % 1020,1 hPa 0,0 mm 0,0 km/h (0 Bft) O-NO 72 ° 0 min 0,000 mm 0,0 UV-I 33 W/m² 8,5 °C 12,4 °C 0,0 km/h (0 Bft)
18.09.2019 18:24 12,4 °C 77 % 1020,2 hPa 0,0 mm 0,0 km/h (0 Bft) O-NO 72 ° 0 min 0,000 mm 0,0 UV-I 33 W/m² 8,5 °C 12,4 °C 0,0 km/h (0 Bft)
18.09.2019 18:25 12,5 °C 77 % 1020,2 hPa 0,0 mm 0,0 km/h (0 Bft) O-NO 72 ° 0 min 0,000 mm 0,0 UV-I 33 W/m² 8,6 °C 12,5 °C 0,0 km/h (0 Bft)
18.09.2019 18:26 12,5 °C 76 % 1020,2 hPa 0,0 mm 0,0 km/h (0 Bft) O-NO 72 ° 0 min 0,000 mm 0,0 UV-I 33 W/m² 8,4 °C 12,5 °C 0,0 km/h (0 Bft)
18.09.2019 18:27 12,5 °C 76 % 1020,2 hPa 0,0 mm 0,0 km/h (0 Bft) O-NO 72 ° 0 min 0,000 mm 0,0 UV-I 35 W/m² 8,4 °C 12,5 °C 0,0 km/h (0 Bft)
18.09.2019 18:28 12,6 °C 76 % 1020,2 hPa 0,0 mm 0,0 km/h (0 Bft) O-NO 72 ° 0 min 0,000 mm 0,0 UV-I 35 W/m² 8,5 °C 12,6 °C 0,0 km/h (0 Bft)
18.09.2019 18:29 12,5 °C 76 % 1020,2 hPa 0,0 mm 0,0 km/h (0 Bft) O-NO 72 ° 0 min 0,000 mm 0,0 UV-I 35 W/m² 8,4 °C 12,5 °C 0,0 km/h (0 Bft)
18.09.2019 18:30 12,5 °C 76 % 1020,3 hPa 0,0 mm 0,0 km/h (0 Bft) O-NO 72 ° 0 min 0,000 mm 0,0 UV-I 35 W/m² 8,4 °C 12,5 °C 0,0 km/h (0 Bft)
18.09.2019 18:31 12,5 °C 76 % 1020,3 hPa 0,0 mm 0,0 km/h (0 Bft) O-NO 72 ° 0 min 0,000 mm 0,0 UV-I 35 W/m² 8,4 °C 12,5 °C 0,0 km/h (0 Bft)
18.09.2019 18:32 12,5 °C 76 % 1020,3 hPa 0,0 mm 0,0 km/h (0 Bft) O-NO 72 ° 0 min 0,000 mm 0,0 UV-I 35 W/m² 8,4 °C 12,5 °C 0,0 km/h (0 Bft)
18.09.2019 18:33 12,4 °C 77 % 1020,3 hPa 0,0 mm 0,0 km/h (0 Bft) O-NO 72 ° 0 min 0,000 mm 0,0 UV-I 33 W/m² 8,5 °C 12,4 °C 0,0 km/h (0 Bft)
18.09.2019 18:34 12,4 °C 77 % 1020,3 hPa 0,0 mm 0,0 km/h (0 Bft) O-NO 72 ° 0 min 0,000 mm 0,0 UV-I 33 W/m² 8,5 °C 12,4 °C 0,0 km/h (0 Bft)
18.09.2019 18:35 12,4 °C 78 % 1020,3 hPa 0,0 mm 0,0 km/h (0 Bft) O-NO 72 ° 0 min 0,000 mm 0,0 UV-I 33 W/m² 8,7 °C 12,4 °C 0,0 km/h (0 Bft)
18.09.2019 18:36 12,4 °C 78 % 1020,2 hPa 0,0 mm 0,0 km/h (0 Bft) O-NO 72 ° 0 min 0,000 mm 0,0 UV-I 33 W/m² 8,7 °C 12,4 °C 0,0 km/h (0 Bft)
18.09.2019 18:37 12,3 °C 77 % 1020,3 hPa 0,0 mm 0,0 km/h (0 Bft) O-NO 72 ° 0 min 0,000 mm 0,0 UV-I 32 W/m² 8,4 °C 12,3 °C 0,0 km/h (0 Bft)
18.09.2019 18:38 12,3 °C 77 % 1020,3 hPa 0,0 mm 0,0 km/h (0 Bft) O-NO 72 ° 0 min 0,000 mm 0,0 UV-I 32 W/m² 8,4 °C 12,3 °C 0,0 km/h (0 Bft)
18.09.2019 18:39 12,3 °C 77 % 1020,3 hPa 0,0 mm 0,0 km/h (0 Bft) O-NO 72 ° 0 min 0,000 mm 0,0 UV-I 28 W/m² 8,4 °C 12,3 °C 0,0 km/h (0 Bft)
18.09.2019 18:40 12,3 °C 77 % 1020,2 hPa 0,0 mm 0,0 km/h (0 Bft) O-NO 72 ° 0 min 0,000 mm 0,0 UV-I 28 W/m² 8,4 °C 12,3 °C 0,0 km/h (0 Bft)
18.09.2019 18:41 12,3 °C 77 % 1020,3 hPa 0,0 mm 0,0 km/h (0 Bft) O-NO 72 ° 0 min 0,000 mm 0,0 UV-I 28 W/m² 8,4 °C 12,3 °C 0,0 km/h (0 Bft)
18.09.2019 18:42 12,2 °C 78 % 1020,3 hPa 0,0 mm 0,0 km/h (0 Bft) O-NO 72 ° 0 min 0,000 mm 0,0 UV-I 26 W/m² 8,5 °C 12,2 °C 0,0 km/h (0 Bft)
18.09.2019 18:43 12,2 °C 78 % 1020,3 hPa 0,0 mm 0,0 km/h (0 Bft) O-NO 72 ° 0 min 0,000 mm 0,0 UV-I 26 W/m² 8,5 °C 12,2 °C 0,0 km/h (0 Bft)
18.09.2019 18:44 12,2 °C 78 % 1020,3 hPa 0,0 mm 0,0 km/h (0 Bft) O-NO 72 ° 0 min 0,000 mm 0,0 UV-I 26 W/m² 8,5 °C 12,2 °C 0,0 km/h (0 Bft)
18.09.2019 18:45 12,1 °C 79 % 1020,3 hPa 0,0 mm 0,0 km/h (0 Bft) O-NO 72 ° 0 min 0,000 mm 0,0 UV-I 26 W/m² 8,6 °C 12,1 °C 0,0 km/h (0 Bft)
18.09.2019 18:46 12,1 °C 79 % 1020,3 hPa 0,0 mm 0,0 km/h (0 Bft) O-NO 72 ° 0 min 0,000 mm 0,0 UV-I 26 W/m² 8,6 °C 12,1 °C 0,0 km/h (0 Bft)
18.09.2019 18:47 12,1 °C 79 % 1020,3 hPa 0,0 mm 0,0 km/h (0 Bft) O-NO 72 ° 0 min 0,000 mm 0,0 UV-I 26 W/m² 8,6 °C 12,1 °C 0,0 km/h (0 Bft)
18.09.2019 18:48 12,0 °C 79 % 1020,3 hPa 0,0 mm 0,0 km/h (0 Bft) O-NO 72 ° 0 min 0,000 mm 0,0 UV-I 26 W/m² 8,5 °C 12,0 °C 0,0 km/h (0 Bft)
18.09.2019 18:49 11,9 °C 80 % 1020,3 hPa 0,0 mm 0,0 km/h (0 Bft) O-NO 72 ° 0 min 0,000 mm 0,0 UV-I 25 W/m² 8,6 °C 11,9 °C 0,0 km/h (0 Bft)
18.09.2019 18:50 11,8 °C 81 % 1020,4 hPa 0,0 mm 0,0 km/h (0 Bft) O-NO 72 ° 0 min 0,000 mm 0,0 UV-I 25 W/m² 8,6 °C 11,8 °C 0,0 km/h (0 Bft)
18.09.2019 18:51 11,7 °C 81 % 1020,3 hPa 0,0 mm 0,4 km/h (0 Bft) N 11 ° 0 min 0,000 mm 0,0 UV-I 21 W/m² 8,5 °C 11,7 °C 3,2 km/h (1 Bft)
18.09.2019 18:52 11,6 °C 81 % 1020,3 hPa 0,0 mm 0,0 km/h (0 Bft) N 11 ° 0 min 0,000 mm 0,0 UV-I 21 W/m² 8,5 °C 11,6 °C 0,0 km/h (0 Bft)
18.09.2019 18:53 11,6 °C 81 % 1020,3 hPa 0,0 mm 1,5 km/h (1 Bft) N 11 ° 0 min 0,000 mm 0,0 UV-I 21 W/m² 8,5 °C 11,6 °C 3,2 km/h (1 Bft)
18.09.2019 18:54 11,6 °C 81 % 1020,3 hPa 0,0 mm 0,0 km/h (0 Bft) N 11 ° 0 min 0,000 mm 0,0 UV-I 19 W/m² 8,5 °C 11,6 °C 0,0 km/h (0 Bft)
18.09.2019 18:55 11,6 °C 81 % 1020,3 hPa 0,0 mm 0,1 km/h (0 Bft) N 11 ° 0 min 0,000 mm 0,0 UV-I 19 W/m² 8,5 °C 11,6 °C 1,6 km/h (1 Bft)
18.09.2019 18:56 11,6 °C 81 % 1020,3 hPa 0,0 mm 0,0 km/h (0 Bft) N 11 ° 0 min 0,000 mm 0,0 UV-I 19 W/m² 8,5 °C 11,6 °C 0,0 km/h (0 Bft)
18.09.2019 18:57 11,6 °C 81 % 1020,4 hPa 0,0 mm 0,0 km/h (0 Bft) N 11 ° 0 min 0,000 mm 0,0 UV-I 18 W/m² 8,5 °C 11,6 °C 0,0 km/h (0 Bft)
18.09.2019 18:58 11,6 °C 80 % 1020,4 hPa 0,0 mm 0,0 km/h (0 Bft) N 11 ° 0 min 0,000 mm 0,0 UV-I 18 W/m² 8,3 °C 11,6 °C 0,0 km/h (0 Bft)
18.09.2019 18:59 11,5 °C 80 % 1020,4 hPa 0,0 mm 0,0 km/h (0 Bft) N 11 ° 0 min 0,000 mm 0,0 UV-I 16 W/m² 8,2 °C 11,5 °C 0,0 km/h (0 Bft)
18.09.2019 19:00 11,4 °C 81 % 1020,3 hPa 0,0 mm 0,0 km/h (0 Bft) N 11 ° 0 min 0,000 mm 0,0 UV-I 16 W/m² 8,3 °C 11,4 °C 0,0 km/h (0 Bft)
18.09.2019 19:01 11,4 °C 81 % 1020,4 hPa 0,0 mm 0,0 km/h (0 Bft) N 11 ° 0 min 0,025 mm 0,0 UV-I 16 W/m² 8,3 °C 11,4 °C 0,0 km/h (0 Bft)
18.09.2019 19:02 11,4 °C 80 % 1020,4 hPa 0,0 mm 0,0 km/h (0 Bft) N 11 ° 0 min 0,000 mm 0,0 UV-I 14 W/m² 8,1 °C 11,4 °C 0,0 km/h (0 Bft)
18.09.2019 19:03 11,4 °C 80 % 1020,4 hPa 0,0 mm 0,0 km/h (0 Bft) N 11 ° 0 min 0,000 mm 0,0 UV-I 14 W/m² 8,1 °C 11,4 °C 0,0 km/h (0 Bft)
18.09.2019 19:04 11,4 °C 80 % 1020,4 hPa 0,0 mm 0,0 km/h (0 Bft) N 11 ° 0 min 0,000 mm 0,0 UV-I 12 W/m² 8,1 °C 11,4 °C 0,0 km/h (0 Bft)
18.09.2019 19:05 11,4 °C 79 % 1020,4 hPa 0,0 mm 0,0 km/h (0 Bft) N 11 ° 0 min 0,000 mm 0,0 UV-I 12 W/m² 7,9 °C 11,4 °C 0,0 km/h (0 Bft)
18.09.2019 19:06 11,4 °C 79 % 1020,4 hPa 0,0 mm 0,0 km/h (0 Bft) N 11 ° 0 min 0,000 mm 0,0 UV-I 12 W/m² 7,9 °C 11,4 °C 0,0 km/h (0 Bft)
18.09.2019 19:07 11,3 °C 79 % 1020,4 hPa 0,0 mm 0,0 km/h (0 Bft) N 11 ° 0 min 0,000 mm 0,0 UV-I 11 W/m² 7,8 °C 11,3 °C 0,0 km/h (0 Bft)
18.09.2019 19:08 11,3 °C 79 % 1020,4 hPa 0,0 mm 0,0 km/h (0 Bft) N 11 ° 0 min 0,000 mm 0,0 UV-I 11 W/m² 7,8 °C 11,3 °C 0,0 km/h (0 Bft)
18.09.2019 19:09 11,2 °C 79 % 1020,5 hPa 0,0 mm 0,0 km/h (0 Bft) N 11 ° 0 min 0,000 mm 0,0 UV-I 11 W/m² 7,7 °C 11,2 °C 0,0 km/h (0 Bft)
18.09.2019 19:10 11,2 °C 79 % 1020,4 hPa 0,0 mm 0,0 km/h (0 Bft) N 11 ° 0 min 0,000 mm 0,0 UV-I 9 W/m² 7,7 °C 11,2 °C 0,0 km/h (0 Bft)
18.09.2019 19:11 11,2 °C 79 % 1020,5 hPa 0,0 mm 0,0 km/h (0 Bft) N 11 ° 0 min 0,000 mm 0,0 UV-I 9 W/m² 7,7 °C 11,2 °C 0,0 km/h (0 Bft)
18.09.2019 19:12 11,1 °C 79 % 1020,5 hPa 0,0 mm 0,0 km/h (0 Bft) N 11 ° 0 min 0,000 mm 0,0 UV-I 9 W/m² 7,6 °C 11,1 °C 0,0 km/h (0 Bft)
18.09.2019 19:13 11,1 °C 80 % 1020,5 hPa 0,0 mm 0,0 km/h (0 Bft) N 11 ° 0 min 0,000 mm 0,0 UV-I 7 W/m² 7,8 °C 11,1 °C 0,0 km/h (0 Bft)
18.09.2019 19:14 11,1 °C 80 % 1020,5 hPa 0,0 mm 0,0 km/h (0 Bft) N 11 ° 0 min 0,000 mm 0,0 UV-I 7 W/m² 7,8 °C 11,1 °C 0,0 km/h (0 Bft)
18.09.2019 19:15 11,0 °C 80 % 1020,6 hPa 0,0 mm 0,0 km/h (0 Bft) N 11 ° 0 min 0,000 mm 0,0 UV-I 5 W/m² 7,7 °C 11,0 °C 0,0 km/h (0 Bft)
18.09.2019 19:16 10,9 °C 81 % 1020,6 hPa 0,0 mm 0,0 km/h (0 Bft) N 11 ° 0 min 0,000 mm 0,0 UV-I 5 W/m² 7,8 °C 10,9 °C 0,0 km/h (0 Bft)
18.09.2019 19:17 10,9 °C 82 % 1020,6 hPa 0,0 mm 0,0 km/h (0 Bft) N 11 ° 0 min 0,000 mm 0,0 UV-I 5 W/m² 7,9 °C 10,9 °C 0,0 km/h (0 Bft)
18.09.2019 19:18 10,8 °C 82 % 1020,6 hPa 0,0 mm 0,0 km/h (0 Bft) N 11 ° 0 min 0,000 mm 0,0 UV-I 5 W/m² 7,9 °C 10,8 °C 0,0 km/h (0 Bft)
18.09.2019 19:19 10,8 °C 81 % 1020,6 hPa 0,0 mm 0,0 km/h (0 Bft) N 11 ° 0 min 0,000 mm 0,0 UV-I 5 W/m² 7,7 °C 10,8 °C 0,0 km/h (0 Bft)
18.09.2019 19:20 10,8 °C 81 % 1020,6 hPa 0,0 mm 0,0 km/h (0 Bft) N 11 ° 0 min 0,000 mm 0,0 UV-I 0 W/m² 7,7 °C 10,8 °C 0,0 km/h (0 Bft)
18.09.2019 19:21 10,8 °C 80 % 1020,6 hPa 0,0 mm 0,0 km/h (0 Bft) N 11 ° 0 min 0,000 mm 0,0 UV-I 0 W/m² 7,5 °C 10,8 °C 0,0 km/h (0 Bft)
18.09.2019 19:22 10,9 °C 80 % 1020,6 hPa 0,0 mm 0,0 km/h (0 Bft) N 11 ° 0 min 0,000 mm 0,0 UV-I 0 W/m² 7,6 °C 10,9 °C 0,0 km/h (0 Bft)
18.09.2019 19:23 10,9 °C 80 % 1020,6 hPa 0,0 mm 0,0 km/h (0 Bft) N 11 ° 0 min 0,000 mm 0,0 UV-I 0 W/m² 7,6 °C 10,9 °C 0,0 km/h (0 Bft)
18.09.2019 19:24 10,9 °C 80 % 1020,6 hPa 0,0 mm 0,0 km/h (0 Bft) N 11 ° 0 min 0,000 mm 0,0 UV-I 0 W/m² 7,6 °C 10,9 °C 0,0 km/h (0 Bft)
18.09.2019 19:25 10,8 °C 80 % 1020,6 hPa 0,0 mm 0,0 km/h (0 Bft) N 11 ° 0 min 0,000 mm 0,0 UV-I 0 W/m² 7,5 °C 10,8 °C 0,0 km/h (0 Bft)
18.09.2019 19:26 10,8 °C 80 % 1020,7 hPa 0,0 mm 0,0 km/h (0 Bft) N 11 ° 0 min 0,000 mm 0,0 UV-I 0 W/m² 7,5 °C 10,8 °C 0,0 km/h (0 Bft)
18.09.2019 19:27 10,9 °C 80 % 1020,7 hPa 0,0 mm 0,0 km/h (0 Bft) N 11 ° 0 min 0,000 mm 0,0 UV-I 0 W/m² 7,6 °C 10,9 °C 0,0 km/h (0 Bft)
18.09.2019 19:28 10,8 °C 80 % 1020,7 hPa 0,0 mm 0,0 km/h (0 Bft) N 11 ° 0 min 0,000 mm 0,0 UV-I 0 W/m² 7,5 °C 10,8 °C 0,0 km/h (0 Bft)
18.09.2019 19:29 10,8 °C 80 % 1020,7 hPa 0,0 mm 0,0 km/h (0 Bft) N 11 ° 0 min 0,000 mm 0,0 UV-I 0 W/m² 7,5 °C 10,8 °C 0,0 km/h (0 Bft)
18.09.2019 19:30 10,7 °C 81 % 1020,7 hPa 0,0 mm 0,0 km/h (0 Bft) N 11 ° 0 min 0,000 mm 0,0 UV-I 0 W/m² 7,6 °C 10,7 °C 0,0 km/h (0 Bft)
18.09.2019 19:31 10,8 °C 81 % 1020,7 hPa 0,0 mm 0,0 km/h (0 Bft) N 11 ° 0 min 0,000 mm 0,0 UV-I 0 W/m² 7,7 °C 10,8 °C 0,0 km/h (0 Bft)
18.09.2019 19:32 10,8 °C 82 % 1020,7 hPa 0,0 mm 0,0 km/h (0 Bft) N 11 ° 0 min 0,000 mm 0,0 UV-I 0 W/m² 7,9 °C 10,8 °C 0,0 km/h (0 Bft)
18.09.2019 19:33 10,8 °C 81 % 1020,7 hPa 0,0 mm 0,0 km/h (0 Bft) N 11 ° 0 min 0,000 mm 0,0 UV-I 0 W/m² 7,7 °C 10,8 °C 0,0 km/h (0 Bft)
18.09.2019 19:34 10,7 °C 81 % 1020,7 hPa 0,0 mm 0,0 km/h (0 Bft) N 11 ° 0 min 0,000 mm 0,0 UV-I 0 W/m² 7,6 °C 10,7 °C 0,0 km/h (0 Bft)
18.09.2019 19:35 10,7 °C 80 % 1020,7 hPa 0,0 mm 0,0 km/h (0 Bft) N 11 ° 0 min 0,000 mm 0,0 UV-I 0 W/m² 7,4 °C 10,7 °C 0,0 km/h (0 Bft)
18.09.2019 19:36 10,7 °C 80 % 1020,7 hPa 0,0 mm 0,0 km/h (0 Bft) N 11 ° 0 min 0,000 mm 0,0 UV-I 0 W/m² 7,4 °C 10,7 °C 0,0 km/h (0 Bft)
18.09.2019 19:37 10,7 °C 80 % 1020,7 hPa 0,0 mm 0,0 km/h (0 Bft) N 11 ° 0 min 0,000 mm 0,0 UV-I 0 W/m² 7,4 °C 10,7 °C 0,0 km/h (0 Bft)
18.09.2019 19:38 10,7 °C 79 % 1020,8 hPa 0,0 mm 0,0 km/h (0 Bft) NO 51 ° 0 min 0,000 mm 0,0 UV-I 0 W/m² 7,2 °C 10,7 °C 0,0 km/h (0 Bft)
18.09.2019 19:39 10,7 °C 79 % 1020,8 hPa 0,0 mm 0,0 km/h (0 Bft) NO 49 ° 0 min 0,000 mm 0,0 UV-I 0 W/m² 7,2 °C 10,7 °C 0,0 km/h (0 Bft)
18.09.2019 19:40 10,7 °C 79 % 1020,8 hPa 0,0 mm 0,0 km/h (0 Bft) NO 55 ° 0 min 0,000 mm 0,0 UV-I 0 W/m² 7,2 °C 10,7 °C 0,0 km/h (0 Bft)
18.09.2019 19:41 10,7 °C 78 % 1020,8 hPa 0,0 mm 0,0 km/h (0 Bft) NO 55 ° 0 min 0,000 mm 0,0 UV-I 0 W/m² 7,0 °C 10,7 °C 0,0 km/h (0 Bft)
18.09.2019 19:42 10,6 °C 79 % 1020,8 hPa 0,0 mm 0,0 km/h (0 Bft) O-NO 58 ° 0 min 0,000 mm 0,0 UV-I 0 W/m² 7,1 °C 10,6 °C 0,0 km/h (0 Bft)
18.09.2019 19:43 10,6 °C 79 % 1020,8 hPa 0,0 mm 0,0 km/h (0 Bft) O-NO 58 ° 0 min 0,000 mm 0,0 UV-I 0 W/m² 7,1 °C 10,6 °C 0,0 km/h (0 Bft)
18.09.2019 19:44 10,6 °C 78 % 1020,8 hPa 0,0 mm 0,0 km/h (0 Bft) O-NO 58 ° 0 min 0,000 mm 0,0 UV-I 0 W/m² 6,9 °C 10,6 °C 0,0 km/h (0 Bft)
18.09.2019 19:45 10,5 °C 79 % 1020,9 hPa 0,0 mm 0,0 km/h (0 Bft) O-NO 58 ° 0 min 0,000 mm 0,0 UV-I 0 W/m² 7,0 °C 10,5 °C 0,0 km/h (0 Bft)
18.09.2019 19:46 10,4 °C 79 % 1020,8 hPa 0,0 mm 0,0 km/h (0 Bft) O-NO 58 ° 0 min 0,000 mm 0,0 UV-I 0 W/m² 6,9 °C 10,4 °C 0,0 km/h (0 Bft)
18.09.2019 19:47 10,4 °C 79 % 1020,9 hPa 0,0 mm 0,0 km/h (0 Bft) O-NO 58 ° 0 min 0,000 mm 0,0 UV-I 0 W/m² 6,9 °C 10,4 °C 0,0 km/h (0 Bft)
18.09.2019 19:48 10,4 °C 79 % 1020,9 hPa 0,0 mm 0,0 km/h (0 Bft) O-NO 58 ° 0 min 0,000 mm 0,0 UV-I 0 W/m² 6,9 °C 10,4 °C 0,0 km/h (0 Bft)
18.09.2019 19:49 10,4 °C 79 % 1020,9 hPa 0,0 mm 0,0 km/h (0 Bft) O-NO 58 ° 0 min 0,000 mm 0,0 UV-I 0 W/m² 6,9 °C 10,4 °C 0,0 km/h (0 Bft)
18.09.2019 19:50 10,4 °C 80 % 1020,9 hPa 0,0 mm 0,0 km/h (0 Bft) O-NO 59 ° 0 min 0,000 mm 0,0 UV-I 0 W/m² 7,1 °C 10,4 °C 0,0 km/h (0 Bft)
18.09.2019 19:51 10,4 °C 79 % 1020,9 hPa 0,0 mm 0,0 km/h (0 Bft) O-NO 59 ° 0 min 0,000 mm 0,0 UV-I 0 W/m² 6,9 °C 10,4 °C 0,0 km/h (0 Bft)
18.09.2019 19:52 10,5 °C 78 % 1021,0 hPa 0,0 mm 0,0 km/h (0 Bft) O-NO 59 ° 0 min 0,000 mm 0,0 UV-I 0 W/m² 6,8 °C 10,5 °C 0,0 km/h (0 Bft)
18.09.2019 19:53 10,6 °C 77 % 1021,0 hPa 0,0 mm 0,0 km/h (0 Bft) O-NO 59 ° 0 min 0,000 mm 0,0 UV-I 0 W/m² 6,7 °C 10,6 °C 0,0 km/h (0 Bft)
18.09.2019 19:54 10,6 °C 77 % 1021,1 hPa 0,0 mm 0,0 km/h (0 Bft) O-NO 59 ° 0 min 0,000 mm 0,0 UV-I 0 W/m² 6,7 °C 10,6 °C 0,0 km/h (0 Bft)
18.09.2019 19:55 10,6 °C 77 % 1021,1 hPa 0,0 mm 0,0 km/h (0 Bft) O-NO 59 ° 0 min 0,000 mm 0,0 UV-I 0 W/m² 6,7 °C 10,6 °C 0,0 km/h (0 Bft)
18.09.2019 19:56 10,6 °C 77 % 1021,1 hPa 0,0 mm 0,0 km/h (0 Bft) O-NO 59 ° 0 min 0,000 mm 0,0 UV-I 0 W/m² 6,7 °C 10,6 °C 0,0 km/h (0 Bft)
18.09.2019 19:57 10,6 °C 77 % 1021,1 hPa 0,0 mm 0,0 km/h (0 Bft) O-NO 59 ° 0 min 0,000 mm 0,0 UV-I 0 W/m² 6,7 °C 10,6 °C 0,0 km/h (0 Bft)
18.09.2019 19:58 10,6 °C 77 % 1021,1 hPa 0,0 mm 0,0 km/h (0 Bft) O-NO 59 ° 0 min 0,000 mm 0,0 UV-I 0 W/m² 6,7 °C 10,6 °C 0,0 km/h (0 Bft)
18.09.2019 19:59 10,5 °C 77 % 1021,2 hPa 0,0 mm 0,0 km/h (0 Bft) O-NO 59 ° 0 min 0,000 mm 0,0 UV-I 0 W/m² 6,6 °C 10,5 °C 0,0 km/h (0 Bft)
18.09.2019 20:00 10,4 °C 77 % 1021,2 hPa 0,0 mm 0,0 km/h (0 Bft) O-NO 59 ° 0 min 0,000 mm 0,0 UV-I 0 W/m² 6,5 °C 10,4 °C 0,0 km/h (0 Bft)
18.09.2019 20:01 10,4 °C 77 % 1021,2 hPa 0,0 mm 0,0 km/h (0 Bft) O-NO 59 ° 0 min 0,000 mm 0,0 UV-I 0 W/m² 6,5 °C 10,4 °C 0,0 km/h (0 Bft)
18.09.2019 20:02 10,4 °C 78 % 1021,2 hPa 0,0 mm 0,0 km/h (0 Bft) O-NO 59 ° 0 min 0,000 mm 0,0 UV-I 0 W/m² 6,7 °C 10,4 °C 0,0 km/h (0 Bft)
18.09.2019 20:03 10,4 °C 78 % 1021,2 hPa 0,0 mm 0,0 km/h (0 Bft) O-NO 59 ° 0 min 0,000 mm 0,0 UV-I 0 W/m² 6,7 °C 10,4 °C 0,0 km/h (0 Bft)
18.09.2019 20:04 10,3 °C 78 % 1021,3 hPa 0,0 mm 0,0 km/h (0 Bft) O-NO 59 ° 0 min 0,000 mm 0,0 UV-I 0 W/m² 6,6 °C 10,3 °C 0,0 km/h (0 Bft)
18.09.2019 20:05 10,3 °C 77 % 1021,3 hPa 0,0 mm 0,0 km/h (0 Bft) O-NO 59 ° 0 min 0,000 mm 0,0 UV-I 0 W/m² 6,4 °C 10,3 °C 0,0 km/h (0 Bft)
18.09.2019 20:06 10,3 °C 77 % 1021,3 hPa 0,0 mm 0,0 km/h (0 Bft) O-NO 59 ° 0 min 0,000 mm 0,0 UV-I 0 W/m² 6,4 °C 10,3 °C 0,0 km/h (0 Bft)
18.09.2019 20:07 10,3 °C 77 % 1021,3 hPa 0,0 mm 0,0 km/h (0 Bft) O-NO 59 ° 0 min 0,000 mm 0,0 UV-I 0 W/m² 6,4 °C 10,3 °C 0,0 km/h (0 Bft)
18.09.2019 20:08 10,3 °C 77 % 1021,3 hPa 0,0 mm 0,0 km/h (0 Bft) O-NO 59 ° 0 min 0,000 mm 0,0 UV-I 0 W/m² 6,4 °C 10,3 °C 0,0 km/h (0 Bft)
18.09.2019 20:09 10,3 °C 78 % 1021,3 hPa 0,0 mm 0,0 km/h (0 Bft) O-NO 59 ° 0 min 0,000 mm 0,0 UV-I 0 W/m² 6,6 °C 10,3 °C 0,0 km/h (0 Bft)
18.09.2019 20:10 10,3 °C 77 % 1021,3 hPa 0,0 mm 0,0 km/h (0 Bft) O-NO 59 ° 0 min 0,000 mm 0,0 UV-I 0 W/m² 6,4 °C 10,3 °C 0,0 km/h (0 Bft)
18.09.2019 20:11 10,2 °C 77 % 1021,3 hPa 0,0 mm 0,0 km/h (0 Bft) O-NO 59 ° 0 min 0,000 mm 0,0 UV-I 0 W/m² 6,4 °C 10,2 °C 0,0 km/h (0 Bft)
18.09.2019 20:12 10,2 °C 77 % 1021,3 hPa 0,0 mm 0,0 km/h (0 Bft) O-NO 59 ° 0 min 0,000 mm 0,0 UV-I 0 W/m² 6,4 °C 10,2 °C 0,0 km/h (0 Bft)
18.09.2019 20:13 10,2 °C 77 % 1021,4 hPa 0,0 mm 0,0 km/h (0 Bft) O-NO 59 ° 0 min 0,000 mm 0,0 UV-I 0 W/m² 6,4 °C 10,2 °C 0,0 km/h (0 Bft)
18.09.2019 20:14 10,1 °C 77 % 1021,4 hPa 0,0 mm 0,0 km/h (0 Bft) O-NO 59 ° 0 min 0,000 mm 0,0 UV-I 0 W/m² 6,3 °C 10,1 °C 0,0 km/h (0 Bft)
18.09.2019 20:15 10,1 °C 76 % 1021,4 hPa 0,0 mm 0,0 km/h (0 Bft) O-NO 59 ° 0 min 0,000 mm 0,0 UV-I 0 W/m² 6,1 °C 10,1 °C 0,0 km/h (0 Bft)
18.09.2019 20:16 10,1 °C 76 % 1021,4 hPa 0,0 mm 0,0 km/h (0 Bft) O-NO 59 ° 0 min 0,000 mm 0,0 UV-I 0 W/m² 6,1 °C 10,1 °C 0,0 km/h (0 Bft)
18.09.2019 20:17 10,0 °C 77 % 1021,4 hPa 0,0 mm 0,0 km/h (0 Bft) O-NO 59 ° 0 min 0,000 mm 0,0 UV-I 0 W/m² 6,2 °C 10,0 °C 0,0 km/h (0 Bft)
18.09.2019 20:18 9,9 °C 77 % 1021,4 hPa 0,0 mm 0,0 km/h (0 Bft) O-NO 59 ° 0 min 0,000 mm 0,0 UV-I 0 W/m² 6,1 °C 9,9 °C 0,0 km/h (0 Bft)
18.09.2019 20:19 9,8 °C 78 % 1021,4 hPa 0,0 mm 0,0 km/h (0 Bft) O-NO 59 ° 0 min 0,000 mm 0,0 UV-I 0 W/m² 6,1 °C 9,8 °C 0,0 km/h (0 Bft)
18.09.2019 20:20 9,8 °C 78 % 1021,5 hPa 0,0 mm 0,0 km/h (0 Bft) O-NO 59 ° 0 min 0,000 mm 0,0 UV-I 0 W/m² 6,1 °C 9,8 °C 0,0 km/h (0 Bft)
18.09.2019 20:21 9,8 °C 77 % 1021,5 hPa 0,0 mm 0,0 km/h (0 Bft) O-NO 59 ° 0 min 0,000 mm 0,0 UV-I 0 W/m² 6,0 °C 9,8 °C 0,0 km/h (0 Bft)
18.09.2019 20:22 9,8 °C 77 % 1021,5 hPa 0,0 mm 0,0 km/h (0 Bft) O-NO 59 ° 0 min 0,000 mm 0,0 UV-I 0 W/m² 6,0 °C 9,8 °C 0,0 km/h (0 Bft)
18.09.2019 20:23 9,8 °C 78 % 1021,5 hPa 0,0 mm 0,0 km/h (0 Bft) O-NO 59 ° 0 min 0,000 mm 0,0 UV-I 0 W/m² 6,1 °C 9,8 °C 0,0 km/h (0 Bft)
18.09.2019 20:24 9,8 °C 77 % 1021,5 hPa 0,0 mm 0,0 km/h (0 Bft) O-NO 59 ° 0 min 0,000 mm 0,0 UV-I 0 W/m² 6,0 °C 9,8 °C 0,0 km/h (0 Bft)
18.09.2019 20:25 9,8 °C 77 % 1021,5 hPa 0,0 mm 0,0 km/h (0 Bft) O-NO 59 ° 0 min 0,000 mm 0,0 UV-I 0 W/m² 6,0 °C 9,8 °C 0,0 km/h (0 Bft)
18.09.2019 20:26 9,7 °C 78 % 1021,5 hPa 0,0 mm 0,0 km/h (0 Bft) O-NO 59 ° 0 min 0,000 mm 0,0 UV-I 0 W/m² 6,1 °C 9,7 °C 0,0 km/h (0 Bft)
18.09.2019 20:27 9,7 °C 78 % 1021,6 hPa 0,0 mm 0,0 km/h (0 Bft) O-NO 59 ° 0 min 0,000 mm 0,0 UV-I 0 W/m² 6,1 °C 9,7 °C 0,0 km/h (0 Bft)
18.09.2019 20:28 9,6 °C 78 % 1021,6 hPa 0,0 mm 0,0 km/h (0 Bft) O-NO 59 ° 0 min 0,000 mm 0,0 UV-I 0 W/m² 6,0 °C 9,6 °C 0,0 km/h (0 Bft)
18.09.2019 20:29 9,6 °C 78 % 1021,6 hPa 0,0 mm 0,0 km/h (0 Bft) O-NO 59 ° 0 min 0,000 mm 0,0 UV-I 0 W/m² 6,0 °C 9,6 °C 0,0 km/h (0 Bft)
18.09.2019 20:30 9,6 °C 78 % 1021,6 hPa 0,0 mm 0,0 km/h (0 Bft) O-NO 59 ° 0 min 0,000 mm 0,0 UV-I 0 W/m² 6,0 °C 9,6 °C 0,0 km/h (0 Bft)
18.09.2019 20:31 9,4 °C 79 % 1021,6 hPa 0,0 mm 0,0 km/h (0 Bft) O-NO 59 ° 0 min 0,000 mm 0,0 UV-I 0 W/m² 5,9 °C 9,4 °C 0,0 km/h (0 Bft)
18.09.2019 20:32 9,4 °C 79 % 1021,6 hPa 0,0 mm 0,0 km/h (0 Bft) O-NO 59 ° 0 min 0,000 mm 0,0 UV-I 0 W/m² 5,9 °C 9,4 °C 0,0 km/h (0 Bft)
18.09.2019 20:33 9,3 °C 79 % 1021,7 hPa 0,0 mm 0,0 km/h (0 Bft) O-NO 59 ° 0 min 0,000 mm 0,0 UV-I 0 W/m² 5,8 °C 9,3 °C 0,0 km/h (0 Bft)
18.09.2019 20:34 9,3 °C 79 % 1021,7 hPa 0,0 mm 0,0 km/h (0 Bft) O-NO 59 ° 0 min 0,000 mm 0,0 UV-I 0 W/m² 5,8 °C 9,3 °C 0,0 km/h (0 Bft)
18.09.2019 20:35 9,2 °C 79 % 1021,7 hPa 0,0 mm 0,0 km/h (0 Bft) O-NO 59 ° 0 min 0,000 mm 0,0 UV-I 0 W/m² 5,8 °C 9,2 °C 0,0 km/h (0 Bft)
18.09.2019 20:36 9,2 °C 80 % 1021,7 hPa 0,0 mm 0,0 km/h (0 Bft) O-NO 59 ° 0 min 0,000 mm 0,0 UV-I 0 W/m² 5,9 °C 9,2 °C 0,0 km/h (0 Bft)
18.09.2019 20:37 9,2 °C 80 % 1021,7 hPa 0,0 mm 2,1 km/h (1 Bft) O-NO 59 ° 0 min 0,000 mm 0,0 UV-I 0 W/m² 5,9 °C 9,2 °C 3,2 km/h (1 Bft)
18.09.2019 20:38 9,2 °C 80 % 1021,7 hPa 0,0 mm 1,8 km/h (1 Bft) O-NO 59 ° 0 min 0,000 mm 0,0 UV-I 0 W/m² 5,9 °C 9,2 °C 4,8 km/h (1 Bft)
18.09.2019 20:39 9,2 °C 79 % 1021,7 hPa 0,0 mm 2,7 km/h (1 Bft) O-NO 59 ° 0 min 0,000 mm 0,0 UV-I 0 W/m² 5,8 °C 9,2 °C 3,2 km/h (1 Bft)
18.09.2019 20:40 9,1 °C 80 % 1021,7 hPa 0,0 mm 1,7 km/h (1 Bft) O-NO 59 ° 0 min 0,000 mm 0,0 UV-I 0 W/m² 5,8 °C 9,1 °C 3,2 km/h (1 Bft)
18.09.2019 20:41 9,1 °C 80 % 1021,7 hPa 0,0 mm 1,1 km/h (1 Bft) O-NO 59 ° 0 min 0,000 mm 0,0 UV-I 0 W/m² 5,8 °C 9,1 °C 3,2 km/h (1 Bft)
18.09.2019 20:42 9,1 °C 80 % 1021,7 hPa 0,0 mm 0,7 km/h (0 Bft) O-NO 59 ° 0 min 0,000 mm 0,0 UV-I 0 W/m² 5,8 °C 9,1 °C 1,6 km/h (1 Bft)
18.09.2019 20:43 9,1 °C 80 % 1021,7 hPa 0,0 mm 0,0 km/h (0 Bft) O-NO 59 ° 0 min 0,000 mm 0,0 UV-I 0 W/m² 5,8 °C 9,1 °C 0,0 km/h (0 Bft)
18.09.2019 20:44 9,1 °C 80 % 1021,9 hPa 0,0 mm 0,0 km/h (0 Bft) O-NO 59 ° 0 min 0,000 mm 0,0 UV-I 0 W/m² 5,8 °C 9,1 °C 0,0 km/h (0 Bft)
18.09.2019 20:45 9,1 °C 80 % 1021,8 hPa 0,0 mm 0,0 km/h (0 Bft) O-NO 59 ° 0 min 0,000 mm 0,0 UV-I 0 W/m² 5,8 °C 9,1 °C 0,0 km/h (0 Bft)
18.09.2019 20:46 9,0 °C 80 % 1021,8 hPa 0,0 mm 0,0 km/h (0 Bft) O-NO 59 ° 0 min 0,000 mm 0,0 UV-I 0 W/m² 5,7 °C 9,0 °C 0,0 km/h (0 Bft)
18.09.2019 20:47 9,0 °C 80 % 1021,8 hPa 0,0 mm 0,0 km/h (0 Bft) O-NO 59 ° 0 min 0,000 mm 0,0 UV-I 0 W/m² 5,7 °C 9,0 °C 0,0 km/h (0 Bft)
18.09.2019 20:48 8,9 °C 80 % 1021,8 hPa 0,0 mm 0,0 km/h (0 Bft) O-NO 59 ° 0 min 0,000 mm 0,0 UV-I 0 W/m² 5,6 °C 8,9 °C 0,0 km/h (0 Bft)
18.09.2019 20:49 8,9 °C 80 % 1021,8 hPa 0,0 mm 0,0 km/h (0 Bft) O-NO 59 ° 0 min 0,000 mm 0,0 UV-I 0 W/m² 5,6 °C 8,9 °C 0,0 km/h (0 Bft)
18.09.2019 20:50 8,9 °C 80 % 1021,7 hPa 0,0 mm 0,2 km/h (0 Bft) O-NO 59 ° 0 min 0,000 mm 0,0 UV-I 0 W/m² 5,6 °C 8,9 °C 1,6 km/h (1 Bft)
18.09.2019 20:51 8,9 °C 80 % 1021,8 hPa 0,0 mm 2,1 km/h (1 Bft) O-NO 59 ° 0 min 0,000 mm 0,0 UV-I 0 W/m² 5,6 °C 8,9 °C 3,2 km/h (1 Bft)
18.09.2019 20:52 8,8 °C 80 % 1021,8 hPa 0,0 mm 0,0 km/h (0 Bft) O-NO 59 ° 0 min 0,000 mm 0,0 UV-I 0 W/m² 5,5 °C 8,8 °C 0,0 km/h (0 Bft)
18.09.2019 20:53 8,7 °C 80 % 1021,8 hPa 0,0 mm 0,0 km/h (0 Bft) O-NO 59 ° 0 min 0,000 mm 0,0 UV-I 0 W/m² 5,4 °C 8,7 °C 0,0 km/h (0 Bft)
18.09.2019 20:54 8,6 °C 81 % 1021,7 hPa 0,0 mm 0,0 km/h (0 Bft) O-NO 59 ° 0 min 0,000 mm 0,0 UV-I 0 W/m² 5,5 °C 8,6 °C 0,0 km/h (0 Bft)
18.09.2019 20:55 8,5 °C 81 % 1021,8 hPa 0,0 mm 0,0 km/h (0 Bft) O-NO 59 ° 0 min 0,000 mm 0,0 UV-I 0 W/m² 5,4 °C 8,5 °C 0,0 km/h (0 Bft)
18.09.2019 20:56 8,4 °C 81 % 1021,8 hPa 0,0 mm 0,0 km/h (0 Bft) O-NO 59 ° 0 min 0,000 mm 0,0 UV-I 0 W/m² 5,3 °C 8,4 °C 0,0 km/h (0 Bft)
18.09.2019 20:57 8,3 °C 82 % 1021,8 hPa 0,0 mm 0,0 km/h (0 Bft) O-NO 59 ° 0 min 0,000 mm 0,0 UV-I 0 W/m² 5,4 °C 8,3 °C 0,0 km/h (0 Bft)
18.09.2019 20:58 8,2 °C 82 % 1021,8 hPa 0,0 mm 0,0 km/h (0 Bft) O-NO 59 ° 0 min 0,000 mm 0,0 UV-I 0 W/m² 5,3 °C 8,2 °C 0,0 km/h (0 Bft)
18.09.2019 20:59 8,1 °C 82 % 1021,8 hPa 0,0 mm 0,0 km/h (0 Bft) O-NO 59 ° 0 min 0,000 mm 0,0 UV-I 0 W/m² 5,2 °C 8,1 °C 0,0 km/h (0 Bft)
18.09.2019 21:00 7,9 °C 83 % 1021,8 hPa 0,0 mm 0,0 km/h (0 Bft) O-NO 59 ° 0 min 0,000 mm 0,0 UV-I 0 W/m² 5,2 °C 7,9 °C 0,0 km/h (0 Bft)
18.09.2019 21:01 7,9 °C 84 % 1021,8 hPa 0,0 mm 0,0 km/h (0 Bft) O-NO 59 ° 0 min 0,025 mm 0,0 UV-I 0 W/m² 5,4 °C 7,9 °C 0,0 km/h (0 Bft)
18.09.2019 21:02 7,8 °C 84 % 1021,8 hPa 0,0 mm 0,0 km/h (0 Bft) O-NO 59 ° 0 min 0,000 mm 0,0 UV-I 0 W/m² 5,3 °C 7,8 °C 0,0 km/h (0 Bft)
18.09.2019 21:03 7,8 °C 84 % 1021,8 hPa 0,0 mm 0,0 km/h (0 Bft) O-NO 59 ° 0 min 0,000 mm 0,0 UV-I 0 W/m² 5,3 °C 7,8 °C 0,0 km/h (0 Bft)
18.09.2019 21:04 7,8 °C 85 % 1021,8 hPa 0,0 mm 0,0 km/h (0 Bft) O-NO 59 ° 0 min 0,000 mm 0,0 UV-I 0 W/m² 5,4 °C 7,8 °C 0,0 km/h (0 Bft)
18.09.2019 21:05 7,8 °C 85 % 1021,9 hPa 0,0 mm 0,0 km/h (0 Bft) O-NO 59 ° 0 min 0,000 mm 0,0 UV-I 0 W/m² 5,4 °C 7,8 °C 0,0 km/h (0 Bft)
18.09.2019 21:06 7,9 °C 84 % 1021,8 hPa 0,0 mm 0,0 km/h (0 Bft) O-NO 59 ° 0 min 0,000 mm 0,0 UV-I 0 W/m² 5,4 °C 7,9 °C 0,0 km/h (0 Bft)
18.09.2019 21:07 7,8 °C 84 % 1021,9 hPa 0,0 mm 0,0 km/h (0 Bft) O-NO 59 ° 0 min 0,000 mm 0,0 UV-I 0 W/m² 5,3 °C 7,8 °C 0,0 km/h (0 Bft)
18.09.2019 21:08 7,7 °C 83 % 1021,8 hPa 0,0 mm 0,0 km/h (0 Bft) O-NO 59 ° 0 min 0,000 mm 0,0 UV-I 0 W/m² 5,0 °C 7,7 °C 0,0 km/h (0 Bft)
18.09.2019 21:09 7,6 °C 84 % 1021,8 hPa 0,0 mm 0,0 km/h (0 Bft) O-NO 59 ° 0 min 0,000 mm 0,0 UV-I 0 W/m² 5,1 °C 7,6 °C 0,0 km/h (0 Bft)
18.09.2019 21:10 7,5 °C 84 % 1021,8 hPa 0,0 mm 0,0 km/h (0 Bft) O-NO 59 ° 0 min 0,000 mm 0,0 UV-I 0 W/m² 5,0 °C 7,5 °C 0,0 km/h (0 Bft)
18.09.2019 21:11 7,5 °C 84 % 1021,8 hPa 0,0 mm 0,0 km/h (0 Bft) O-NO 59 ° 0 min 0,000 mm 0,0 UV-I 0 W/m² 5,0 °C 7,5 °C 0,0 km/h (0 Bft)
18.09.2019 21:12 7,6 °C 84 % 1021,8 hPa 0,0 mm 0,0 km/h (0 Bft) O-NO 59 ° 0 min 0,000 mm 0,0 UV-I 0 W/m² 5,1 °C 7,6 °C 0,0 km/h (0 Bft)
18.09.2019 21:13 7,6 °C 84 % 1021,8 hPa 0,0 mm 0,0 km/h (0 Bft) O-NO 59 ° 0 min 0,000 mm 0,0 UV-I 0 W/m² 5,1 °C 7,6 °C 0,0 km/h (0 Bft)
18.09.2019 21:14 7,6 °C 84 % 1021,8 hPa 0,0 mm 0,0 km/h (0 Bft) O-NO 59 ° 0 min 0,000 mm 0,0 UV-I 0 W/m² 5,1 °C 7,6 °C 0,0 km/h (0 Bft)
18.09.2019 21:15 7,6 °C 84 % 1021,8 hPa 0,0 mm 0,0 km/h (0 Bft) O-NO 59 ° 0 min 0,000 mm 0,0 UV-I 0 W/m² 5,1 °C 7,6 °C 0,0 km/h (0 Bft)
18.09.2019 21:16 7,7 °C 84 % 1021,8 hPa 0,0 mm 0,0 km/h (0 Bft) O-NO 59 ° 0 min 0,000 mm 0,0 UV-I 0 W/m² 5,2 °C 7,7 °C 0,0 km/h (0 Bft)
18.09.2019 21:17 7,7 °C 84 % 1021,8 hPa 0,0 mm 0,0 km/h (0 Bft) O-NO 59 ° 0 min 0,000 mm 0,0 UV-I 0 W/m² 5,2 °C 7,7 °C 0,0 km/h (0 Bft)
18.09.2019 21:18 7,7 °C 84 % 1021,8 hPa 0,0 mm 0,0 km/h (0 Bft) O-NO 59 ° 0 min 0,000 mm 0,0 UV-I 0 W/m² 5,2 °C 7,7 °C 0,0 km/h (0 Bft)
18.09.2019 21:19 7,7 °C 83 % 1021,7 hPa 0,0 mm 0,0 km/h (0 Bft) O-NO 59 ° 0 min 0,000 mm 0,0 UV-I 0 W/m² 5,0 °C 7,7 °C 0,0 km/h (0 Bft)
18.09.2019 21:20 7,6 °C 83 % 1021,9 hPa 0,0 mm 0,0 km/h (0 Bft) O-NO 59 ° 0 min 0,000 mm 0,0 UV-I 0 W/m² 4,9 °C 7,6 °C 0,0 km/h (0 Bft)
18.09.2019 21:21 7,5 °C 83 % 1021,8 hPa 0,0 mm 0,0 km/h (0 Bft) O-NO 59 ° 0 min 0,000 mm 0,0 UV-I 0 W/m² 4,8 °C 7,5 °C 0,0 km/h (0 Bft)
18.09.2019 21:22 7,3 °C 83 % 1021,9 hPa 0,0 mm 0,0 km/h (0 Bft) O-NO 59 ° 0 min 0,000 mm 0,0 UV-I 0 W/m² 4,6 °C 7,3 °C 0,0 km/h (0 Bft)
18.09.2019 21:23 7,2 °C 84 % 1021,9 hPa 0,0 mm 0,0 km/h (0 Bft) O-NO 59 ° 0 min 0,000 mm 0,0 UV-I 0 W/m² 4,7 °C 7,2 °C 0,0 km/h (0 Bft)
18.09.2019 21:24 7,1 °C 84 % 1021,9 hPa 0,0 mm 0,0 km/h (0 Bft) O-NO 59 ° 0 min 0,000 mm 0,0 UV-I 0 W/m² 4,6 °C 7,1 °C 0,0 km/h (0 Bft)
18.09.2019 21:25 6,9 °C 85 % 1022,0 hPa 0,0 mm 0,0 km/h (0 Bft) O-NO 59 ° 0 min 0,000 mm 0,0 UV-I 0 W/m² 4,6 °C 6,9 °C 0,0 km/h (0 Bft)
18.09.2019 21:26 6,9 °C 86 % 1021,9 hPa 0,0 mm 0,0 km/h (0 Bft) O-NO 59 ° 0 min 0,000 mm 0,0 UV-I 0 W/m² 4,7 °C 6,9 °C 0,0 km/h (0 Bft)
18.09.2019 21:27 7,0 °C 86 % 1021,9 hPa 0,0 mm 0,0 km/h (0 Bft) O-NO 59 ° 0 min 0,000 mm 0,0 UV-I 0 W/m² 4,8 °C 7,0 °C 0,0 km/h (0 Bft)
18.09.2019 21:28 7,1 °C 86 % 1022,0 hPa 0,0 mm 0,0 km/h (0 Bft) O-NO 59 ° 0 min 0,000 mm 0,0 UV-I 0 W/m² 4,9 °C 7,1 °C 0,0 km/h (0 Bft)
18.09.2019 21:29 7,2 °C 86 % 1022,0 hPa 0,0 mm 0,0 km/h (0 Bft) O-NO 59 ° 0 min 0,000 mm 0,0 UV-I 0 W/m² 5,0 °C 7,2 °C 0,0 km/h (0 Bft)
18.09.2019 21:30 7,2 °C 85 % 1022,0 hPa 0,0 mm 0,0 km/h (0 Bft) O-NO 59 ° 0 min 0,000 mm 0,0 UV-I 0 W/m² 4,9 °C 7,2 °C 0,0 km/h (0 Bft)
18.09.2019 21:31 7,1 °C 85 % 1022,0 hPa 0,0 mm 0,0 km/h (0 Bft) O-NO 59 ° 0 min 0,000 mm 0,0 UV-I 0 W/m² 4,8 °C 7,1 °C 0,0 km/h (0 Bft)
18.09.2019 21:32 7,1 °C 85 % 1022,0 hPa 0,0 mm 0,0 km/h (0 Bft) O-NO 59 ° 0 min 0,000 mm 0,0 UV-I 0 W/m² 4,8 °C 7,1 °C 0,0 km/h (0 Bft)
18.09.2019 21:33 7,0 °C 86 % 1022,0 hPa 0,0 mm 0,0 km/h (0 Bft) O-NO 59 ° 0 min 0,000 mm 0,0 UV-I 0 W/m² 4,8 °C 7,0 °C 0,0 km/h (0 Bft)
18.09.2019 21:34 6,9 °C 86 % 1022,0 hPa 0,0 mm 0,0 km/h (0 Bft) O-NO 59 ° 0 min 0,000 mm 0,0 UV-I 0 W/m² 4,7 °C 6,9 °C 0,0 km/h (0 Bft)
18.09.2019 21:35 6,9 °C 86 % 1022,1 hPa 0,0 mm 0,0 km/h (0 Bft) O-NO 59 ° 0 min 0,000 mm 0,0 UV-I 0 W/m² 4,7 °C 6,9 °C 0,0 km/h (0 Bft)
18.09.2019 21:36 6,8 °C 86 % 1022,1 hPa 0,0 mm 0,0 km/h (0 Bft) O-NO 59 ° 0 min 0,000 mm 0,0 UV-I 0 W/m² 4,6 °C 6,8 °C 0,0 km/h (0 Bft)
18.09.2019 21:37 6,9 °C 86 % 1022,1 hPa 0,0 mm 0,0 km/h (0 Bft) O-NO 59 ° 0 min 0,000 mm 0,0 UV-I 0 W/m² 4,7 °C 6,9 °C 0,0 km/h (0 Bft)
18.09.2019 21:38 6,9 °C 87 % 1022,1 hPa 0,0 mm 0,0 km/h (0 Bft) O-NO 59 ° 0 min 0,000 mm 0,0 UV-I 0 W/m² 4,9 °C 6,9 °C 0,0 km/h (0 Bft)
18.09.2019 21:39 6,9 °C 87 % 1022,1 hPa 0,0 mm 0,0 km/h (0 Bft) O-NO 59 ° 0 min 0,000 mm 0,0 UV-I 0 W/m² 4,9 °C 6,9 °C 0,0 km/h (0 Bft)
18.09.2019 21:40 6,9 °C 86 % 1022,1 hPa 0,0 mm 0,0 km/h (0 Bft) O-NO 59 ° 0 min 0,000 mm 0,0 UV-I 0 W/m² 4,7 °C 6,9 °C 0,0 km/h (0 Bft)
18.09.2019 21:41 7,0 °C 86 % 1022,1 hPa 0,0 mm 0,0 km/h (0 Bft) O-NO 59 ° 0 min 0,000 mm 0,0 UV-I 0 W/m² 4,8 °C 7,0 °C 0,0 km/h (0 Bft)
18.09.2019 21:42 7,0 °C 86 % 1022,1 hPa 0,0 mm 0,0 km/h (0 Bft) O-NO 59 ° 0 min 0,000 mm 0,0 UV-I 0 W/m² 4,8 °C 7,0 °C 0,0 km/h (0 Bft)
18.09.2019 21:43 7,0 °C 86 % 1022,2 hPa 0,0 mm 0,0 km/h (0 Bft) O-NO 59 ° 0 min 0,000 mm 0,0 UV-I 0 W/m² 4,8 °C 7,0 °C 0,0 km/h (0 Bft)
18.09.2019 21:44 6,9 °C 86 % 1022,2 hPa 0,0 mm 0,0 km/h (0 Bft) O-NO 59 ° 0 min 0,000 mm 0,0 UV-I 0 W/m² 4,7 °C 6,9 °C 0,0 km/h (0 Bft)
18.09.2019 21:45 6,9 °C 86 % 1022,2 hPa 0,0 mm 0,0 km/h (0 Bft) O-NO 59 ° 0 min 0,000 mm 0,0 UV-I 0 W/m² 4,7 °C 6,9 °C 0,0 km/h (0 Bft)
18.09.2019 21:46 6,9 °C 86 % 1022,2 hPa 0,0 mm 0,0 km/h (0 Bft) O-NO 59 ° 0 min 0,000 mm 0,0 UV-I 0 W/m² 4,7 °C 6,9 °C 0,0 km/h (0 Bft)
18.09.2019 21:47 6,9 °C 87 % 1022,3 hPa 0,0 mm 0,0 km/h (0 Bft) O-NO 59 ° 0 min 0,000 mm 0,0 UV-I 0 W/m² 4,9 °C 6,9 °C 0,0 km/h (0 Bft)
18.09.2019 21:48 6,9 °C 87 % 1022,3 hPa 0,0 mm 0,0 km/h (0 Bft) O-NO 59 ° 0 min 0,000 mm 0,0 UV-I 0 W/m² 4,9 °C 6,9 °C 0,0 km/h (0 Bft)
18.09.2019 21:49 6,9 °C 86 % 1022,2 hPa 0,0 mm 0,0 km/h (0 Bft) O-NO 59 ° 0 min 0,000 mm 0,0 UV-I 0 W/m² 4,7 °C 6,9 °C 0,0 km/h (0 Bft)
18.09.2019 21:50 7,0 °C 86 % 1022,2 hPa 0,0 mm 0,0 km/h (0 Bft) O-NO 59 ° 0 min 0,000 mm 0,0 UV-I 0 W/m² 4,8 °C 7,0 °C 0,0 km/h (0 Bft)
18.09.2019 21:51 7,1 °C 86 % 1022,2 hPa 0,0 mm 0,0 km/h (0 Bft) O-NO 59 ° 0 min 0,000 mm 0,0 UV-I 0 W/m² 4,9 °C 7,1 °C 0,0 km/h (0 Bft)
18.09.2019 21:52 7,0 °C 86 % 1022,2 hPa 0,0 mm 0,0 km/h (0 Bft) O-NO 59 ° 0 min 0,000 mm 0,0 UV-I 0 W/m² 4,8 °C 7,0 °C 0,0 km/h (0 Bft)
18.09.2019 21:53 6,9 °C 86 % 1022,2 hPa 0,0 mm 0,0 km/h (0 Bft) O-NO 59 ° 0 min 0,000 mm 0,0 UV-I 0 W/m² 4,7 °C 6,9 °C 0,0 km/h (0 Bft)
18.09.2019 21:54 6,8 °C 86 % 1022,2 hPa 0,0 mm 0,0 km/h (0 Bft) O-NO 59 ° 0 min 0,000 mm 0,0 UV-I 0 W/m² 4,6 °C 6,8 °C 0,0 km/h (0 Bft)
18.09.2019 21:55 6,8 °C 86 % 1022,2 hPa 0,0 mm 0,0 km/h (0 Bft) O-NO 59 ° 0 min 0,000 mm 0,0 UV-I 0 W/m² 4,6 °C 6,8 °C 0,0 km/h (0 Bft)
18.09.2019 21:56 6,7 °C 86 % 1022,2 hPa 0,0 mm 0,0 km/h (0 Bft) O-NO 59 ° 0 min 0,000 mm 0,0 UV-I 0 W/m² 4,5 °C 6,7 °C 0,0 km/h (0 Bft)
18.09.2019 21:57 6,7 °C 87 % 1022,2 hPa 0,0 mm 0,0 km/h (0 Bft) O-NO 59 ° 0 min 0,000 mm 0,0 UV-I 0 W/m² 4,7 °C 6,7 °C 0,0 km/h (0 Bft)
18.09.2019 21:58 6,6 °C 87 % 1022,2 hPa 0,0 mm 0,0 km/h (0 Bft) O-NO 59 ° 0 min 0,000 mm 0,0 UV-I 0 W/m² 4,6 °C 6,6 °C 0,0 km/h (0 Bft)
18.09.2019 21:59 6,7 °C 87 % 1022,2 hPa 0,0 mm 0,0 km/h (0 Bft) O-NO 59 ° 0 min 0,000 mm 0,0 UV-I 0 W/m² 4,7 °C 6,7 °C 0,0 km/h (0 Bft)
18.09.2019 22:00 6,7 °C 87 % 1022,2 hPa 0,0 mm 0,0 km/h (0 Bft) O-NO 59 ° 0 min 0,000 mm 0,0 UV-I 0 W/m² 4,7 °C 6,7 °C 0,0 km/h (0 Bft)
18.09.2019 22:01 6,6 °C 87 % 1022,2 hPa 0,0 mm 0,0 km/h (0 Bft) O-NO 59 ° 0 min 0,000 mm 0,0 UV-I 0 W/m² 4,6 °C 6,6 °C 0,0 km/h (0 Bft)
18.09.2019 22:02 6,5 °C 87 % 1022,2 hPa 0,0 mm 0,0 km/h (0 Bft) O-NO 59 ° 0 min 0,000 mm 0,0 UV-I 0 W/m² 4,5 °C 6,5 °C 0,0 km/h (0 Bft)
18.09.2019 22:03 6,4 °C 87 % 1022,2 hPa 0,0 mm 0,0 km/h (0 Bft) O-NO 59 ° 0 min 0,000 mm 0,0 UV-I 0 W/m² 4,4 °C 6,4 °C 0,0 km/h (0 Bft)
18.09.2019 22:04 6,4 °C 87 % 1022,2 hPa 0,0 mm 0,0 km/h (0 Bft) O-NO 59 ° 0 min 0,000 mm 0,0 UV-I 0 W/m² 4,4 °C 6,4 °C 0,0 km/h (0 Bft)
18.09.2019 22:05 6,3 °C 88 % 1022,2 hPa 0,0 mm 0,0 km/h (0 Bft) O-NO 59 ° 0 min 0,000 mm 0,0 UV-I 0 W/m² 4,5 °C 6,3 °C 0,0 km/h (0 Bft)
18.09.2019 22:06 6,3 °C 88 % 1022,1 hPa 0,0 mm 0,0 km/h (0 Bft) O-NO 59 ° 0 min 0,000 mm 0,0 UV-I 0 W/m² 4,5 °C 6,3 °C 0,0 km/h (0 Bft)
18.09.2019 22:07 6,3 °C 88 % 1022,1 hPa 0,0 mm 0,0 km/h (0 Bft) O-NO 59 ° 0 min 0,000 mm 0,0 UV-I 0 W/m² 4,5 °C 6,3 °C 0,0 km/h (0 Bft)
18.09.2019 22:08 6,3 °C 88 % 1022,2 hPa 0,0 mm 0,0 km/h (0 Bft) O-NO 59 ° 0 min 0,000 mm 0,0 UV-I 0 W/m² 4,5 °C 6,3 °C 0,0 km/h (0 Bft)
18.09.2019 22:09 6,2 °C 88 % 1022,2 hPa 0,0 mm 0,0 km/h (0 Bft) O-NO 59 ° 0 min 0,000 mm 0,0 UV-I 0 W/m² 4,4 °C 6,2 °C 0,0 km/h (0 Bft)
18.09.2019 22:10 6,3 °C 88 % 1022,2 hPa 0,0 mm 0,0 km/h (0 Bft) O-NO 59 ° 0 min 0,000 mm 0,0 UV-I 0 W/m² 4,5 °C 6,3 °C 0,0 km/h (0 Bft)
18.09.2019 22:11 6,2 °C 88 % 1022,2 hPa 0,0 mm 0,0 km/h (0 Bft) O-NO 59 ° 0 min 0,000 mm 0,0 UV-I 0 W/m² 4,4 °C 6,2 °C 0,0 km/h (0 Bft)
18.09.2019 22:12 6,2 °C 88 % 1022,2 hPa 0,0 mm 0,0 km/h (0 Bft) O-NO 59 ° 0 min 0,000 mm 0,0 UV-I 0 W/m² 4,4 °C 6,2 °C 0,0 km/h (0 Bft)
18.09.2019 22:13 6,2 °C 89 % 1022,2 hPa 0,0 mm 0,0 km/h (0 Bft) O-NO 59 ° 0 min 0,000 mm 0,0 UV-I 0 W/m² 4,5 °C 6,2 °C 0,0 km/h (0 Bft)
18.09.2019 22:14 6,2 °C 89 % 1022,2 hPa 0,0 mm 0,0 km/h (0 Bft) O-NO 59 ° 0 min 0,000 mm 0,0 UV-I 0 W/m² 4,5 °C 6,2 °C 0,0 km/h (0 Bft)
18.09.2019 22:15 6,3 °C 89 % 1022,2 hPa 0,0 mm 0,0 km/h (0 Bft) O-NO 59 ° 0 min 0,000 mm 0,0 UV-I 0 W/m² 4,6 °C 6,3 °C 0,0 km/h (0 Bft)
18.09.2019 22:16 6,4 °C 88 % 1022,2 hPa 0,0 mm 0,0 km/h (0 Bft) O-NO 59 ° 0 min 0,000 mm 0,0 UV-I 0 W/m² 4,6 °C 6,4 °C 0,0 km/h (0 Bft)
18.09.2019 22:17 6,3 °C 88 % 1022,2 hPa 0,0 mm 0,0 km/h (0 Bft) O-NO 59 ° 0 min 0,000 mm 0,0 UV-I 0 W/m² 4,5 °C 6,3 °C 0,0 km/h (0 Bft)
18.09.2019 22:18 6,3 °C 88 % 1022,3 hPa 0,0 mm 0,0 km/h (0 Bft) O-NO 59 ° 0 min 0,000 mm 0,0 UV-I 0 W/m² 4,5 °C 6,3 °C 0,0 km/h (0 Bft)
18.09.2019 22:19 6,2 °C 88 % 1022,3 hPa 0,0 mm 0,0 km/h (0 Bft) O-NO 59 ° 0 min 0,000 mm 0,0 UV-I 0 W/m² 4,4 °C 6,2 °C 0,0 km/h (0 Bft)
18.09.2019 22:20 6,2 °C 89 % 1022,2 hPa 0,0 mm 0,0 km/h (0 Bft) O-NO 59 ° 0 min 0,000 mm 0,0 UV-I 0 W/m² 4,5 °C 6,2 °C 0,0 km/h (0 Bft)
18.09.2019 22:21 6,2 °C 89 % 1022,3 hPa 0,0 mm 0,0 km/h (0 Bft) O-NO 59 ° 0 min 0,000 mm 0,0 UV-I 0 W/m² 4,5 °C 6,2 °C 0,0 km/h (0 Bft)
18.09.2019 22:22 6,2 °C 89 % 1022,2 hPa 0,0 mm 0,0 km/h (0 Bft) O-NO 59 ° 0 min 0,000 mm 0,0 UV-I 0 W/m² 4,5 °C 6,2 °C 0,0 km/h (0 Bft)
18.09.2019 22:23 6,2 °C 89 % 1022,2 hPa 0,0 mm 0,0 km/h (0 Bft) O-NO 59 ° 0 min 0,000 mm 0,0 UV-I 0 W/m² 4,5 °C 6,2 °C 0,0 km/h (0 Bft)
18.09.2019 22:24 6,2 °C 89 % 1022,2 hPa 0,0 mm 0,0 km/h (0 Bft) O-NO 59 ° 0 min 0,000 mm 0,0 UV-I 0 W/m² 4,5 °C 6,2 °C 0,0 km/h (0 Bft)
18.09.2019 22:25 6,2 °C 89 % 1022,2 hPa 0,0 mm 0,0 km/h (0 Bft) O-NO 59 ° 0 min 0,000 mm 0,0 UV-I 0 W/m² 4,5 °C 6,2 °C 0,0 km/h (0 Bft)
18.09.2019 22:26 6,2 °C 89 % 1022,3 hPa 0,0 mm 0,0 km/h (0 Bft) O-NO 59 ° 0 min 0,000 mm 0,0 UV-I 0 W/m² 4,5 °C 6,2 °C 0,0 km/h (0 Bft)
18.09.2019 22:27 6,2 °C 89 % 1022,3 hPa 0,0 mm 0,0 km/h (0 Bft) O-NO 59 ° 0 min 0,000 mm 0,0 UV-I 0 W/m² 4,5 °C 6,2 °C 0,0 km/h (0 Bft)
18.09.2019 22:28 6,2 °C 89 % 1022,3 hPa 0,0 mm 0,0 km/h (0 Bft) O-NO 59 ° 0 min 0,000 mm 0,0 UV-I 0 W/m² 4,5 °C 6,2 °C 0,0 km/h (0 Bft)
18.09.2019 22:29 6,2 °C 89 % 1022,3 hPa 0,0 mm 0,0 km/h (0 Bft) O-NO 59 ° 0 min 0,000 mm 0,0 UV-I 0 W/m² 4,5 °C 6,2 °C 0,0 km/h (0 Bft)
18.09.2019 22:30 6,2 °C 89 % 1022,3 hPa 0,0 mm 0,0 km/h (0 Bft) O-NO 59 ° 0 min 0,000 mm 0,0 UV-I 0 W/m² 4,5 °C 6,2 °C 0,0 km/h (0 Bft)
18.09.2019 22:31 6,2 °C 89 % 1022,4 hPa 0,0 mm 0,0 km/h (0 Bft) O-NO 59 ° 0 min 0,000 mm 0,0 UV-I 0 W/m² 4,5 °C 6,2 °C 0,0 km/h (0 Bft)
18.09.2019 22:32 6,2 °C 89 % 1022,4 hPa 0,0 mm 0,0 km/h (0 Bft) O-NO 59 ° 0 min 0,000 mm 0,0 UV-I 0 W/m² 4,5 °C 6,2 °C 0,0 km/h (0 Bft)
18.09.2019 22:33 6,2 °C 89 % 1022,4 hPa 0,0 mm 0,0 km/h (0 Bft) O-NO 59 ° 0 min 0,000 mm 0,0 UV-I 0 W/m² 4,5 °C 6,2 °C 0,0 km/h (0 Bft)
18.09.2019 22:34 6,1 °C 89 % 1022,4 hPa 0,0 mm 0,0 km/h (0 Bft) O-NO 59 ° 0 min 0,000 mm 0,0 UV-I 0 W/m² 4,4 °C 6,1 °C 0,0 km/h (0 Bft)
18.09.2019 22:35 6,1 °C 89 % 1022,4 hPa 0,0 mm 0,0 km/h (0 Bft) O-NO 59 ° 0 min 0,000 mm 0,0 UV-I 0 W/m² 4,4 °C 6,1 °C 0,0 km/h (0 Bft)
18.09.2019 22:36 6,1 °C 89 % 1022,3 hPa 0,0 mm 0,0 km/h (0 Bft) O-NO 59 ° 0 min 0,000 mm 0,0 UV-I 0 W/m² 4,4 °C 6,1 °C 0,0 km/h (0 Bft)
18.09.2019 22:37 6,1 °C 89 % 1022,4 hPa 0,0 mm 0,0 km/h (0 Bft) O-NO 59 ° 0 min 0,000 mm 0,0 UV-I 0 W/m² 4,4 °C 6,1 °C 0,0 km/h (0 Bft)
18.09.2019 22:38 6,0 °C 89 % 1022,4 hPa 0,0 mm 0,0 km/h (0 Bft) O-NO 59 ° 0 min 0,000 mm 0,0 UV-I 0 W/m² 4,3 °C 6,0 °C 0,0 km/h (0 Bft)
18.09.2019 22:39 5,9 °C 89 % 1022,4 hPa 0,0 mm 0,0 km/h (0 Bft) O-NO 59 ° 0 min 0,000 mm 0,0 UV-I 0 W/m² 4,2 °C 5,9 °C 0,0 km/h (0 Bft)
18.09.2019 22:40 5,9 °C 89 % 1022,4 hPa 0,0 mm 0,0 km/h (0 Bft) O-NO 59 ° 0 min 0,000 mm 0,0 UV-I 0 W/m² 4,2 °C 5,9 °C 0,0 km/h (0 Bft)
18.09.2019 22:41 5,9 °C 89 % 1022,4 hPa 0,0 mm 0,0 km/h (0 Bft) O-NO 59 ° 0 min 0,000 mm 0,0 UV-I 0 W/m² 4,2 °C 5,9 °C 0,0 km/h (0 Bft)
18.09.2019 22:42 5,8 °C 89 % 1022,5 hPa 0,0 mm 0,0 km/h (0 Bft) O-NO 59 ° 0 min 0,000 mm 0,0 UV-I 0 W/m² 4,1 °C 5,8 °C 0,0 km/h (0 Bft)
18.09.2019 22:43 5,8 °C 89 % 1022,5 hPa 0,0 mm 0,0 km/h (0 Bft) O-NO 59 ° 0 min 0,000 mm 0,0 UV-I 0 W/m² 4,1 °C 5,8 °C 0,0 km/h (0 Bft)
18.09.2019 22:44 5,8 °C 90 % 1022,5 hPa 0,0 mm 0,0 km/h (0 Bft) O-NO 59 ° 0 min 0,000 mm 0,0 UV-I 0 W/m² 4,3 °C 5,8 °C 0,0 km/h (0 Bft)
18.09.2019 22:45 5,8 °C 90 % 1022,5 hPa 0,0 mm 0,0 km/h (0 Bft) O-NO 59 ° 0 min 0,000 mm 0,0 UV-I 0 W/m² 4,3 °C 5,8 °C 0,0 km/h (0 Bft)
18.09.2019 22:46 5,8 °C 90 % 1022,5 hPa 0,0 mm 0,0 km/h (0 Bft) O-NO 59 ° 0 min 0,000 mm 0,0 UV-I 0 W/m² 4,3 °C 5,8 °C 0,0 km/h (0 Bft)
18.09.2019 22:47 5,8 °C 90 % 1022,5 hPa 0,0 mm 0,0 km/h (0 Bft) O-NO 59 ° 0 min 0,000 mm 0,0 UV-I 0 W/m² 4,3 °C 5,8 °C 0,0 km/h (0 Bft)
18.09.2019 22:48 5,8 °C 90 % 1022,6 hPa 0,0 mm 0,0 km/h (0 Bft) O-NO 59 ° 0 min 0,000 mm 0,0 UV-I 0 W/m² 4,3 °C 5,8 °C 0,0 km/h (0 Bft)
18.09.2019 22:49 5,8 °C 90 % 1022,5 hPa 0,0 mm 0,0 km/h (0 Bft) O-NO 59 ° 0 min 0,000 mm 0,0 UV-I 0 W/m² 4,3 °C 5,8 °C 0,0 km/h (0 Bft)
18.09.2019 22:50 5,8 °C 90 % 1022,6 hPa 0,0 mm 0,0 km/h (0 Bft) O-NO 59 ° 0 min 0,000 mm 0,0 UV-I 0 W/m² 4,3 °C 5,8 °C 0,0 km/h (0 Bft)
18.09.2019 22:51 5,8 °C 90 % 1022,6 hPa 0,0 mm 0,0 km/h (0 Bft) O-NO 59 ° 0 min 0,000 mm 0,0 UV-I 0 W/m² 4,3 °C 5,8 °C 0,0 km/h (0 Bft)
18.09.2019 22:52 5,8 °C 90 % 1022,6 hPa 0,0 mm 0,0 km/h (0 Bft) O-NO 59 ° 0 min 0,000 mm 0,0 UV-I 0 W/m² 4,3 °C 5,8 °C 0,0 km/h (0 Bft)
18.09.2019 22:53 5,8 °C 90 % 1022,5 hPa 0,0 mm 0,0 km/h (0 Bft) O-NO 59 ° 0 min 0,000 mm 0,0 UV-I 0 W/m² 4,3 °C 5,8 °C 0,0 km/h (0 Bft)
18.09.2019 22:54 5,8 °C 90 % 1022,6 hPa 0,0 mm 0,0 km/h (0 Bft) O-NO 59 ° 0 min 0,000 mm 0,0 UV-I 0 W/m² 4,3 °C 5,8 °C 0,0 km/h (0 Bft)
18.09.2019 22:55 5,7 °C 90 % 1022,5 hPa 0,0 mm 0,0 km/h (0 Bft) O-NO 59 ° 0 min 0,000 mm 0,0 UV-I 0 W/m² 4,2 °C 5,7 °C 0,0 km/h (0 Bft)
18.09.2019 22:56 5,7 °C 90 % 1022,5 hPa 0,0 mm 0,0 km/h (0 Bft) O-NO 59 ° 0 min 0,000 mm 0,0 UV-I 0 W/m² 4,2 °C 5,7 °C 0,0 km/h (0 Bft)
18.09.2019 22:57 5,7 °C 90 % 1022,5 hPa 0,0 mm 0,0 km/h (0 Bft) O-NO 59 ° 0 min 0,000 mm 0,0 UV-I 0 W/m² 4,2 °C 5,7 °C 0,0 km/h (0 Bft)
18.09.2019 22:58 5,7 °C 90 % 1022,5 hPa 0,0 mm 0,0 km/h (0 Bft) O-NO 59 ° 0 min 0,000 mm 0,0 UV-I 0 W/m² 4,2 °C 5,7 °C 0,0 km/h (0 Bft)
18.09.2019 22:59 5,7 °C 90 % 1022,5 hPa 0,0 mm 0,0 km/h (0 Bft) O-NO 59 ° 0 min 0,000 mm 0,0 UV-I 0 W/m² 4,2 °C 5,7 °C 0,0 km/h (0 Bft)
18.09.2019 23:00 5,7 °C 90 % 1022,5 hPa 0,0 mm 0,0 km/h (0 Bft) O-NO 59 ° 0 min 0,000 mm 0,0 UV-I 0 W/m² 4,2 °C 5,7 °C 0,0 km/h (0 Bft)
18.09.2019 23:01 5,7 °C 90 % 1022,5 hPa 0,0 mm 0,0 km/h (0 Bft) O-NO 59 ° 0 min 0,000 mm 0,0 UV-I 0 W/m² 4,2 °C 5,7 °C 0,0 km/h (0 Bft)
18.09.2019 23:02 5,7 °C 90 % 1022,5 hPa 0,0 mm 0,0 km/h (0 Bft) O-NO 59 ° 0 min 0,000 mm 0,0 UV-I 0 W/m² 4,2 °C 5,7 °C 0,0 km/h (0 Bft)
18.09.2019 23:03 5,7 °C 90 % 1022,5 hPa 0,0 mm 0,0 km/h (0 Bft) O-NO 59 ° 0 min 0,000 mm 0,0 UV-I 0 W/m² 4,2 °C 5,7 °C 0,0 km/h (0 Bft)
18.09.2019 23:04 5,7 °C 90 % 1022,6 hPa 0,0 mm 0,0 km/h (0 Bft) O-NO 59 ° 0 min 0,000 mm 0,0 UV-I 0 W/m² 4,2 °C 5,7 °C 0,0 km/h (0 Bft)
18.09.2019 23:05 5,7 °C 90 % 1022,5 hPa 0,0 mm 0,0 km/h (0 Bft) O-NO 59 ° 0 min 0,000 mm 0,0 UV-I 0 W/m² 4,2 °C 5,7 °C 0,0 km/h (0 Bft)
18.09.2019 23:06 5,6 °C 90 % 1022,5 hPa 0,0 mm 0,0 km/h (0 Bft) O-NO 59 ° 0 min 0,000 mm 0,0 UV-I 0 W/m² 4,1 °C 5,6 °C 0,0 km/h (0 Bft)
18.09.2019 23:07 5,6 °C 90 % 1022,5 hPa 0,0 mm 0,0 km/h (0 Bft) O-NO 59 ° 0 min 0,000 mm 0,0 UV-I 0 W/m² 4,1 °C 5,6 °C 0,0 km/h (0 Bft)
18.09.2019 23:08 5,6 °C 90 % 1022,5 hPa 0,0 mm 0,0 km/h (0 Bft) O-NO 59 ° 0 min 0,000 mm 0,0 UV-I 0 W/m² 4,1 °C 5,6 °C 0,0 km/h (0 Bft)
18.09.2019 23:09 5,6 °C 90 % 1022,5 hPa 0,0 mm 0,0 km/h (0 Bft) O-NO 59 ° 0 min 0,000 mm 0,0 UV-I 0 W/m² 4,1 °C 5,6 °C 0,0 km/h (0 Bft)
18.09.2019 23:10 5,5 °C 90 % 1022,6 hPa 0,0 mm 0,0 km/h (0 Bft) O-NO 59 ° 0 min 0,000 mm 0,0 UV-I 0 W/m² 4,0 °C 5,5 °C 0,0 km/h (0 Bft)
18.09.2019 23:11 5,4 °C 90 % 1022,6 hPa 0,0 mm 0,0 km/h (0 Bft) O-NO 59 ° 0 min 0,000 mm 0,0 UV-I 0 W/m² 3,9 °C 5,4 °C 0,0 km/h (0 Bft)
18.09.2019 23:12 5,4 °C 90 % 1022,6 hPa 0,0 mm 0,0 km/h (0 Bft) O-NO 59 ° 0 min 0,000 mm 0,0 UV-I 0 W/m² 3,9 °C 5,4 °C 0,0 km/h (0 Bft)
18.09.2019 23:13 5,4 °C 90 % 1022,6 hPa 0,0 mm 0,0 km/h (0 Bft) O-NO 59 ° 0 min 0,000 mm 0,0 UV-I 0 W/m² 3,9 °C 5,4 °C 0,0 km/h (0 Bft)
18.09.2019 23:14 5,3 °C 90 % 1022,6 hPa 0,0 mm 0,0 km/h (0 Bft) O-NO 59 ° 0 min 0,000 mm 0,0 UV-I 0 W/m² 3,8 °C 5,3 °C 0,0 km/h (0 Bft)
18.09.2019 23:15 5,3 °C 90 % 1022,6 hPa 0,0 mm 0,0 km/h (0 Bft) O-NO 59 ° 0 min 0,000 mm 0,0 UV-I 0 W/m² 3,8 °C 5,3 °C 0,0 km/h (0 Bft)
18.09.2019 23:16 5,3 °C 90 % 1022,6 hPa 0,0 mm 0,0 km/h (0 Bft) O-NO 59 ° 0 min 0,000 mm 0,0 UV-I 0 W/m² 3,8 °C 5,3 °C 0,0 km/h (0 Bft)
18.09.2019 23:17 5,3 °C 90 % 1022,6 hPa 0,0 mm 0,0 km/h (0 Bft) O-NO 59 ° 0 min 0,000 mm 0,0 UV-I 0 W/m² 3,8 °C 5,3 °C 0,0 km/h (0 Bft)
18.09.2019 23:18 5,3 °C 91 % 1022,6 hPa 0,0 mm 0,0 km/h (0 Bft) O-NO 59 ° 0 min 0,000 mm 0,0 UV-I 0 W/m² 4,0 °C 5,3 °C 0,0 km/h (0 Bft)
18.09.2019 23:19 5,3 °C 91 % 1022,6 hPa 0,0 mm 0,0 km/h (0 Bft) O-NO 59 ° 0 min 0,000 mm 0,0 UV-I 0 W/m² 4,0 °C 5,3 °C 0,0 km/h (0 Bft)
18.09.2019 23:20 5,3 °C 91 % 1022,6 hPa 0,0 mm 0,0 km/h (0 Bft) O-NO 59 ° 0 min 0,000 mm 0,0 UV-I 0 W/m² 4,0 °C 5,3 °C 0,0 km/h (0 Bft)
18.09.2019 23:21 5,3 °C 91 % 1022,6 hPa 0,0 mm 0,0 km/h (0 Bft) O-NO 59 ° 0 min 0,000 mm 0,0 UV-I 0 W/m² 4,0 °C 5,3 °C 0,0 km/h (0 Bft)
18.09.2019 23:22 5,3 °C 91 % 1022,6 hPa 0,0 mm 0,0 km/h (0 Bft) O-NO 59 ° 0 min 0,000 mm 0,0 UV-I 0 W/m² 4,0 °C 5,3 °C 0,0 km/h (0 Bft)
18.09.2019 23:23 5,2 °C 91 % 1022,7 hPa 0,0 mm 0,0 km/h (0 Bft) O-NO 59 ° 0 min 0,000 mm 0,0 UV-I 0 W/m² 3,9 °C 5,2 °C 0,0 km/h (0 Bft)
18.09.2019 23:24 5,2 °C 91 % 1022,6 hPa 0,0 mm 0,0 km/h (0 Bft) O-NO 59 ° 0 min 0,000 mm 0,0 UV-I 0 W/m² 3,9 °C 5,2 °C 0,0 km/h (0 Bft)
18.09.2019 23:25 5,2 °C 91 % 1022,6 hPa 0,0 mm 0,0 km/h (0 Bft) O-NO 59 ° 0 min 0,000 mm 0,0 UV-I 0 W/m² 3,9 °C 5,2 °C 0,0 km/h (0 Bft)
18.09.2019 23:26 5,2 °C 91 % 1022,6 hPa 0,0 mm 0,0 km/h (0 Bft) O-NO 59 ° 0 min 0,000 mm 0,0 UV-I 0 W/m² 3,9 °C 5,2 °C 0,0 km/h (0 Bft)
18.09.2019 23:27 5,2 °C 91 % 1022,6 hPa 0,0 mm 0,0 km/h (0 Bft) O-NO 59 ° 0 min 0,000 mm 0,0 UV-I 0 W/m² 3,9 °C 5,2 °C 0,0 km/h (0 Bft)
18.09.2019 23:28 5,2 °C 91 % 1022,6 hPa 0,0 mm 0,0 km/h (0 Bft) O-NO 59 ° 0 min 0,000 mm 0,0 UV-I 0 W/m² 3,9 °C 5,2 °C 0,0 km/h (0 Bft)
18.09.2019 23:29 5,2 °C 91 % 1022,6 hPa 0,0 mm 0,0 km/h (0 Bft) O-NO 59 ° 0 min 0,000 mm 0,0 UV-I 0 W/m² 3,9 °C 5,2 °C 0,0 km/h (0 Bft)
18.09.2019 23:30 5,2 °C 91 % 1022,6 hPa 0,0 mm 0,0 km/h (0 Bft) O-NO 59 ° 0 min 0,000 mm 0,0 UV-I 0 W/m² 3,9 °C 5,2 °C 0,0 km/h (0 Bft)
18.09.2019 23:31 5,2 °C 91 % 1022,6 hPa 0,0 mm 0,0 km/h (0 Bft) O-NO 59 ° 0 min 0,000 mm 0,0 UV-I 0 W/m² 3,9 °C 5,2 °C 0,0 km/h (0 Bft)
18.09.2019 23:32 5,2 °C 91 % 1022,6 hPa 0,0 mm 0,0 km/h (0 Bft) O-NO 59 ° 0 min 0,000 mm 0,0 UV-I 0 W/m² 3,9 °C 5,2 °C 0,0 km/h (0 Bft)
18.09.2019 23:33 5,2 °C 91 % 1022,6 hPa 0,0 mm 0,0 km/h (0 Bft) O-NO 59 ° 0 min 0,000 mm 0,0 UV-I 0 W/m² 3,9 °C 5,2 °C 0,0 km/h (0 Bft)
18.09.2019 23:34 5,2 °C 91 % 1022,5 hPa 0,0 mm 0,0 km/h (0 Bft) O-NO 59 ° 0 min 0,000 mm 0,0 UV-I 0 W/m² 3,9 °C 5,2 °C 0,0 km/h (0 Bft)
18.09.2019 23:35 5,2 °C 90 % 1022,5 hPa 0,0 mm 0,0 km/h (0 Bft) O-NO 59 ° 0 min 0,000 mm 0,0 UV-I 0 W/m² 3,7 °C 5,2 °C 0,0 km/h (0 Bft)
18.09.2019 23:36 5,2 °C 91 % 1022,5 hPa 0,0 mm 0,0 km/h (0 Bft) O-NO 59 ° 0 min 0,000 mm 0,0 UV-I 0 W/m² 3,9 °C 5,2 °C 0,0 km/h (0 Bft)
18.09.2019 23:37 5,1 °C 91 % 1022,5 hPa 0,0 mm 0,0 km/h (0 Bft) O-NO 59 ° 0 min 0,000 mm 0,0 UV-I 0 W/m² 3,8 °C 5,1 °C 0,0 km/h (0 Bft)
18.09.2019 23:38 5,1 °C 90 % 1022,5 hPa 0,0 mm 0,0 km/h (0 Bft) O-NO 59 ° 0 min 0,000 mm 0,0 UV-I 0 W/m² 3,6 °C 5,1 °C 0,0 km/h (0 Bft)
18.09.2019 23:39 5,1 °C 90 % 1022,5 hPa 0,0 mm 0,0 km/h (0 Bft) O-NO 59 ° 0 min 0,000 mm 0,0 UV-I 0 W/m² 3,6 °C 5,1 °C 0,0 km/h (0 Bft)
18.09.2019 23:40 5,1 °C 90 % 1022,6 hPa 0,0 mm 0,0 km/h (0 Bft) O-NO 59 ° 0 min 0,000 mm 0,0 UV-I 0 W/m² 3,6 °C 5,1 °C 0,0 km/h (0 Bft)
18.09.2019 23:41 5,0 °C 90 % 1022,6 hPa 0,0 mm 0,0 km/h (0 Bft) O-NO 59 ° 0 min 0,000 mm 0,0 UV-I 0 W/m² 3,5 °C 5,0 °C 0,0 km/h (0 Bft)
18.09.2019 23:42 4,9 °C 90 % 1022,6 hPa 0,0 mm 0,0 km/h (0 Bft) O-NO 59 ° 0 min 0,000 mm 0,0 UV-I 0 W/m² 3,4 °C 4,9 °C 0,0 km/h (0 Bft)
18.09.2019 23:43 4,9 °C 90 % 1022,6 hPa 0,0 mm 0,0 km/h (0 Bft) O-NO 59 ° 0 min 0,000 mm 0,0 UV-I 0 W/m² 3,4 °C 4,9 °C 0,0 km/h (0 Bft)
18.09.2019 23:44 4,9 °C 91 % 1022,6 hPa 0,0 mm 0,0 km/h (0 Bft) O-NO 59 ° 0 min 0,000 mm 0,0 UV-I 0 W/m² 3,6 °C 4,9 °C 0,0 km/h (0 Bft)
18.09.2019 23:45 4,8 °C 91 % 1022,7 hPa 0,0 mm 0,0 km/h (0 Bft) O-NO 59 ° 0 min 0,000 mm 0,0 UV-I 0 W/m² 3,5 °C 4,8 °C 0,0 km/h (0 Bft)
18.09.2019 23:46 4,8 °C 91 % 1022,6 hPa 0,0 mm 0,0 km/h (0 Bft) O-NO 59 ° 0 min 0,000 mm 0,0 UV-I 0 W/m² 3,5 °C 4,8 °C 0,0 km/h (0 Bft)
18.09.2019 23:47 4,8 °C 91 % 1022,6 hPa 0,0 mm 0,0 km/h (0 Bft) O-NO 59 ° 0 min 0,000 mm 0,0 UV-I 0 W/m² 3,5 °C 4,8 °C 0,0 km/h (0 Bft)
18.09.2019 23:48 4,8 °C 91 % 1022,6 hPa 0,0 mm 0,0 km/h (0 Bft) O-NO 59 ° 0 min 0,000 mm 0,0 UV-I 0 W/m² 3,5 °C 4,8 °C 0,0 km/h (0 Bft)
18.09.2019 23:49 4,8 °C 91 % 1022,6 hPa 0,0 mm 0,0 km/h (0 Bft) O-NO 59 ° 0 min 0,000 mm 0,0 UV-I 0 W/m² 3,5 °C 4,8 °C 0,0 km/h (0 Bft)
18.09.2019 23:50 4,8 °C 91 % 1022,7 hPa 0,0 mm 0,0 km/h (0 Bft) O-NO 59 ° 0 min 0,000 mm 0,0 UV-I 0 W/m² 3,5 °C 4,8 °C 0,0 km/h (0 Bft)
18.09.2019 23:51 4,8 °C 91 % 1022,7 hPa 0,0 mm 0,0 km/h (0 Bft) O-NO 59 ° 0 min 0,000 mm 0,0 UV-I 0 W/m² 3,5 °C 4,8 °C 0,0 km/h (0 Bft)
18.09.2019 23:52 4,8 °C 91 % 1022,7 hPa 0,0 mm 0,0 km/h (0 Bft) O-NO 59 ° 0 min 0,000 mm 0,0 UV-I 0 W/m² 3,5 °C 4,8 °C 0,0 km/h (0 Bft)
18.09.2019 23:53 4,8 °C 91 % 1022,7 hPa 0,0 mm 0,0 km/h (0 Bft) O-NO 59 ° 0 min 0,000 mm 0,0 UV-I 0 W/m² 3,5 °C 4,8 °C 0,0 km/h (0 Bft)
18.09.2019 23:54 4,8 °C 91 % 1022,8 hPa 0,0 mm 0,0 km/h (0 Bft) O-NO 59 ° 0 min 0,000 mm 0,0 UV-I 0 W/m² 3,5 °C 4,8 °C 0,0 km/h (0 Bft)
18.09.2019 23:55 4,8 °C 91 % 1022,7 hPa 0,0 mm 0,0 km/h (0 Bft) O-NO 59 ° 0 min 0,000 mm 0,0 UV-I 0 W/m² 3,5 °C 4,8 °C 0,0 km/h (0 Bft)
18.09.2019 23:56 4,8 °C 91 % 1022,7 hPa 0,0 mm 0,0 km/h (0 Bft) O-NO 59 ° 0 min 0,000 mm 0,0 UV-I 0 W/m² 3,5 °C 4,8 °C 0,0 km/h (0 Bft)
18.09.2019 23:57 4,8 °C 91 % 1022,7 hPa 0,0 mm 0,0 km/h (0 Bft) O-NO 59 ° 0 min 0,000 mm 0,0 UV-I 0 W/m² 3,5 °C 4,8 °C 0,0 km/h (0 Bft)
18.09.2019 23:58 4,8 °C 91 % 1022,7 hPa 0,0 mm 0,0 km/h (0 Bft) O-NO 59 ° 0 min 0,000 mm 0,0 UV-I 0 W/m² 3,5 °C 4,8 °C 0,0 km/h (0 Bft)
18.09.2019 23:59 4,9 °C 91 % 1022,7 hPa 0,0 mm 0,0 km/h (0 Bft) O-NO 59 ° 0 min 0,000 mm 0,0 UV-I 0 W/m² 3,6 °C 4,9 °C 0,0 km/h (0 Bft)
_ Min-Zeit 23:58 16:58 00:06 - 23:59 - - - - - - 23:43 23:58 23:59
Minimum _ 4,8 °C 70 % 1018,2 hPa - 0,0 km/h (0 Bft) - - - - - - 3,4 °C 4,8 °C 0,0 km/h (0 Bft)
_ Max-Zeit 15:57 23:59 23:54 23:59 14:05 - - 14:56 14:01 13:25 14:18 00:04 15:58 09:46
Maximum _ 14,1 °C 91 % 1022,8 hPa 0,0 mm 14,2 km/h
N (3 Bft)
- - 1 min 0,279 mm 4,7 UV-I 809 W/m² 10,5 °C 14,0 °C 19,3 km/h
NO (3 Bft)
Durchschnitt _ 10,6 °C 80 % 1020,1 hPa #0,0 mm 2,8 km/h (1 Bft) O-NO - #34 min. #1,549 mm 2,0 UV-I 102 W/m² 7,3 °C 10,5 °C 4,7 km/h (1 Bft)